<?xml version="1.0" encoding="UTF-8" standalone="no" ?>
<gpx xmlns="http://www.topografix.com/GPX/1/1" xmlns:xsi="http://www.w3.org/2001/XMLSchema-instance" xsi:schemaLocation="http://www.topografix.com/GPX/1/1 http://www.topografix.com/GPX/1/1/gpx.xsd" version="1.1" creator="VisuGPX - https://www.visugpx.com">
  <metadata>
    <name>St Sorlin 12kms</name>
    <desc><![CDATA[St Sorlin, Chavagneux, Arfeuille, l\'Adret, St Genoud, Chaussan, les Pinattes, St Sorlin]]></desc>
  </metadata>
  <trk>
    <name><![CDATA[St Sorlin 12kms_1]]></name>
    <trkseg>
      <trkpt lat="45.62213" lon="4.64062">
        <ele>483.2</ele>
        <time>2013-10-09T07:11:48Z</time>
      </trkpt>
      <trkpt lat="45.62213" lon="4.64062">
        <ele>483.2</ele>
        <time>2013-10-09T07:11:51Z</time>
      </trkpt>
      <trkpt lat="45.62213" lon="4.64062">
        <ele>488.3</ele>
        <time>2013-10-09T07:11:54Z</time>
      </trkpt>
      <trkpt lat="45.62213" lon="4.64062">
        <ele>483.2</ele>
        <time>2013-10-09T07:12:02Z</time>
      </trkpt>
      <trkpt lat="45.62199" lon="4.64073">
        <ele>480.1</ele>
        <time>2013-10-09T07:12:05Z</time>
      </trkpt>
      <trkpt lat="45.62191" lon="4.64076">
        <ele>481.5</ele>
        <time>2013-10-09T07:12:11Z</time>
      </trkpt>
      <trkpt lat="45.62191" lon="4.64076">
        <ele>479.1</ele>
        <time>2013-10-09T07:12:20Z</time>
      </trkpt>
      <trkpt lat="45.62176" lon="4.6408">
        <ele>483.7</ele>
        <time>2013-10-09T07:12:21Z</time>
      </trkpt>
      <trkpt lat="45.62176" lon="4.6408">
        <ele>479.1</ele>
        <time>2013-10-09T07:12:29Z</time>
      </trkpt>
      <trkpt lat="45.62162" lon="4.64081">
        <ele>480.2</ele>
        <time>2013-10-09T07:12:34Z</time>
      </trkpt>
      <trkpt lat="45.62156" lon="4.64082">
        <ele>481.5</ele>
        <time>2013-10-09T07:12:37Z</time>
      </trkpt>
      <trkpt lat="45.62148" lon="4.64074">
        <ele>484.2</ele>
        <time>2013-10-09T07:12:42Z</time>
      </trkpt>
      <trkpt lat="45.62148" lon="4.64074">
        <ele>481.3</ele>
        <time>2013-10-09T07:12:50Z</time>
      </trkpt>
      <trkpt lat="45.62144" lon="4.64074">
        <ele>486.5</ele>
        <time>2013-10-09T07:12:53Z</time>
      </trkpt>
      <trkpt lat="45.62144" lon="4.64067">
        <ele>486</ele>
        <time>2013-10-09T07:12:58Z</time>
      </trkpt>
      <trkpt lat="45.62144" lon="4.64058">
        <ele>486</ele>
        <time>2013-10-09T07:13:02Z</time>
      </trkpt>
      <trkpt lat="45.62145" lon="4.64051">
        <ele>485.8</ele>
        <time>2013-10-09T07:13:06Z</time>
      </trkpt>
      <trkpt lat="45.62148" lon="4.64038">
        <ele>487.6</ele>
        <time>2013-10-09T07:13:14Z</time>
      </trkpt>
      <trkpt lat="45.62148" lon="4.64038">
        <ele>486</ele>
        <time>2013-10-09T07:13:22Z</time>
      </trkpt>
      <trkpt lat="45.62148" lon="4.64038">
        <ele>486</ele>
        <time>2013-10-09T07:13:32Z</time>
      </trkpt>
      <trkpt lat="45.62147" lon="4.64014">
        <ele>490</ele>
        <time>2013-10-09T07:13:33Z</time>
      </trkpt>
      <trkpt lat="45.62146" lon="4.64001">
        <ele>490.9</ele>
        <time>2013-10-09T07:13:40Z</time>
      </trkpt>
      <trkpt lat="45.62143" lon="4.63996">
        <ele>490</ele>
        <time>2013-10-09T07:13:47Z</time>
      </trkpt>
      <trkpt lat="45.6214" lon="4.6399">
        <ele>489.3</ele>
        <time>2013-10-09T07:13:52Z</time>
      </trkpt>
      <trkpt lat="45.6214" lon="4.6399">
        <ele>493.4</ele>
        <time>2013-10-09T07:14:00Z</time>
      </trkpt>
      <trkpt lat="45.62132" lon="4.63976">
        <ele>497.7</ele>
        <time>2013-10-09T07:14:04Z</time>
      </trkpt>
      <trkpt lat="45.62127" lon="4.63978">
        <ele>498.5</ele>
        <time>2013-10-09T07:14:09Z</time>
      </trkpt>
      <trkpt lat="45.62122" lon="4.63976">
        <ele>498.1</ele>
        <time>2013-10-09T07:14:13Z</time>
      </trkpt>
      <trkpt lat="45.62117" lon="4.63972">
        <ele>497</ele>
        <time>2013-10-09T07:14:16Z</time>
      </trkpt>
      <trkpt lat="45.62111" lon="4.6397">
        <ele>497</ele>
        <time>2013-10-09T07:14:19Z</time>
      </trkpt>
      <trkpt lat="45.62103" lon="4.63966">
        <ele>497</ele>
        <time>2013-10-09T07:14:23Z</time>
      </trkpt>
      <trkpt lat="45.62098" lon="4.63964">
        <ele>497</ele>
        <time>2013-10-09T07:14:26Z</time>
      </trkpt>
      <trkpt lat="45.62094" lon="4.6396">
        <ele>497</ele>
        <time>2013-10-09T07:14:30Z</time>
      </trkpt>
      <trkpt lat="45.62093" lon="4.63952">
        <ele>497.9</ele>
        <time>2013-10-09T07:14:34Z</time>
      </trkpt>
      <trkpt lat="45.62095" lon="4.63945">
        <ele>497.9</ele>
        <time>2013-10-09T07:14:37Z</time>
      </trkpt>
      <trkpt lat="45.62096" lon="4.63937">
        <ele>500.9</ele>
        <time>2013-10-09T07:14:41Z</time>
      </trkpt>
      <trkpt lat="45.62096" lon="4.6393">
        <ele>501</ele>
        <time>2013-10-09T07:14:45Z</time>
      </trkpt>
      <trkpt lat="45.62096" lon="4.6393">
        <ele>501.8</ele>
        <time>2013-10-09T07:14:55Z</time>
      </trkpt>
      <trkpt lat="45.621" lon="4.63926">
        <ele>502</ele>
        <time>2013-10-09T07:14:57Z</time>
      </trkpt>
      <trkpt lat="45.621" lon="4.63926">
        <ele>502.3</ele>
        <time>2013-10-09T07:15:05Z</time>
      </trkpt>
      <trkpt lat="45.621" lon="4.63926">
        <ele>502.3</ele>
        <time>2013-10-09T07:15:13Z</time>
      </trkpt>
      <trkpt lat="45.621" lon="4.63926">
        <ele>502.3</ele>
        <time>2013-10-09T07:15:22Z</time>
      </trkpt>
      <trkpt lat="45.621" lon="4.63926">
        <ele>502.3</ele>
        <time>2013-10-09T07:15:31Z</time>
      </trkpt>
      <trkpt lat="45.62105" lon="4.63928">
        <ele>503.4</ele>
        <time>2013-10-09T07:15:33Z</time>
      </trkpt>
      <trkpt lat="45.62102" lon="4.63934">
        <ele>503.7</ele>
        <time>2013-10-09T07:15:38Z</time>
      </trkpt>
      <trkpt lat="45.62102" lon="4.63934">
        <ele>501.7</ele>
        <time>2013-10-09T07:15:46Z</time>
      </trkpt>
      <trkpt lat="45.62112" lon="4.63927">
        <ele>504.1</ele>
        <time>2013-10-09T07:15:47Z</time>
      </trkpt>
      <trkpt lat="45.62123" lon="4.63921">
        <ele>503</ele>
        <time>2013-10-09T07:15:54Z</time>
      </trkpt>
      <trkpt lat="45.62137" lon="4.63919">
        <ele>503</ele>
        <time>2013-10-09T07:16:03Z</time>
      </trkpt>
      <trkpt lat="45.62137" lon="4.63919">
        <ele>504.6</ele>
        <time>2013-10-09T07:16:11Z</time>
      </trkpt>
      <trkpt lat="45.62151" lon="4.63919">
        <ele>500.3</ele>
        <time>2013-10-09T07:16:13Z</time>
      </trkpt>
      <trkpt lat="45.62151" lon="4.63919">
        <ele>504.2</ele>
        <time>2013-10-09T07:16:21Z</time>
      </trkpt>
      <trkpt lat="45.62165" lon="4.63913">
        <ele>499.5</ele>
        <time>2013-10-09T07:16:25Z</time>
      </trkpt>
      <trkpt lat="45.62169" lon="4.63911">
        <ele>498.1</ele>
        <time>2013-10-09T07:16:28Z</time>
      </trkpt>
      <trkpt lat="45.62178" lon="4.6391">
        <ele>498.9</ele>
        <time>2013-10-09T07:16:32Z</time>
      </trkpt>
      <trkpt lat="45.62183" lon="4.6391">
        <ele>498.9</ele>
        <time>2013-10-09T07:16:35Z</time>
      </trkpt>
      <trkpt lat="45.62193" lon="4.63911">
        <ele>500</ele>
        <time>2013-10-09T07:16:42Z</time>
      </trkpt>
      <trkpt lat="45.62204" lon="4.63913">
        <ele>499.1</ele>
        <time>2013-10-09T07:16:47Z</time>
      </trkpt>
      <trkpt lat="45.6221" lon="4.63914">
        <ele>501.2</ele>
        <time>2013-10-09T07:16:51Z</time>
      </trkpt>
      <trkpt lat="45.62215" lon="4.63913">
        <ele>501.2</ele>
        <time>2013-10-09T07:16:53Z</time>
      </trkpt>
      <trkpt lat="45.62229" lon="4.63912">
        <ele>500.1</ele>
        <time>2013-10-09T07:17:01Z</time>
      </trkpt>
      <trkpt lat="45.62239" lon="4.63912">
        <ele>498</ele>
        <time>2013-10-09T07:17:07Z</time>
      </trkpt>
      <trkpt lat="45.62242" lon="4.63907">
        <ele>498</ele>
        <time>2013-10-09T07:17:11Z</time>
      </trkpt>
      <trkpt lat="45.62246" lon="4.63903">
        <ele>497</ele>
        <time>2013-10-09T07:17:15Z</time>
      </trkpt>
      <trkpt lat="45.62251" lon="4.6391">
        <ele>496.1</ele>
        <time>2013-10-09T07:17:22Z</time>
      </trkpt>
      <trkpt lat="45.62256" lon="4.63912">
        <ele>496.1</ele>
        <time>2013-10-09T07:17:26Z</time>
      </trkpt>
      <trkpt lat="45.62264" lon="4.63914">
        <ele>495.5</ele>
        <time>2013-10-09T07:17:31Z</time>
      </trkpt>
      <trkpt lat="45.62264" lon="4.63914">
        <ele>505.8</ele>
        <time>2013-10-09T07:17:39Z</time>
      </trkpt>
      <trkpt lat="45.62276" lon="4.63921">
        <ele>493</ele>
        <time>2013-10-09T07:17:42Z</time>
      </trkpt>
      <trkpt lat="45.62281" lon="4.63924">
        <ele>492</ele>
        <time>2013-10-09T07:17:46Z</time>
      </trkpt>
      <trkpt lat="45.62285" lon="4.63923">
        <ele>491</ele>
        <time>2013-10-09T07:17:51Z</time>
      </trkpt>
      <trkpt lat="45.6229" lon="4.63919">
        <ele>491</ele>
        <time>2013-10-09T07:17:56Z</time>
      </trkpt>
      <trkpt lat="45.62293" lon="4.63914">
        <ele>494.3</ele>
        <time>2013-10-09T07:17:59Z</time>
      </trkpt>
      <trkpt lat="45.62298" lon="4.63909">
        <ele>494.9</ele>
        <time>2013-10-09T07:18:03Z</time>
      </trkpt>
      <trkpt lat="45.62303" lon="4.63905">
        <ele>495</ele>
        <time>2013-10-09T07:18:06Z</time>
      </trkpt>
      <trkpt lat="45.62315" lon="4.63896">
        <ele>499.3</ele>
        <time>2013-10-09T07:18:14Z</time>
      </trkpt>
      <trkpt lat="45.62323" lon="4.63879">
        <ele>504.5</ele>
        <time>2013-10-09T07:18:22Z</time>
      </trkpt>
      <trkpt lat="45.62326" lon="4.63872">
        <ele>508.9</ele>
        <time>2013-10-09T07:18:26Z</time>
      </trkpt>
      <trkpt lat="45.6233" lon="4.63865">
        <ele>508.5</ele>
        <time>2013-10-09T07:18:30Z</time>
      </trkpt>
      <trkpt lat="45.62337" lon="4.63856">
        <ele>507</ele>
        <time>2013-10-09T07:18:36Z</time>
      </trkpt>
      <trkpt lat="45.62339" lon="4.63848">
        <ele>507</ele>
        <time>2013-10-09T07:18:40Z</time>
      </trkpt>
      <trkpt lat="45.62343" lon="4.63827">
        <ele>507</ele>
        <time>2013-10-09T07:18:47Z</time>
      </trkpt>
      <trkpt lat="45.62345" lon="4.6382">
        <ele>509.4</ele>
        <time>2013-10-09T07:18:50Z</time>
      </trkpt>
      <trkpt lat="45.6235" lon="4.63809">
        <ele>511</ele>
        <time>2013-10-09T07:18:57Z</time>
      </trkpt>
      <trkpt lat="45.62352" lon="4.63802">
        <ele>507.1</ele>
        <time>2013-10-09T07:19:03Z</time>
      </trkpt>
      <trkpt lat="45.62355" lon="4.63795">
        <ele>506</ele>
        <time>2013-10-09T07:19:07Z</time>
      </trkpt>
      <trkpt lat="45.62355" lon="4.63787">
        <ele>506</ele>
        <time>2013-10-09T07:19:10Z</time>
      </trkpt>
      <trkpt lat="45.62353" lon="4.63773">
        <ele>505.3</ele>
        <time>2013-10-09T07:19:15Z</time>
      </trkpt>
      <trkpt lat="45.62354" lon="4.63765">
        <ele>504</ele>
        <time>2013-10-09T07:19:19Z</time>
      </trkpt>
      <trkpt lat="45.62354" lon="4.63765">
        <ele>507.8</ele>
        <time>2013-10-09T07:19:28Z</time>
      </trkpt>
      <trkpt lat="45.62363" lon="4.63738">
        <ele>506</ele>
        <time>2013-10-09T07:19:36Z</time>
      </trkpt>
      <trkpt lat="45.62367" lon="4.63727">
        <ele>505.1</ele>
        <time>2013-10-09T07:19:41Z</time>
      </trkpt>
      <trkpt lat="45.6237" lon="4.63721">
        <ele>505</ele>
        <time>2013-10-09T07:19:45Z</time>
      </trkpt>
      <trkpt lat="45.62373" lon="4.63715">
        <ele>503.3</ele>
        <time>2013-10-09T07:19:49Z</time>
      </trkpt>
      <trkpt lat="45.62375" lon="4.63709">
        <ele>503</ele>
        <time>2013-10-09T07:19:53Z</time>
      </trkpt>
      <trkpt lat="45.62375" lon="4.63709">
        <ele>509.4</ele>
        <time>2013-10-09T07:20:02Z</time>
      </trkpt>
      <trkpt lat="45.62386" lon="4.63696">
        <ele>503</ele>
        <time>2013-10-09T07:20:04Z</time>
      </trkpt>
      <trkpt lat="45.62394" lon="4.63687">
        <ele>504</ele>
        <time>2013-10-09T07:20:11Z</time>
      </trkpt>
      <trkpt lat="45.62398" lon="4.63683">
        <ele>503.1</ele>
        <time>2013-10-09T07:20:15Z</time>
      </trkpt>
      <trkpt lat="45.62409" lon="4.63668">
        <ele>504.7</ele>
        <time>2013-10-09T07:20:25Z</time>
      </trkpt>
      <trkpt lat="45.62414" lon="4.63658">
        <ele>505</ele>
        <time>2013-10-09T07:20:31Z</time>
      </trkpt>
      <trkpt lat="45.62419" lon="4.63646">
        <ele>504.8</ele>
        <time>2013-10-09T07:20:38Z</time>
      </trkpt>
      <trkpt lat="45.62423" lon="4.63641">
        <ele>505.9</ele>
        <time>2013-10-09T07:20:42Z</time>
      </trkpt>
      <trkpt lat="45.62426" lon="4.63634">
        <ele>506</ele>
        <time>2013-10-09T07:20:47Z</time>
      </trkpt>
      <trkpt lat="45.6243" lon="4.6363">
        <ele>506.7</ele>
        <time>2013-10-09T07:20:50Z</time>
      </trkpt>
      <trkpt lat="45.62433" lon="4.63623">
        <ele>507</ele>
        <time>2013-10-09T07:20:54Z</time>
      </trkpt>
      <trkpt lat="45.62436" lon="4.63602">
        <ele>508.2</ele>
        <time>2013-10-09T07:21:04Z</time>
      </trkpt>
      <trkpt lat="45.62439" lon="4.63596">
        <ele>510.5</ele>
        <time>2013-10-09T07:21:08Z</time>
      </trkpt>
      <trkpt lat="45.62439" lon="4.63588">
        <ele>510.5</ele>
        <time>2013-10-09T07:21:12Z</time>
      </trkpt>
      <trkpt lat="45.6244" lon="4.63581">
        <ele>512.9</ele>
        <time>2013-10-09T07:21:15Z</time>
      </trkpt>
      <trkpt lat="45.62442" lon="4.63568">
        <ele>513.9</ele>
        <time>2013-10-09T07:21:20Z</time>
      </trkpt>
      <trkpt lat="45.62442" lon="4.63561">
        <ele>514</ele>
        <time>2013-10-09T07:21:23Z</time>
      </trkpt>
      <trkpt lat="45.62442" lon="4.63553">
        <ele>514</ele>
        <time>2013-10-09T07:21:27Z</time>
      </trkpt>
      <trkpt lat="45.62445" lon="4.63541">
        <ele>514</ele>
        <time>2013-10-09T07:21:33Z</time>
      </trkpt>
      <trkpt lat="45.62445" lon="4.63541">
        <ele>516.5</ele>
        <time>2013-10-09T07:21:41Z</time>
      </trkpt>
      <trkpt lat="45.62449" lon="4.63515">
        <ele>513.9</ele>
        <time>2013-10-09T07:21:45Z</time>
      </trkpt>
      <trkpt lat="45.6245" lon="4.63508">
        <ele>513.9</ele>
        <time>2013-10-09T07:21:49Z</time>
      </trkpt>
      <trkpt lat="45.62448" lon="4.63502">
        <ele>514.9</ele>
        <time>2013-10-09T07:21:55Z</time>
      </trkpt>
      <trkpt lat="45.62448" lon="4.63502">
        <ele>518.9</ele>
        <time>2013-10-09T07:22:03Z</time>
      </trkpt>
      <trkpt lat="45.62451" lon="4.63496">
        <ele>516.2</ele>
        <time>2013-10-09T07:22:04Z</time>
      </trkpt>
      <trkpt lat="45.62453" lon="4.63489">
        <ele>516.9</ele>
        <time>2013-10-09T07:22:09Z</time>
      </trkpt>
      <trkpt lat="45.62453" lon="4.63482">
        <ele>517.7</ele>
        <time>2013-10-09T07:22:13Z</time>
      </trkpt>
      <trkpt lat="45.62451" lon="4.63468">
        <ele>518</ele>
        <time>2013-10-09T07:22:22Z</time>
      </trkpt>
      <trkpt lat="45.62452" lon="4.63462">
        <ele>518.7</ele>
        <time>2013-10-09T07:22:27Z</time>
      </trkpt>
      <trkpt lat="45.62452" lon="4.63462">
        <ele>522.3</ele>
        <time>2013-10-09T07:22:35Z</time>
      </trkpt>
      <trkpt lat="45.62455" lon="4.63443">
        <ele>521</ele>
        <time>2013-10-09T07:22:38Z</time>
      </trkpt>
      <trkpt lat="45.62455" lon="4.63435">
        <ele>520</ele>
        <time>2013-10-09T07:22:41Z</time>
      </trkpt>
      <trkpt lat="45.62454" lon="4.63428">
        <ele>520</ele>
        <time>2013-10-09T07:22:45Z</time>
      </trkpt>
      <trkpt lat="45.62449" lon="4.63418">
        <ele>521.5</ele>
        <time>2013-10-09T07:22:54Z</time>
      </trkpt>
      <trkpt lat="45.62444" lon="4.63405">
        <ele>522</ele>
        <time>2013-10-09T07:23:02Z</time>
      </trkpt>
      <trkpt lat="45.62444" lon="4.63405">
        <ele>525.1</ele>
        <time>2013-10-09T07:23:10Z</time>
      </trkpt>
      <trkpt lat="45.62441" lon="4.63385">
        <ele>522.5</ele>
        <time>2013-10-09T07:23:12Z</time>
      </trkpt>
      <trkpt lat="45.62438" lon="4.63379">
        <ele>524</ele>
        <time>2013-10-09T07:23:16Z</time>
      </trkpt>
      <trkpt lat="45.62435" lon="4.63374">
        <ele>524</ele>
        <time>2013-10-09T07:23:20Z</time>
      </trkpt>
      <trkpt lat="45.62432" lon="4.63369">
        <ele>524</ele>
        <time>2013-10-09T07:23:23Z</time>
      </trkpt>
      <trkpt lat="45.6243" lon="4.63362">
        <ele>526</ele>
        <time>2013-10-09T07:23:26Z</time>
      </trkpt>
      <trkpt lat="45.62426" lon="4.63356">
        <ele>526</ele>
        <time>2013-10-09T07:23:29Z</time>
      </trkpt>
      <trkpt lat="45.62422" lon="4.6335">
        <ele>525.1</ele>
        <time>2013-10-09T07:23:32Z</time>
      </trkpt>
      <trkpt lat="45.62418" lon="4.63345">
        <ele>525.1</ele>
        <time>2013-10-09T07:23:35Z</time>
      </trkpt>
      <trkpt lat="45.62414" lon="4.63342">
        <ele>525</ele>
        <time>2013-10-09T07:23:40Z</time>
      </trkpt>
      <trkpt lat="45.62409" lon="4.63337">
        <ele>525</ele>
        <time>2013-10-09T07:23:45Z</time>
      </trkpt>
      <trkpt lat="45.62405" lon="4.63332">
        <ele>524.1</ele>
        <time>2013-10-09T07:23:48Z</time>
      </trkpt>
      <trkpt lat="45.62402" lon="4.63326">
        <ele>524.9</ele>
        <time>2013-10-09T07:23:51Z</time>
      </trkpt>
      <trkpt lat="45.62395" lon="4.63315">
        <ele>525.9</ele>
        <time>2013-10-09T07:23:59Z</time>
      </trkpt>
      <trkpt lat="45.62391" lon="4.63303">
        <ele>526</ele>
        <time>2013-10-09T07:24:06Z</time>
      </trkpt>
      <trkpt lat="45.62387" lon="4.63298">
        <ele>526.7</ele>
        <time>2013-10-09T07:24:11Z</time>
      </trkpt>
      <trkpt lat="45.62381" lon="4.63291">
        <ele>527</ele>
        <time>2013-10-09T07:24:16Z</time>
      </trkpt>
      <trkpt lat="45.62377" lon="4.63285">
        <ele>527</ele>
        <time>2013-10-09T07:24:20Z</time>
      </trkpt>
      <trkpt lat="45.62373" lon="4.63271">
        <ele>527</ele>
        <time>2013-10-09T07:24:27Z</time>
      </trkpt>
      <trkpt lat="45.62369" lon="4.63266">
        <ele>526.1</ele>
        <time>2013-10-09T07:24:30Z</time>
      </trkpt>
      <trkpt lat="45.62365" lon="4.63262">
        <ele>526.1</ele>
        <time>2013-10-09T07:24:33Z</time>
      </trkpt>
      <trkpt lat="45.62358" lon="4.63255">
        <ele>526</ele>
        <time>2013-10-09T07:24:38Z</time>
      </trkpt>
      <trkpt lat="45.62353" lon="4.63251">
        <ele>525.1</ele>
        <time>2013-10-09T07:24:41Z</time>
      </trkpt>
      <trkpt lat="45.62345" lon="4.63246">
        <ele>524.5</ele>
        <time>2013-10-09T07:24:49Z</time>
      </trkpt>
      <trkpt lat="45.62341" lon="4.63241">
        <ele>524</ele>
        <time>2013-10-09T07:24:53Z</time>
      </trkpt>
      <trkpt lat="45.62337" lon="4.63235">
        <ele>525</ele>
        <time>2013-10-09T07:24:57Z</time>
      </trkpt>
      <trkpt lat="45.62335" lon="4.63228">
        <ele>525</ele>
        <time>2013-10-09T07:25:00Z</time>
      </trkpt>
      <trkpt lat="45.62334" lon="4.63221">
        <ele>524.2</ele>
        <time>2013-10-09T07:25:03Z</time>
      </trkpt>
      <trkpt lat="45.62333" lon="4.63213">
        <ele>524</ele>
        <time>2013-10-09T07:25:07Z</time>
      </trkpt>
      <trkpt lat="45.62333" lon="4.63213">
        <ele>521.8</ele>
        <time>2013-10-09T07:25:17Z</time>
      </trkpt>
      <trkpt lat="45.62326" lon="4.63195">
        <ele>526</ele>
        <time>2013-10-09T07:25:19Z</time>
      </trkpt>
      <trkpt lat="45.62326" lon="4.63195">
        <ele>522.6</ele>
        <time>2013-10-09T07:25:27Z</time>
      </trkpt>
      <trkpt lat="45.6232" lon="4.63177">
        <ele>525</ele>
        <time>2013-10-09T07:25:28Z</time>
      </trkpt>
      <trkpt lat="45.62319" lon="4.63162">
        <ele>525</ele>
        <time>2013-10-09T07:25:36Z</time>
      </trkpt>
      <trkpt lat="45.62322" lon="4.63155">
        <ele>524.6</ele>
        <time>2013-10-09T07:25:40Z</time>
      </trkpt>
      <trkpt lat="45.62327" lon="4.63151">
        <ele>524.9</ele>
        <time>2013-10-09T07:25:44Z</time>
      </trkpt>
      <trkpt lat="45.62327" lon="4.63151">
        <ele>523</ele>
        <time>2013-10-09T07:25:53Z</time>
      </trkpt>
      <trkpt lat="45.6234" lon="4.63142">
        <ele>524.2</ele>
        <time>2013-10-09T07:25:55Z</time>
      </trkpt>
      <trkpt lat="45.6234" lon="4.63142">
        <ele>522</ele>
        <time>2013-10-09T07:26:03Z</time>
      </trkpt>
      <trkpt lat="45.62348" lon="4.63132">
        <ele>524</ele>
        <time>2013-10-09T07:26:05Z</time>
      </trkpt>
      <trkpt lat="45.62357" lon="4.63127">
        <ele>524</ele>
        <time>2013-10-09T07:26:13Z</time>
      </trkpt>
      <trkpt lat="45.62364" lon="4.63117">
        <ele>523</ele>
        <time>2013-10-09T07:26:21Z</time>
      </trkpt>
      <trkpt lat="45.6237" lon="4.63107">
        <ele>522.3</ele>
        <time>2013-10-09T07:26:28Z</time>
      </trkpt>
      <trkpt lat="45.62376" lon="4.63097">
        <ele>521.1</ele>
        <time>2013-10-09T07:26:34Z</time>
      </trkpt>
      <trkpt lat="45.6238" lon="4.63091">
        <ele>521</ele>
        <time>2013-10-09T07:26:37Z</time>
      </trkpt>
      <trkpt lat="45.6238" lon="4.63091">
        <ele>525.6</ele>
        <time>2013-10-09T07:26:47Z</time>
      </trkpt>
      <trkpt lat="45.62388" lon="4.63075">
        <ele>519.1</ele>
        <time>2013-10-09T07:26:49Z</time>
      </trkpt>
      <trkpt lat="45.6239" lon="4.63068">
        <ele>519</ele>
        <time>2013-10-09T07:26:53Z</time>
      </trkpt>
      <trkpt lat="45.6239" lon="4.63068">
        <ele>527.9</ele>
        <time>2013-10-09T07:27:02Z</time>
      </trkpt>
      <trkpt lat="45.624" lon="4.63046">
        <ele>523</ele>
        <time>2013-10-09T07:27:08Z</time>
      </trkpt>
      <trkpt lat="45.62403" lon="4.63041">
        <ele>520.2</ele>
        <time>2013-10-09T07:27:11Z</time>
      </trkpt>
      <trkpt lat="45.62405" lon="4.63032">
        <ele>520.8</ele>
        <time>2013-10-09T07:27:16Z</time>
      </trkpt>
      <trkpt lat="45.62407" lon="4.63026">
        <ele>520.8</ele>
        <time>2013-10-09T07:27:20Z</time>
      </trkpt>
      <trkpt lat="45.6241" lon="4.63018">
        <ele>522</ele>
        <time>2013-10-09T07:27:24Z</time>
      </trkpt>
      <trkpt lat="45.62413" lon="4.63012">
        <ele>522</ele>
        <time>2013-10-09T07:27:27Z</time>
      </trkpt>
      <trkpt lat="45.62416" lon="4.63006">
        <ele>523.9</ele>
        <time>2013-10-09T07:27:31Z</time>
      </trkpt>
      <trkpt lat="45.62416" lon="4.62999">
        <ele>523.9</ele>
        <time>2013-10-09T07:27:35Z</time>
      </trkpt>
      <trkpt lat="45.62415" lon="4.62985">
        <ele>525.9</ele>
        <time>2013-10-09T07:27:42Z</time>
      </trkpt>
      <trkpt lat="45.62415" lon="4.62978">
        <ele>526.9</ele>
        <time>2013-10-09T07:27:46Z</time>
      </trkpt>
      <trkpt lat="45.62415" lon="4.62964">
        <ele>527</ele>
        <time>2013-10-09T07:27:55Z</time>
      </trkpt>
      <trkpt lat="45.62413" lon="4.62958">
        <ele>527</ele>
        <time>2013-10-09T07:28:00Z</time>
      </trkpt>
      <trkpt lat="45.6241" lon="4.62952">
        <ele>526.5</ele>
        <time>2013-10-09T07:28:05Z</time>
      </trkpt>
      <trkpt lat="45.62407" lon="4.62948">
        <ele>525.3</ele>
        <time>2013-10-09T07:28:10Z</time>
      </trkpt>
      <trkpt lat="45.62401" lon="4.62934">
        <ele>524.3</ele>
        <time>2013-10-09T07:28:20Z</time>
      </trkpt>
      <trkpt lat="45.62401" lon="4.62934">
        <ele>519.9</ele>
        <time>2013-10-09T07:28:28Z</time>
      </trkpt>
      <trkpt lat="45.62392" lon="4.62911">
        <ele>522</ele>
        <time>2013-10-09T07:28:33Z</time>
      </trkpt>
      <trkpt lat="45.62392" lon="4.62911">
        <ele>518.6</ele>
        <time>2013-10-09T07:28:41Z</time>
      </trkpt>
      <trkpt lat="45.62392" lon="4.62892">
        <ele>521</ele>
        <time>2013-10-09T07:28:42Z</time>
      </trkpt>
      <trkpt lat="45.62391" lon="4.62877">
        <ele>523.8</ele>
        <time>2013-10-09T07:28:49Z</time>
      </trkpt>
      <trkpt lat="45.62391" lon="4.62877">
        <ele>514</ele>
        <time>2013-10-09T07:28:57Z</time>
      </trkpt>
      <trkpt lat="45.62384" lon="4.62865">
        <ele>523</ele>
        <time>2013-10-09T07:28:58Z</time>
      </trkpt>
      <trkpt lat="45.62379" lon="4.62855">
        <ele>522.3</ele>
        <time>2013-10-09T07:29:05Z</time>
      </trkpt>
      <trkpt lat="45.62375" lon="4.62843">
        <ele>522</ele>
        <time>2013-10-09T07:29:12Z</time>
      </trkpt>
      <trkpt lat="45.62376" lon="4.6283">
        <ele>522</ele>
        <time>2013-10-09T07:29:19Z</time>
      </trkpt>
      <trkpt lat="45.62378" lon="4.62822">
        <ele>522</ele>
        <time>2013-10-09T07:29:22Z</time>
      </trkpt>
      <trkpt lat="45.62382" lon="4.62818">
        <ele>523</ele>
        <time>2013-10-09T07:29:26Z</time>
      </trkpt>
      <trkpt lat="45.62386" lon="4.62813">
        <ele>523</ele>
        <time>2013-10-09T07:29:30Z</time>
      </trkpt>
      <trkpt lat="45.62391" lon="4.62802">
        <ele>524</ele>
        <time>2013-10-09T07:29:35Z</time>
      </trkpt>
      <trkpt lat="45.62398" lon="4.62791">
        <ele>522.6</ele>
        <time>2013-10-09T07:29:42Z</time>
      </trkpt>
      <trkpt lat="45.62408" lon="4.62775">
        <ele>521.1</ele>
        <time>2013-10-09T07:29:48Z</time>
      </trkpt>
      <trkpt lat="45.62419" lon="4.62776">
        <ele>521</ele>
        <time>2013-10-09T07:29:53Z</time>
      </trkpt>
      <trkpt lat="45.62419" lon="4.62776">
        <ele>502.8</ele>
        <time>2013-10-09T07:30:01Z</time>
      </trkpt>
      <trkpt lat="45.62422" lon="4.62771">
        <ele>511</ele>
        <time>2013-10-09T07:30:06Z</time>
      </trkpt>
      <trkpt lat="45.62425" lon="4.62766">
        <ele>510</ele>
        <time>2013-10-09T07:30:12Z</time>
      </trkpt>
      <trkpt lat="45.62424" lon="4.62758">
        <ele>508.6</ele>
        <time>2013-10-09T07:30:17Z</time>
      </trkpt>
      <trkpt lat="45.62424" lon="4.62749">
        <ele>507</ele>
        <time>2013-10-09T07:30:21Z</time>
      </trkpt>
      <trkpt lat="45.62427" lon="4.62742">
        <ele>506.5</ele>
        <time>2013-10-09T07:30:26Z</time>
      </trkpt>
      <trkpt lat="45.62432" lon="4.62732">
        <ele>506</ele>
        <time>2013-10-09T07:30:33Z</time>
      </trkpt>
      <trkpt lat="45.62434" lon="4.62723">
        <ele>506</ele>
        <time>2013-10-09T07:30:36Z</time>
      </trkpt>
      <trkpt lat="45.62436" lon="4.62718">
        <ele>506</ele>
        <time>2013-10-09T07:30:38Z</time>
      </trkpt>
      <trkpt lat="45.62443" lon="4.62715">
        <ele>507.8</ele>
        <time>2013-10-09T07:30:41Z</time>
      </trkpt>
      <trkpt lat="45.62448" lon="4.62712">
        <ele>507.8</ele>
        <time>2013-10-09T07:30:43Z</time>
      </trkpt>
      <trkpt lat="45.62457" lon="4.62707">
        <ele>510.8</ele>
        <time>2013-10-09T07:30:48Z</time>
      </trkpt>
      <trkpt lat="45.62461" lon="4.62702">
        <ele>511</ele>
        <time>2013-10-09T07:30:52Z</time>
      </trkpt>
      <trkpt lat="45.62461" lon="4.62702">
        <ele>494.8</ele>
        <time>2013-10-09T07:31:03Z</time>
      </trkpt>
      <trkpt lat="45.62461" lon="4.62691">
        <ele>509</ele>
        <time>2013-10-09T07:31:04Z</time>
      </trkpt>
      <trkpt lat="45.62463" lon="4.62685">
        <ele>508.3</ele>
        <time>2013-10-09T07:31:08Z</time>
      </trkpt>
      <trkpt lat="45.62463" lon="4.62673">
        <ele>507.3</ele>
        <time>2013-10-09T07:31:14Z</time>
      </trkpt>
      <trkpt lat="45.62465" lon="4.62659">
        <ele>507</ele>
        <time>2013-10-09T07:31:22Z</time>
      </trkpt>
      <trkpt lat="45.62465" lon="4.62659">
        <ele>492.4</ele>
        <time>2013-10-09T07:31:31Z</time>
      </trkpt>
      <trkpt lat="45.62465" lon="4.62632">
        <ele>508</ele>
        <time>2013-10-09T07:31:37Z</time>
      </trkpt>
      <trkpt lat="45.62466" lon="4.6262">
        <ele>507</ele>
        <time>2013-10-09T07:31:43Z</time>
      </trkpt>
      <trkpt lat="45.62465" lon="4.62606">
        <ele>505.3</ele>
        <time>2013-10-09T07:31:50Z</time>
      </trkpt>
      <trkpt lat="45.62465" lon="4.62606">
        <ele>489</ele>
        <time>2013-10-09T07:31:58Z</time>
      </trkpt>
      <trkpt lat="45.62465" lon="4.62606">
        <ele>489</ele>
        <time>2013-10-09T07:32:07Z</time>
      </trkpt>
      <trkpt lat="45.62464" lon="4.62581">
        <ele>504</ele>
        <time>2013-10-09T07:32:08Z</time>
      </trkpt>
      <trkpt lat="45.62464" lon="4.62581">
        <ele>486.1</ele>
        <time>2013-10-09T07:32:16Z</time>
      </trkpt>
      <trkpt lat="45.62458" lon="4.62558">
        <ele>503.3</ele>
        <time>2013-10-09T07:32:26Z</time>
      </trkpt>
      <trkpt lat="45.62453" lon="4.62547">
        <ele>501.4</ele>
        <time>2013-10-09T07:32:33Z</time>
      </trkpt>
      <trkpt lat="45.62458" lon="4.62536">
        <ele>499.8</ele>
        <time>2013-10-09T07:32:39Z</time>
      </trkpt>
      <trkpt lat="45.62463" lon="4.62529">
        <ele>499</ele>
        <time>2013-10-09T07:32:43Z</time>
      </trkpt>
      <trkpt lat="45.62465" lon="4.62521">
        <ele>499</ele>
        <time>2013-10-09T07:32:47Z</time>
      </trkpt>
      <trkpt lat="45.62465" lon="4.62521">
        <ele>484.9</ele>
        <time>2013-10-09T07:32:55Z</time>
      </trkpt>
      <trkpt lat="45.62474" lon="4.62502">
        <ele>492.6</ele>
        <time>2013-10-09T07:33:00Z</time>
      </trkpt>
      <trkpt lat="45.62478" lon="4.62497">
        <ele>488.4</ele>
        <time>2013-10-09T07:33:05Z</time>
      </trkpt>
      <trkpt lat="45.62482" lon="4.62484">
        <ele>487</ele>
        <time>2013-10-09T07:33:12Z</time>
      </trkpt>
      <trkpt lat="45.62483" lon="4.62477">
        <ele>487</ele>
        <time>2013-10-09T07:33:16Z</time>
      </trkpt>
      <trkpt lat="45.62483" lon="4.62477">
        <ele>487</ele>
        <time>2013-10-09T07:33:26Z</time>
      </trkpt>
      <trkpt lat="45.62485" lon="4.62464">
        <ele>489</ele>
        <time>2013-10-09T07:33:27Z</time>
      </trkpt>
      <trkpt lat="45.62485" lon="4.62464">
        <ele>488.2</ele>
        <time>2013-10-09T07:33:36Z</time>
      </trkpt>
      <trkpt lat="45.62482" lon="4.62451">
        <ele>490.2</ele>
        <time>2013-10-09T07:33:39Z</time>
      </trkpt>
      <trkpt lat="45.62484" lon="4.62444">
        <ele>490</ele>
        <time>2013-10-09T07:33:43Z</time>
      </trkpt>
      <trkpt lat="45.62485" lon="4.62437">
        <ele>491</ele>
        <time>2013-10-09T07:33:51Z</time>
      </trkpt>
      <trkpt lat="45.62485" lon="4.62437">
        <ele>490.7</ele>
        <time>2013-10-09T07:33:59Z</time>
      </trkpt>
      <trkpt lat="45.62485" lon="4.62424">
        <ele>493.4</ele>
        <time>2013-10-09T07:34:00Z</time>
      </trkpt>
      <trkpt lat="45.62487" lon="4.62417">
        <ele>496</ele>
        <time>2013-10-09T07:34:07Z</time>
      </trkpt>
      <trkpt lat="45.62489" lon="4.62411">
        <ele>496.5</ele>
        <time>2013-10-09T07:34:15Z</time>
      </trkpt>
      <trkpt lat="45.6249" lon="4.62404">
        <ele>497</ele>
        <time>2013-10-09T07:34:19Z</time>
      </trkpt>
      <trkpt lat="45.6249" lon="4.62397">
        <ele>497.9</ele>
        <time>2013-10-09T07:34:25Z</time>
      </trkpt>
      <trkpt lat="45.6249" lon="4.62391">
        <ele>499.8</ele>
        <time>2013-10-09T07:34:31Z</time>
      </trkpt>
      <trkpt lat="45.6249" lon="4.62391">
        <ele>497.4</ele>
        <time>2013-10-09T07:34:39Z</time>
      </trkpt>
      <trkpt lat="45.62497" lon="4.62381">
        <ele>501</ele>
        <time>2013-10-09T07:34:42Z</time>
      </trkpt>
      <trkpt lat="45.62499" lon="4.62374">
        <ele>501</ele>
        <time>2013-10-09T07:34:46Z</time>
      </trkpt>
      <trkpt lat="45.625" lon="4.62367">
        <ele>502</ele>
        <time>2013-10-09T07:34:51Z</time>
      </trkpt>
      <trkpt lat="45.62501" lon="4.6236">
        <ele>503</ele>
        <time>2013-10-09T07:35:00Z</time>
      </trkpt>
      <trkpt lat="45.62501" lon="4.6236">
        <ele>501.2</ele>
        <time>2013-10-09T07:35:08Z</time>
      </trkpt>
      <trkpt lat="45.62506" lon="4.62345">
        <ele>504</ele>
        <time>2013-10-09T07:35:12Z</time>
      </trkpt>
      <trkpt lat="45.62506" lon="4.62345">
        <ele>503.5</ele>
        <time>2013-10-09T07:35:20Z</time>
      </trkpt>
      <trkpt lat="45.62506" lon="4.62345">
        <ele>503.5</ele>
        <time>2013-10-09T07:35:28Z</time>
      </trkpt>
      <trkpt lat="45.62515" lon="4.62317">
        <ele>504</ele>
        <time>2013-10-09T07:35:35Z</time>
      </trkpt>
      <trkpt lat="45.62519" lon="4.62304">
        <ele>503.5</ele>
        <time>2013-10-09T07:35:42Z</time>
      </trkpt>
      <trkpt lat="45.62517" lon="4.62296">
        <ele>505.6</ele>
        <time>2013-10-09T07:35:45Z</time>
      </trkpt>
      <trkpt lat="45.62519" lon="4.6229">
        <ele>507.9</ele>
        <time>2013-10-09T07:35:52Z</time>
      </trkpt>
      <trkpt lat="45.62518" lon="4.62282">
        <ele>510.4</ele>
        <time>2013-10-09T07:35:59Z</time>
      </trkpt>
      <trkpt lat="45.62518" lon="4.62275">
        <ele>511.2</ele>
        <time>2013-10-09T07:36:04Z</time>
      </trkpt>
      <trkpt lat="45.62516" lon="4.62268">
        <ele>513.5</ele>
        <time>2013-10-09T07:36:09Z</time>
      </trkpt>
      <trkpt lat="45.62516" lon="4.62268">
        <ele>514.5</ele>
        <time>2013-10-09T07:36:18Z</time>
      </trkpt>
      <trkpt lat="45.62512" lon="4.62254">
        <ele>514</ele>
        <time>2013-10-09T07:36:19Z</time>
      </trkpt>
      <trkpt lat="45.62507" lon="4.62246">
        <ele>517.2</ele>
        <time>2013-10-09T07:36:24Z</time>
      </trkpt>
      <trkpt lat="45.62505" lon="4.6224">
        <ele>517.2</ele>
        <time>2013-10-09T07:36:28Z</time>
      </trkpt>
      <trkpt lat="45.62503" lon="4.62233">
        <ele>518.5</ele>
        <time>2013-10-09T07:36:32Z</time>
      </trkpt>
      <trkpt lat="45.62496" lon="4.62223">
        <ele>517.1</ele>
        <time>2013-10-09T07:36:40Z</time>
      </trkpt>
      <trkpt lat="45.62488" lon="4.62213">
        <ele>517.9</ele>
        <time>2013-10-09T07:36:47Z</time>
      </trkpt>
      <trkpt lat="45.62488" lon="4.62213">
        <ele>518.6</ele>
        <time>2013-10-09T07:36:55Z</time>
      </trkpt>
      <trkpt lat="45.62479" lon="4.62203">
        <ele>516.2</ele>
        <time>2013-10-09T07:36:59Z</time>
      </trkpt>
      <trkpt lat="45.62479" lon="4.62203">
        <ele>518.7</ele>
        <time>2013-10-09T07:37:07Z</time>
      </trkpt>
      <trkpt lat="45.62472" lon="4.62192">
        <ele>519</ele>
        <time>2013-10-09T07:37:10Z</time>
      </trkpt>
      <trkpt lat="45.62467" lon="4.62177">
        <ele>518.6</ele>
        <time>2013-10-09T07:37:18Z</time>
      </trkpt>
      <trkpt lat="45.62462" lon="4.62171">
        <ele>518.4</ele>
        <time>2013-10-09T07:37:22Z</time>
      </trkpt>
      <trkpt lat="45.62459" lon="4.62165">
        <ele>518.4</ele>
        <time>2013-10-09T07:37:26Z</time>
      </trkpt>
      <trkpt lat="45.62454" lon="4.62154">
        <ele>518.1</ele>
        <time>2013-10-09T07:37:32Z</time>
      </trkpt>
      <trkpt lat="45.62451" lon="4.62148">
        <ele>518</ele>
        <time>2013-10-09T07:37:36Z</time>
      </trkpt>
      <trkpt lat="45.62449" lon="4.6214">
        <ele>518</ele>
        <time>2013-10-09T07:37:40Z</time>
      </trkpt>
      <trkpt lat="45.62447" lon="4.62133">
        <ele>518.5</ele>
        <time>2013-10-09T07:37:44Z</time>
      </trkpt>
      <trkpt lat="45.62446" lon="4.62126">
        <ele>518.5</ele>
        <time>2013-10-09T07:37:48Z</time>
      </trkpt>
      <trkpt lat="45.62446" lon="4.62126">
        <ele>521.7</ele>
        <time>2013-10-09T07:37:56Z</time>
      </trkpt>
      <trkpt lat="45.62438" lon="4.6211">
        <ele>519</ele>
        <time>2013-10-09T07:37:59Z</time>
      </trkpt>
      <trkpt lat="45.62435" lon="4.62103">
        <ele>519</ele>
        <time>2013-10-09T07:38:04Z</time>
      </trkpt>
      <trkpt lat="45.62432" lon="4.62096">
        <ele>519</ele>
        <time>2013-10-09T07:38:08Z</time>
      </trkpt>
      <trkpt lat="45.62429" lon="4.62091">
        <ele>519</ele>
        <time>2013-10-09T07:38:11Z</time>
      </trkpt>
      <trkpt lat="45.62427" lon="4.62083">
        <ele>519.9</ele>
        <time>2013-10-09T07:38:16Z</time>
      </trkpt>
      <trkpt lat="45.62427" lon="4.62083">
        <ele>523.5</ele>
        <time>2013-10-09T07:38:24Z</time>
      </trkpt>
      <trkpt lat="45.62421" lon="4.62065">
        <ele>521</ele>
        <time>2013-10-09T07:38:28Z</time>
      </trkpt>
      <trkpt lat="45.62416" lon="4.6206">
        <ele>522.8</ele>
        <time>2013-10-09T07:38:32Z</time>
      </trkpt>
      <trkpt lat="45.62411" lon="4.62057">
        <ele>522.8</ele>
        <time>2013-10-09T07:38:36Z</time>
      </trkpt>
      <trkpt lat="45.62406" lon="4.62054">
        <ele>522.1</ele>
        <time>2013-10-09T07:38:40Z</time>
      </trkpt>
      <trkpt lat="45.62401" lon="4.62054">
        <ele>522.1</ele>
        <time>2013-10-09T07:38:43Z</time>
      </trkpt>
      <trkpt lat="45.62396" lon="4.62053">
        <ele>522</ele>
        <time>2013-10-09T07:38:46Z</time>
      </trkpt>
      <trkpt lat="45.62386" lon="4.6205">
        <ele>520.3</ele>
        <time>2013-10-09T07:38:53Z</time>
      </trkpt>
      <trkpt lat="45.62386" lon="4.6205">
        <ele>525.8</ele>
        <time>2013-10-09T07:39:03Z</time>
      </trkpt>
      <trkpt lat="45.62372" lon="4.62052">
        <ele>523.1</ele>
        <time>2013-10-09T07:39:07Z</time>
      </trkpt>
      <trkpt lat="45.62372" lon="4.62052">
        <ele>528.2</ele>
        <time>2013-10-09T07:39:15Z</time>
      </trkpt>
      <trkpt lat="45.62369" lon="4.62039">
        <ele>530.4</ele>
        <time>2013-10-09T07:39:17Z</time>
      </trkpt>
      <trkpt lat="45.62369" lon="4.62033">
        <ele>532.5</ele>
        <time>2013-10-09T07:39:21Z</time>
      </trkpt>
      <trkpt lat="45.62367" lon="4.62027">
        <ele>535.3</ele>
        <time>2013-10-09T07:39:26Z</time>
      </trkpt>
      <trkpt lat="45.62365" lon="4.62021">
        <ele>535.9</ele>
        <time>2013-10-09T07:39:31Z</time>
      </trkpt>
      <trkpt lat="45.62361" lon="4.62018">
        <ele>536</ele>
        <time>2013-10-09T07:39:38Z</time>
      </trkpt>
      <trkpt lat="45.62352" lon="4.62017">
        <ele>536</ele>
        <time>2013-10-09T07:39:44Z</time>
      </trkpt>
      <trkpt lat="45.62352" lon="4.62017">
        <ele>535.9</ele>
        <time>2013-10-09T07:39:52Z</time>
      </trkpt>
      <trkpt lat="45.62341" lon="4.62022">
        <ele>526.3</ele>
        <time>2013-10-09T07:39:56Z</time>
      </trkpt>
      <trkpt lat="45.62337" lon="4.62023">
        <ele>526</ele>
        <time>2013-10-09T07:40:02Z</time>
      </trkpt>
      <trkpt lat="45.62337" lon="4.62023">
        <ele>540.3</ele>
        <time>2013-10-09T07:40:11Z</time>
      </trkpt>
      <trkpt lat="45.62328" lon="4.62026">
        <ele>528.2</ele>
        <time>2013-10-09T07:40:15Z</time>
      </trkpt>
      <trkpt lat="45.62323" lon="4.62029">
        <ele>532.9</ele>
        <time>2013-10-09T07:40:21Z</time>
      </trkpt>
      <trkpt lat="45.62323" lon="4.62029">
        <ele>542.6</ele>
        <time>2013-10-09T07:40:29Z</time>
      </trkpt>
      <trkpt lat="45.62319" lon="4.62032">
        <ele>534</ele>
        <time>2013-10-09T07:40:30Z</time>
      </trkpt>
      <trkpt lat="45.62316" lon="4.62027">
        <ele>536</ele>
        <time>2013-10-09T07:40:38Z</time>
      </trkpt>
      <trkpt lat="45.62316" lon="4.62027">
        <ele>544.3</ele>
        <time>2013-10-09T07:40:46Z</time>
      </trkpt>
      <trkpt lat="45.62316" lon="4.6202">
        <ele>537.7</ele>
        <time>2013-10-09T07:40:47Z</time>
      </trkpt>
      <trkpt lat="45.62313" lon="4.62014">
        <ele>538</ele>
        <time>2013-10-09T07:40:53Z</time>
      </trkpt>
      <trkpt lat="45.62306" lon="4.62006">
        <ele>541.3</ele>
        <time>2013-10-09T07:41:04Z</time>
      </trkpt>
      <trkpt lat="45.62304" lon="4.62">
        <ele>542.7</ele>
        <time>2013-10-09T07:41:10Z</time>
      </trkpt>
      <trkpt lat="45.62298" lon="4.61989">
        <ele>544.8</ele>
        <time>2013-10-09T07:41:17Z</time>
      </trkpt>
      <trkpt lat="45.62298" lon="4.61989">
        <ele>552.1</ele>
        <time>2013-10-09T07:41:25Z</time>
      </trkpt>
      <trkpt lat="45.62293" lon="4.61978">
        <ele>547.1</ele>
        <time>2013-10-09T07:41:30Z</time>
      </trkpt>
      <trkpt lat="45.62288" lon="4.61979">
        <ele>546</ele>
        <time>2013-10-09T07:41:35Z</time>
      </trkpt>
      <trkpt lat="45.62283" lon="4.61981">
        <ele>546.9</ele>
        <time>2013-10-09T07:41:40Z</time>
      </trkpt>
      <trkpt lat="45.62278" lon="4.61981">
        <ele>547.7</ele>
        <time>2013-10-09T07:41:47Z</time>
      </trkpt>
      <trkpt lat="45.62278" lon="4.61981">
        <ele>555.7</ele>
        <time>2013-10-09T07:41:59Z</time>
      </trkpt>
      <trkpt lat="45.62269" lon="4.61972">
        <ele>549.7</ele>
        <time>2013-10-09T07:42:05Z</time>
      </trkpt>
      <trkpt lat="45.62264" lon="4.6197">
        <ele>551</ele>
        <time>2013-10-09T07:42:09Z</time>
      </trkpt>
      <trkpt lat="45.6226" lon="4.61969">
        <ele>551.9</ele>
        <time>2013-10-09T07:42:13Z</time>
      </trkpt>
      <trkpt lat="45.62256" lon="4.61965">
        <ele>552.5</ele>
        <time>2013-10-09T07:42:18Z</time>
      </trkpt>
      <trkpt lat="45.62246" lon="4.61952">
        <ele>554</ele>
        <time>2013-10-09T07:42:26Z</time>
      </trkpt>
      <trkpt lat="45.62242" lon="4.61949">
        <ele>550.3</ele>
        <time>2013-10-09T07:42:30Z</time>
      </trkpt>
      <trkpt lat="45.62237" lon="4.61947">
        <ele>555.1</ele>
        <time>2013-10-09T07:42:38Z</time>
      </trkpt>
      <trkpt lat="45.62234" lon="4.61942">
        <ele>557.4</ele>
        <time>2013-10-09T07:42:43Z</time>
      </trkpt>
      <trkpt lat="45.62236" lon="4.61935">
        <ele>558.7</ele>
        <time>2013-10-09T07:42:50Z</time>
      </trkpt>
      <trkpt lat="45.62236" lon="4.61935">
        <ele>562.6</ele>
        <time>2013-10-09T07:42:58Z</time>
      </trkpt>
      <trkpt lat="45.62235" lon="4.61922">
        <ele>562.5</ele>
        <time>2013-10-09T07:43:00Z</time>
      </trkpt>
      <trkpt lat="45.62234" lon="4.61916">
        <ele>563.7</ele>
        <time>2013-10-09T07:43:05Z</time>
      </trkpt>
      <trkpt lat="45.62232" lon="4.61908">
        <ele>565.5</ele>
        <time>2013-10-09T07:43:11Z</time>
      </trkpt>
      <trkpt lat="45.62232" lon="4.61901">
        <ele>567.8</ele>
        <time>2013-10-09T07:43:16Z</time>
      </trkpt>
      <trkpt lat="45.62233" lon="4.61895">
        <ele>568</ele>
        <time>2013-10-09T07:43:20Z</time>
      </trkpt>
      <trkpt lat="45.6223" lon="4.61881">
        <ele>568.8</ele>
        <time>2013-10-09T07:43:30Z</time>
      </trkpt>
      <trkpt lat="45.6223" lon="4.61874">
        <ele>573.6</ele>
        <time>2013-10-09T07:43:36Z</time>
      </trkpt>
      <trkpt lat="45.6223" lon="4.61874">
        <ele>571.2</ele>
        <time>2013-10-09T07:43:44Z</time>
      </trkpt>
      <trkpt lat="45.62229" lon="4.61859">
        <ele>574</ele>
        <time>2013-10-09T07:43:50Z</time>
      </trkpt>
      <trkpt lat="45.62229" lon="4.61859">
        <ele>573.2</ele>
        <time>2013-10-09T07:44:01Z</time>
      </trkpt>
      <trkpt lat="45.62229" lon="4.61859">
        <ele>573.2</ele>
        <time>2013-10-09T07:44:10Z</time>
      </trkpt>
      <trkpt lat="45.62229" lon="4.61859">
        <ele>573.2</ele>
        <time>2013-10-09T07:44:18Z</time>
      </trkpt>
      <trkpt lat="45.62225" lon="4.61846">
        <ele>575.9</ele>
        <time>2013-10-09T07:44:20Z</time>
      </trkpt>
      <trkpt lat="45.62225" lon="4.61846">
        <ele>574.7</ele>
        <time>2013-10-09T07:44:32Z</time>
      </trkpt>
      <trkpt lat="45.62228" lon="4.61824">
        <ele>578.9</ele>
        <time>2013-10-09T07:44:40Z</time>
      </trkpt>
      <trkpt lat="45.62229" lon="4.61817">
        <ele>579</ele>
        <time>2013-10-09T07:44:46Z</time>
      </trkpt>
      <trkpt lat="45.62229" lon="4.61817">
        <ele>577.7</ele>
        <time>2013-10-09T07:44:54Z</time>
      </trkpt>
      <trkpt lat="45.62228" lon="4.61804">
        <ele>580</ele>
        <time>2013-10-09T07:44:56Z</time>
      </trkpt>
      <trkpt lat="45.62233" lon="4.61792">
        <ele>579.5</ele>
        <time>2013-10-09T07:45:05Z</time>
      </trkpt>
      <trkpt lat="45.62233" lon="4.61792">
        <ele>581</ele>
        <time>2013-10-09T07:45:13Z</time>
      </trkpt>
      <trkpt lat="45.62239" lon="4.61781">
        <ele>581</ele>
        <time>2013-10-09T07:45:14Z</time>
      </trkpt>
      <trkpt lat="45.62236" lon="4.61776">
        <ele>583</ele>
        <time>2013-10-09T07:45:22Z</time>
      </trkpt>
      <trkpt lat="45.62236" lon="4.61769">
        <ele>584</ele>
        <time>2013-10-09T07:45:29Z</time>
      </trkpt>
      <trkpt lat="45.62239" lon="4.61762">
        <ele>585.4</ele>
        <time>2013-10-09T07:45:33Z</time>
      </trkpt>
      <trkpt lat="45.6224" lon="4.61755">
        <ele>586.9</ele>
        <time>2013-10-09T07:45:37Z</time>
      </trkpt>
      <trkpt lat="45.6224" lon="4.61755">
        <ele>586.3</ele>
        <time>2013-10-09T07:45:47Z</time>
      </trkpt>
      <trkpt lat="45.62242" lon="4.61742">
        <ele>590</ele>
        <time>2013-10-09T07:45:48Z</time>
      </trkpt>
      <trkpt lat="45.62242" lon="4.61742">
        <ele>588.1</ele>
        <time>2013-10-09T07:45:58Z</time>
      </trkpt>
      <trkpt lat="45.62244" lon="4.61728">
        <ele>590.5</ele>
        <time>2013-10-09T07:46:02Z</time>
      </trkpt>
      <trkpt lat="45.62244" lon="4.61728">
        <ele>590.1</ele>
        <time>2013-10-09T07:46:11Z</time>
      </trkpt>
      <trkpt lat="45.62248" lon="4.61709">
        <ele>592</ele>
        <time>2013-10-09T07:46:14Z</time>
      </trkpt>
      <trkpt lat="45.62245" lon="4.61702">
        <ele>592.9</ele>
        <time>2013-10-09T07:46:20Z</time>
      </trkpt>
      <trkpt lat="45.62245" lon="4.61702">
        <ele>594.2</ele>
        <time>2013-10-09T07:46:32Z</time>
      </trkpt>
      <trkpt lat="45.62254" lon="4.61699">
        <ele>593</ele>
        <time>2013-10-09T07:46:35Z</time>
      </trkpt>
      <trkpt lat="45.6226" lon="4.617">
        <ele>594.6</ele>
        <time>2013-10-09T07:46:40Z</time>
      </trkpt>
      <trkpt lat="45.62265" lon="4.61699">
        <ele>598.6</ele>
        <time>2013-10-09T07:46:46Z</time>
      </trkpt>
      <trkpt lat="45.62265" lon="4.61699">
        <ele>596.2</ele>
        <time>2013-10-09T07:46:56Z</time>
      </trkpt>
      <trkpt lat="45.62265" lon="4.61699">
        <ele>596.2</ele>
        <time>2013-10-09T07:47:05Z</time>
      </trkpt>
      <trkpt lat="45.62258" lon="4.6169">
        <ele>596.5</ele>
        <time>2013-10-09T07:47:14Z</time>
      </trkpt>
      <trkpt lat="45.62253" lon="4.61692">
        <ele>594</ele>
        <time>2013-10-09T07:47:18Z</time>
      </trkpt>
      <trkpt lat="45.62249" lon="4.61697">
        <ele>594</ele>
        <time>2013-10-09T07:47:21Z</time>
      </trkpt>
      <trkpt lat="45.62245" lon="4.61703">
        <ele>592.2</ele>
        <time>2013-10-09T07:47:25Z</time>
      </trkpt>
      <trkpt lat="45.62244" lon="4.61711">
        <ele>592.2</ele>
        <time>2013-10-09T07:47:28Z</time>
      </trkpt>
      <trkpt lat="45.62245" lon="4.61719">
        <ele>591.1</ele>
        <time>2013-10-09T07:47:32Z</time>
      </trkpt>
      <trkpt lat="45.62246" lon="4.61727">
        <ele>590</ele>
        <time>2013-10-09T07:47:35Z</time>
      </trkpt>
      <trkpt lat="45.62248" lon="4.61733">
        <ele>590</ele>
        <time>2013-10-09T07:47:37Z</time>
      </trkpt>
      <trkpt lat="45.62251" lon="4.61741">
        <ele>590</ele>
        <time>2013-10-09T07:47:39Z</time>
      </trkpt>
      <trkpt lat="45.62251" lon="4.61748">
        <ele>592.8</ele>
        <time>2013-10-09T07:47:42Z</time>
      </trkpt>
      <trkpt lat="45.62246" lon="4.61752">
        <ele>590.4</ele>
        <time>2013-10-09T07:47:46Z</time>
      </trkpt>
      <trkpt lat="45.62245" lon="4.6176">
        <ele>589.7</ele>
        <time>2013-10-09T07:47:51Z</time>
      </trkpt>
      <trkpt lat="45.62242" lon="4.61772">
        <ele>588</ele>
        <time>2013-10-09T07:47:57Z</time>
      </trkpt>
      <trkpt lat="45.62242" lon="4.61785">
        <ele>586.1</ele>
        <time>2013-10-09T07:48:05Z</time>
      </trkpt>
      <trkpt lat="45.62239" lon="4.6179">
        <ele>584.6</ele>
        <time>2013-10-09T07:48:08Z</time>
      </trkpt>
      <trkpt lat="45.62233" lon="4.6179">
        <ele>584.1</ele>
        <time>2013-10-09T07:48:11Z</time>
      </trkpt>
      <trkpt lat="45.62228" lon="4.61786">
        <ele>584</ele>
        <time>2013-10-09T07:48:14Z</time>
      </trkpt>
      <trkpt lat="45.62224" lon="4.61778">
        <ele>583.1</ele>
        <time>2013-10-09T07:48:18Z</time>
      </trkpt>
      <trkpt lat="45.6222" lon="4.61774">
        <ele>583.1</ele>
        <time>2013-10-09T07:48:22Z</time>
      </trkpt>
      <trkpt lat="45.62216" lon="4.6177">
        <ele>583.5</ele>
        <time>2013-10-09T07:48:26Z</time>
      </trkpt>
      <trkpt lat="45.62216" lon="4.6177">
        <ele>583.6</ele>
        <time>2013-10-09T07:48:35Z</time>
      </trkpt>
      <trkpt lat="45.62216" lon="4.6177">
        <ele>583.6</ele>
        <time>2013-10-09T07:48:45Z</time>
      </trkpt>
      <trkpt lat="45.62198" lon="4.61748">
        <ele>586</ele>
        <time>2013-10-09T07:48:46Z</time>
      </trkpt>
      <trkpt lat="45.62192" lon="4.61742">
        <ele>586</ele>
        <time>2013-10-09T07:48:51Z</time>
      </trkpt>
      <trkpt lat="45.62189" lon="4.61738">
        <ele>586</ele>
        <time>2013-10-09T07:48:54Z</time>
      </trkpt>
      <trkpt lat="45.62189" lon="4.61738">
        <ele>585.6</ele>
        <time>2013-10-09T07:49:05Z</time>
      </trkpt>
      <trkpt lat="45.62192" lon="4.61725">
        <ele>582.9</ele>
        <time>2013-10-09T07:49:13Z</time>
      </trkpt>
      <trkpt lat="45.62189" lon="4.61718">
        <ele>585</ele>
        <time>2013-10-09T07:49:20Z</time>
      </trkpt>
      <trkpt lat="45.62186" lon="4.61713">
        <ele>587.7</ele>
        <time>2013-10-09T07:49:23Z</time>
      </trkpt>
      <trkpt lat="45.62184" lon="4.61706">
        <ele>587.7</ele>
        <time>2013-10-09T07:49:27Z</time>
      </trkpt>
      <trkpt lat="45.62184" lon="4.61698">
        <ele>589.7</ele>
        <time>2013-10-09T07:49:30Z</time>
      </trkpt>
      <trkpt lat="45.62185" lon="4.61679">
        <ele>590</ele>
        <time>2013-10-09T07:49:39Z</time>
      </trkpt>
      <trkpt lat="45.62187" lon="4.61672">
        <ele>590</ele>
        <time>2013-10-09T07:49:45Z</time>
      </trkpt>
      <trkpt lat="45.62187" lon="4.61666">
        <ele>589.5</ele>
        <time>2013-10-09T07:49:50Z</time>
      </trkpt>
      <trkpt lat="45.62187" lon="4.61666">
        <ele>593.6</ele>
        <time>2013-10-09T07:49:59Z</time>
      </trkpt>
      <trkpt lat="45.62178" lon="4.61657">
        <ele>590</ele>
        <time>2013-10-09T07:50:02Z</time>
      </trkpt>
      <trkpt lat="45.62175" lon="4.61651">
        <ele>590</ele>
        <time>2013-10-09T07:50:06Z</time>
      </trkpt>
      <trkpt lat="45.62178" lon="4.61644">
        <ele>590</ele>
        <time>2013-10-09T07:50:11Z</time>
      </trkpt>
      <trkpt lat="45.62178" lon="4.61644">
        <ele>596.2</ele>
        <time>2013-10-09T07:50:19Z</time>
      </trkpt>
      <trkpt lat="45.62183" lon="4.61631">
        <ele>590</ele>
        <time>2013-10-09T07:50:20Z</time>
      </trkpt>
      <trkpt lat="45.62183" lon="4.61631">
        <ele>598.5</ele>
        <time>2013-10-09T07:50:28Z</time>
      </trkpt>
      <trkpt lat="45.62183" lon="4.61616">
        <ele>591</ele>
        <time>2013-10-09T07:50:30Z</time>
      </trkpt>
      <trkpt lat="45.62187" lon="4.61611">
        <ele>591</ele>
        <time>2013-10-09T07:50:38Z</time>
      </trkpt>
      <trkpt lat="45.62192" lon="4.61608">
        <ele>596.4</ele>
        <time>2013-10-09T07:50:42Z</time>
      </trkpt>
      <trkpt lat="45.62197" lon="4.61606">
        <ele>601.4</ele>
        <time>2013-10-09T07:50:47Z</time>
      </trkpt>
      <trkpt lat="45.622" lon="4.61601">
        <ele>601.7</ele>
        <time>2013-10-09T07:50:52Z</time>
      </trkpt>
      <trkpt lat="45.62202" lon="4.61594">
        <ele>602.9</ele>
        <time>2013-10-09T07:50:58Z</time>
      </trkpt>
      <trkpt lat="45.62202" lon="4.61594">
        <ele>605.9</ele>
        <time>2013-10-09T07:51:06Z</time>
      </trkpt>
      <trkpt lat="45.62205" lon="4.61581">
        <ele>604</ele>
        <time>2013-10-09T07:51:16Z</time>
      </trkpt>
      <trkpt lat="45.62205" lon="4.61581">
        <ele>608.6</ele>
        <time>2013-10-09T07:51:24Z</time>
      </trkpt>
      <trkpt lat="45.62205" lon="4.61581">
        <ele>608.6</ele>
        <time>2013-10-09T07:51:33Z</time>
      </trkpt>
      <trkpt lat="45.62209" lon="4.61576">
        <ele>611.9</ele>
        <time>2013-10-09T07:51:34Z</time>
      </trkpt>
      <trkpt lat="45.62209" lon="4.61569">
        <ele>614.2</ele>
        <time>2013-10-09T07:51:42Z</time>
      </trkpt>
      <trkpt lat="45.62211" lon="4.61561">
        <ele>617.8</ele>
        <time>2013-10-09T07:51:48Z</time>
      </trkpt>
      <trkpt lat="45.62211" lon="4.61561">
        <ele>612.3</ele>
        <time>2013-10-09T07:51:56Z</time>
      </trkpt>
      <trkpt lat="45.62211" lon="4.61561">
        <ele>612.3</ele>
        <time>2013-10-09T07:52:05Z</time>
      </trkpt>
      <trkpt lat="45.62211" lon="4.61561">
        <ele>612.3</ele>
        <time>2013-10-09T07:52:14Z</time>
      </trkpt>
      <trkpt lat="45.62231" lon="4.61536">
        <ele>621.9</ele>
        <time>2013-10-09T07:52:20Z</time>
      </trkpt>
      <trkpt lat="45.62233" lon="4.61529">
        <ele>623</ele>
        <time>2013-10-09T07:52:27Z</time>
      </trkpt>
      <trkpt lat="45.62233" lon="4.61522">
        <ele>623</ele>
        <time>2013-10-09T07:52:35Z</time>
      </trkpt>
      <trkpt lat="45.62233" lon="4.61522">
        <ele>620.9</ele>
        <time>2013-10-09T07:52:43Z</time>
      </trkpt>
      <trkpt lat="45.62233" lon="4.61522">
        <ele>620.9</ele>
        <time>2013-10-09T07:52:52Z</time>
      </trkpt>
      <trkpt lat="45.62235" lon="4.615">
        <ele>623.8</ele>
        <time>2013-10-09T07:52:56Z</time>
      </trkpt>
      <trkpt lat="45.62236" lon="4.61493">
        <ele>624</ele>
        <time>2013-10-09T07:53:02Z</time>
      </trkpt>
      <trkpt lat="45.62238" lon="4.61487">
        <ele>625</ele>
        <time>2013-10-09T07:53:08Z</time>
      </trkpt>
      <trkpt lat="45.62243" lon="4.61483">
        <ele>625</ele>
        <time>2013-10-09T07:53:15Z</time>
      </trkpt>
      <trkpt lat="45.62243" lon="4.61483">
        <ele>628.6</ele>
        <time>2013-10-09T07:53:23Z</time>
      </trkpt>
      <trkpt lat="45.62254" lon="4.61482">
        <ele>625</ele>
        <time>2013-10-09T07:53:26Z</time>
      </trkpt>
      <trkpt lat="45.62263" lon="4.61488">
        <ele>626.7</ele>
        <time>2013-10-09T07:53:32Z</time>
      </trkpt>
      <trkpt lat="45.62268" lon="4.61495">
        <ele>624.8</ele>
        <time>2013-10-09T07:53:38Z</time>
      </trkpt>
      <trkpt lat="45.62278" lon="4.61503">
        <ele>623.1</ele>
        <time>2013-10-09T07:53:45Z</time>
      </trkpt>
      <trkpt lat="45.62278" lon="4.61503">
        <ele>627.4</ele>
        <time>2013-10-09T07:53:53Z</time>
      </trkpt>
      <trkpt lat="45.62289" lon="4.61516">
        <ele>623</ele>
        <time>2013-10-09T07:53:54Z</time>
      </trkpt>
      <trkpt lat="45.62298" lon="4.61522">
        <ele>621</ele>
        <time>2013-10-09T07:54:01Z</time>
      </trkpt>
      <trkpt lat="45.62298" lon="4.61522">
        <ele>625.6</ele>
        <time>2013-10-09T07:54:09Z</time>
      </trkpt>
      <trkpt lat="45.6231" lon="4.61536">
        <ele>621.1</ele>
        <time>2013-10-09T07:54:12Z</time>
      </trkpt>
      <trkpt lat="45.62318" lon="4.61544">
        <ele>620.1</ele>
        <time>2013-10-09T07:54:18Z</time>
      </trkpt>
      <trkpt lat="45.62322" lon="4.61549">
        <ele>618.5</ele>
        <time>2013-10-09T07:54:22Z</time>
      </trkpt>
      <trkpt lat="45.62327" lon="4.61553">
        <ele>618.5</ele>
        <time>2013-10-09T07:54:25Z</time>
      </trkpt>
      <trkpt lat="45.62333" lon="4.61562">
        <ele>617</ele>
        <time>2013-10-09T07:54:30Z</time>
      </trkpt>
      <trkpt lat="45.62337" lon="4.61568">
        <ele>621</ele>
        <time>2013-10-09T07:54:33Z</time>
      </trkpt>
      <trkpt lat="45.6234" lon="4.61574">
        <ele>621</ele>
        <time>2013-10-09T07:54:35Z</time>
      </trkpt>
      <trkpt lat="45.62344" lon="4.61586">
        <ele>629.3</ele>
        <time>2013-10-09T07:54:40Z</time>
      </trkpt>
      <trkpt lat="45.62355" lon="4.61584">
        <ele>628.4</ele>
        <time>2013-10-09T07:54:49Z</time>
      </trkpt>
      <trkpt lat="45.62367" lon="4.61583">
        <ele>625.3</ele>
        <time>2013-10-09T07:54:55Z</time>
      </trkpt>
      <trkpt lat="45.62367" lon="4.61583">
        <ele>618</ele>
        <time>2013-10-09T07:55:03Z</time>
      </trkpt>
      <trkpt lat="45.62381" lon="4.61587">
        <ele>624.5</ele>
        <time>2013-10-09T07:55:08Z</time>
      </trkpt>
      <trkpt lat="45.62381" lon="4.61587">
        <ele>617</ele>
        <time>2013-10-09T07:55:16Z</time>
      </trkpt>
      <trkpt lat="45.62389" lon="4.61593">
        <ele>627.4</ele>
        <time>2013-10-09T07:55:17Z</time>
      </trkpt>
      <trkpt lat="45.62393" lon="4.61597">
        <ele>628.9</ele>
        <time>2013-10-09T07:55:20Z</time>
      </trkpt>
      <trkpt lat="45.62398" lon="4.61601">
        <ele>631</ele>
        <time>2013-10-09T07:55:25Z</time>
      </trkpt>
      <trkpt lat="45.62403" lon="4.61599">
        <ele>631</ele>
        <time>2013-10-09T07:55:29Z</time>
      </trkpt>
      <trkpt lat="45.62403" lon="4.61599">
        <ele>613.4</ele>
        <time>2013-10-09T07:55:37Z</time>
      </trkpt>
      <trkpt lat="45.62418" lon="4.61599">
        <ele>629.5</ele>
        <time>2013-10-09T07:55:38Z</time>
      </trkpt>
      <trkpt lat="45.62426" lon="4.61591">
        <ele>626.7</ele>
        <time>2013-10-09T07:55:43Z</time>
      </trkpt>
      <trkpt lat="45.62426" lon="4.61591">
        <ele>613.4</ele>
        <time>2013-10-09T07:55:51Z</time>
      </trkpt>
      <trkpt lat="45.62447" lon="4.61586">
        <ele>621.3</ele>
        <time>2013-10-09T07:55:59Z</time>
      </trkpt>
      <trkpt lat="45.62453" lon="4.6158">
        <ele>620.5</ele>
        <time>2013-10-09T07:56:02Z</time>
      </trkpt>
      <trkpt lat="45.6246" lon="4.61572">
        <ele>619.5</ele>
        <time>2013-10-09T07:56:08Z</time>
      </trkpt>
      <trkpt lat="45.62464" lon="4.61565">
        <ele>619</ele>
        <time>2013-10-09T07:56:11Z</time>
      </trkpt>
      <trkpt lat="45.62468" lon="4.61563">
        <ele>619</ele>
        <time>2013-10-09T07:56:13Z</time>
      </trkpt>
      <trkpt lat="45.62478" lon="4.61561">
        <ele>616.3</ele>
        <time>2013-10-09T07:56:18Z</time>
      </trkpt>
      <trkpt lat="45.62493" lon="4.61556">
        <ele>615</ele>
        <time>2013-10-09T07:56:26Z</time>
      </trkpt>
      <trkpt lat="45.62498" lon="4.61554">
        <ele>618.8</ele>
        <time>2013-10-09T07:56:28Z</time>
      </trkpt>
      <trkpt lat="45.62502" lon="4.61552">
        <ele>618.8</ele>
        <time>2013-10-09T07:56:31Z</time>
      </trkpt>
      <trkpt lat="45.62502" lon="4.61552">
        <ele>614.8</ele>
        <time>2013-10-09T07:56:40Z</time>
      </trkpt>
      <trkpt lat="45.62511" lon="4.61546">
        <ele>621.9</ele>
        <time>2013-10-09T07:56:41Z</time>
      </trkpt>
      <trkpt lat="45.62511" lon="4.61546">
        <ele>615.9</ele>
        <time>2013-10-09T07:56:49Z</time>
      </trkpt>
      <trkpt lat="45.62525" lon="4.61539">
        <ele>619.1</ele>
        <time>2013-10-09T07:56:52Z</time>
      </trkpt>
      <trkpt lat="45.62534" lon="4.61534">
        <ele>619</ele>
        <time>2013-10-09T07:57:00Z</time>
      </trkpt>
      <trkpt lat="45.62534" lon="4.61534">
        <ele>616.8</ele>
        <time>2013-10-09T07:57:08Z</time>
      </trkpt>
      <trkpt lat="45.62548" lon="4.6153">
        <ele>621</ele>
        <time>2013-10-09T07:57:10Z</time>
      </trkpt>
      <trkpt lat="45.62548" lon="4.6153">
        <ele>616.3</ele>
        <time>2013-10-09T07:57:18Z</time>
      </trkpt>
      <trkpt lat="45.62553" lon="4.61527">
        <ele>621</ele>
        <time>2013-10-09T07:57:20Z</time>
      </trkpt>
      <trkpt lat="45.62567" lon="4.61529">
        <ele>620.1</ele>
        <time>2013-10-09T07:57:26Z</time>
      </trkpt>
      <trkpt lat="45.6258" lon="4.61528">
        <ele>618.3</ele>
        <time>2013-10-09T07:57:33Z</time>
      </trkpt>
      <trkpt lat="45.62589" lon="4.61532">
        <ele>614.5</ele>
        <time>2013-10-09T07:57:40Z</time>
      </trkpt>
      <trkpt lat="45.62593" lon="4.61537">
        <ele>612.1</ele>
        <time>2013-10-09T07:57:43Z</time>
      </trkpt>
      <trkpt lat="45.62597" lon="4.6154">
        <ele>612.1</ele>
        <time>2013-10-09T07:57:46Z</time>
      </trkpt>
      <trkpt lat="45.62604" lon="4.6155">
        <ele>611.1</ele>
        <time>2013-10-09T07:57:54Z</time>
      </trkpt>
      <trkpt lat="45.62606" lon="4.61556">
        <ele>604.6</ele>
        <time>2013-10-09T07:57:59Z</time>
      </trkpt>
      <trkpt lat="45.62611" lon="4.6156">
        <ele>603</ele>
        <time>2013-10-09T07:58:05Z</time>
      </trkpt>
      <trkpt lat="45.62615" lon="4.61564">
        <ele>603</ele>
        <time>2013-10-09T07:58:09Z</time>
      </trkpt>
      <trkpt lat="45.62615" lon="4.61564">
        <ele>615.7</ele>
        <time>2013-10-09T07:58:17Z</time>
      </trkpt>
      <trkpt lat="45.62625" lon="4.61569">
        <ele>603</ele>
        <time>2013-10-09T07:58:18Z</time>
      </trkpt>
      <trkpt lat="45.62631" lon="4.61567">
        <ele>604.8</ele>
        <time>2013-10-09T07:58:22Z</time>
      </trkpt>
      <trkpt lat="45.62634" lon="4.61562">
        <ele>605.9</ele>
        <time>2013-10-09T07:58:26Z</time>
      </trkpt>
      <trkpt lat="45.62637" lon="4.61556">
        <ele>606</ele>
        <time>2013-10-09T07:58:32Z</time>
      </trkpt>
      <trkpt lat="45.62637" lon="4.61556">
        <ele>621.4</ele>
        <time>2013-10-09T07:58:43Z</time>
      </trkpt>
      <trkpt lat="45.62647" lon="4.61559">
        <ele>610.7</ele>
        <time>2013-10-09T07:58:47Z</time>
      </trkpt>
      <trkpt lat="45.62647" lon="4.61559">
        <ele>623.8</ele>
        <time>2013-10-09T07:58:55Z</time>
      </trkpt>
      <trkpt lat="45.62655" lon="4.61566">
        <ele>615.2</ele>
        <time>2013-10-09T07:58:59Z</time>
      </trkpt>
      <trkpt lat="45.62656" lon="4.61574">
        <ele>615.5</ele>
        <time>2013-10-09T07:59:03Z</time>
      </trkpt>
      <trkpt lat="45.62662" lon="4.61575">
        <ele>616.5</ele>
        <time>2013-10-09T07:59:09Z</time>
      </trkpt>
      <trkpt lat="45.62666" lon="4.61579">
        <ele>616.5</ele>
        <time>2013-10-09T07:59:13Z</time>
      </trkpt>
      <trkpt lat="45.62672" lon="4.61581">
        <ele>617</ele>
        <time>2013-10-09T07:59:19Z</time>
      </trkpt>
      <trkpt lat="45.62678" lon="4.61584">
        <ele>617.5</ele>
        <time>2013-10-09T07:59:24Z</time>
      </trkpt>
      <trkpt lat="45.62678" lon="4.61584">
        <ele>627.9</ele>
        <time>2013-10-09T07:59:32Z</time>
      </trkpt>
      <trkpt lat="45.62692" lon="4.61589">
        <ele>620.5</ele>
        <time>2013-10-09T07:59:35Z</time>
      </trkpt>
      <trkpt lat="45.62692" lon="4.61589">
        <ele>630.6</ele>
        <time>2013-10-09T07:59:43Z</time>
      </trkpt>
      <trkpt lat="45.62692" lon="4.61589">
        <ele>630.6</ele>
        <time>2013-10-09T07:59:52Z</time>
      </trkpt>
      <trkpt lat="45.62704" lon="4.61589">
        <ele>622</ele>
        <time>2013-10-09T07:59:53Z</time>
      </trkpt>
      <trkpt lat="45.62704" lon="4.61589">
        <ele>632.4</ele>
        <time>2013-10-09T08:00:01Z</time>
      </trkpt>
      <trkpt lat="45.62714" lon="4.61591">
        <ele>621.4</ele>
        <time>2013-10-09T08:00:02Z</time>
      </trkpt>
      <trkpt lat="45.62723" lon="4.61597">
        <ele>624.2</ele>
        <time>2013-10-09T08:00:10Z</time>
      </trkpt>
      <trkpt lat="45.62728" lon="4.61601">
        <ele>627.5</ele>
        <time>2013-10-09T08:00:14Z</time>
      </trkpt>
      <trkpt lat="45.62733" lon="4.61599">
        <ele>628</ele>
        <time>2013-10-09T08:00:23Z</time>
      </trkpt>
      <trkpt lat="45.62733" lon="4.61599">
        <ele>633.6</ele>
        <time>2013-10-09T08:00:31Z</time>
      </trkpt>
      <trkpt lat="45.62744" lon="4.61597">
        <ele>631.2</ele>
        <time>2013-10-09T08:00:32Z</time>
      </trkpt>
      <trkpt lat="45.6275" lon="4.61596">
        <ele>637.6</ele>
        <time>2013-10-09T08:00:38Z</time>
      </trkpt>
      <trkpt lat="45.62755" lon="4.61593">
        <ele>637.6</ele>
        <time>2013-10-09T08:00:42Z</time>
      </trkpt>
      <trkpt lat="45.6276" lon="4.61589">
        <ele>639.9</ele>
        <time>2013-10-09T08:00:48Z</time>
      </trkpt>
      <trkpt lat="45.62764" lon="4.61584">
        <ele>639.1</ele>
        <time>2013-10-09T08:00:52Z</time>
      </trkpt>
      <trkpt lat="45.62772" lon="4.61577">
        <ele>639.9</ele>
        <time>2013-10-09T08:01:01Z</time>
      </trkpt>
      <trkpt lat="45.62777" lon="4.61574">
        <ele>638.4</ele>
        <time>2013-10-09T08:01:05Z</time>
      </trkpt>
      <trkpt lat="45.62783" lon="4.61565">
        <ele>638</ele>
        <time>2013-10-09T08:01:13Z</time>
      </trkpt>
      <trkpt lat="45.62788" lon="4.61554">
        <ele>638</ele>
        <time>2013-10-09T08:01:21Z</time>
      </trkpt>
      <trkpt lat="45.6279" lon="4.61547">
        <ele>638.5</ele>
        <time>2013-10-09T08:01:26Z</time>
      </trkpt>
      <trkpt lat="45.6279" lon="4.61547">
        <ele>637.9</ele>
        <time>2013-10-09T08:01:34Z</time>
      </trkpt>
      <trkpt lat="45.6279" lon="4.61547">
        <ele>637.9</ele>
        <time>2013-10-09T08:01:44Z</time>
      </trkpt>
      <trkpt lat="45.62803" lon="4.61534">
        <ele>642.9</ele>
        <time>2013-10-09T08:01:46Z</time>
      </trkpt>
      <trkpt lat="45.62803" lon="4.6154">
        <ele>643</ele>
        <time>2013-10-09T08:01:52Z</time>
      </trkpt>
      <trkpt lat="45.62803" lon="4.6154">
        <ele>636.3</ele>
        <time>2013-10-09T08:02:01Z</time>
      </trkpt>
      <trkpt lat="45.62804" lon="4.61534">
        <ele>639.3</ele>
        <time>2013-10-09T08:02:02Z</time>
      </trkpt>
      <trkpt lat="45.62806" lon="4.61526">
        <ele>638.1</ele>
        <time>2013-10-09T08:02:07Z</time>
      </trkpt>
      <trkpt lat="45.62806" lon="4.61518">
        <ele>637.1</ele>
        <time>2013-10-09T08:02:11Z</time>
      </trkpt>
      <trkpt lat="45.62805" lon="4.61508">
        <ele>637</ele>
        <time>2013-10-09T08:02:15Z</time>
      </trkpt>
      <trkpt lat="45.62806" lon="4.61502">
        <ele>637</ele>
        <time>2013-10-09T08:02:19Z</time>
      </trkpt>
      <trkpt lat="45.62806" lon="4.61502">
        <ele>641.6</ele>
        <time>2013-10-09T08:02:27Z</time>
      </trkpt>
      <trkpt lat="45.62811" lon="4.61482">
        <ele>639.4</ele>
        <time>2013-10-09T08:02:32Z</time>
      </trkpt>
      <trkpt lat="45.62809" lon="4.61473">
        <ele>640.7</ele>
        <time>2013-10-09T08:02:37Z</time>
      </trkpt>
      <trkpt lat="45.62809" lon="4.61473">
        <ele>646.1</ele>
        <time>2013-10-09T08:02:45Z</time>
      </trkpt>
      <trkpt lat="45.62813" lon="4.61467">
        <ele>640.2</ele>
        <time>2013-10-09T08:02:46Z</time>
      </trkpt>
      <trkpt lat="45.62817" lon="4.61462">
        <ele>639.9</ele>
        <time>2013-10-09T08:02:50Z</time>
      </trkpt>
      <trkpt lat="45.62819" lon="4.61457">
        <ele>639.9</ele>
        <time>2013-10-09T08:02:54Z</time>
      </trkpt>
      <trkpt lat="45.62821" lon="4.6145">
        <ele>641.9</ele>
        <time>2013-10-09T08:02:59Z</time>
      </trkpt>
      <trkpt lat="45.62821" lon="4.6145">
        <ele>647.7</ele>
        <time>2013-10-09T08:03:09Z</time>
      </trkpt>
      <trkpt lat="45.62821" lon="4.61436">
        <ele>644</ele>
        <time>2013-10-09T08:03:11Z</time>
      </trkpt>
      <trkpt lat="45.62822" lon="4.61428">
        <ele>645.4</ele>
        <time>2013-10-09T08:03:16Z</time>
      </trkpt>
      <trkpt lat="45.62823" lon="4.61422">
        <ele>645.9</ele>
        <time>2013-10-09T08:03:19Z</time>
      </trkpt>
      <trkpt lat="45.62823" lon="4.61422">
        <ele>652.6</ele>
        <time>2013-10-09T08:03:29Z</time>
      </trkpt>
      <trkpt lat="45.62826" lon="4.61406">
        <ele>648.4</ele>
        <time>2013-10-09T08:03:31Z</time>
      </trkpt>
      <trkpt lat="45.62829" lon="4.61393">
        <ele>651.7</ele>
        <time>2013-10-09T08:03:39Z</time>
      </trkpt>
      <trkpt lat="45.62829" lon="4.61393">
        <ele>657.1</ele>
        <time>2013-10-09T08:03:47Z</time>
      </trkpt>
      <trkpt lat="45.62834" lon="4.61381">
        <ele>653</ele>
        <time>2013-10-09T08:03:51Z</time>
      </trkpt>
      <trkpt lat="45.62834" lon="4.61381">
        <ele>658.1</ele>
        <time>2013-10-09T08:03:59Z</time>
      </trkpt>
      <trkpt lat="45.6284" lon="4.61365">
        <ele>656</ele>
        <time>2013-10-09T08:04:03Z</time>
      </trkpt>
      <trkpt lat="45.6284" lon="4.61359">
        <ele>656</ele>
        <time>2013-10-09T08:04:07Z</time>
      </trkpt>
      <trkpt lat="45.62838" lon="4.61352">
        <ele>656</ele>
        <time>2013-10-09T08:04:11Z</time>
      </trkpt>
      <trkpt lat="45.62839" lon="4.61346">
        <ele>655.1</ele>
        <time>2013-10-09T08:04:16Z</time>
      </trkpt>
      <trkpt lat="45.62839" lon="4.61346">
        <ele>662.8</ele>
        <time>2013-10-09T08:04:24Z</time>
      </trkpt>
      <trkpt lat="45.62847" lon="4.61329">
        <ele>656.9</ele>
        <time>2013-10-09T08:04:29Z</time>
      </trkpt>
      <trkpt lat="45.62847" lon="4.61329">
        <ele>663</ele>
        <time>2013-10-09T08:04:37Z</time>
      </trkpt>
      <trkpt lat="45.62848" lon="4.61309">
        <ele>659.9</ele>
        <time>2013-10-09T08:04:44Z</time>
      </trkpt>
      <trkpt lat="45.6285" lon="4.61302">
        <ele>660.5</ele>
        <time>2013-10-09T08:04:49Z</time>
      </trkpt>
      <trkpt lat="45.62853" lon="4.61296">
        <ele>661</ele>
        <time>2013-10-09T08:04:54Z</time>
      </trkpt>
      <trkpt lat="45.62855" lon="4.61288">
        <ele>661</ele>
        <time>2013-10-09T08:04:57Z</time>
      </trkpt>
      <trkpt lat="45.62856" lon="4.61281">
        <ele>661</ele>
        <time>2013-10-09T08:05:00Z</time>
      </trkpt>
      <trkpt lat="45.62858" lon="4.61275">
        <ele>661</ele>
        <time>2013-10-09T08:05:04Z</time>
      </trkpt>
      <trkpt lat="45.62861" lon="4.61261">
        <ele>661</ele>
        <time>2013-10-09T08:05:14Z</time>
      </trkpt>
      <trkpt lat="45.62864" lon="4.61256">
        <ele>661.9</ele>
        <time>2013-10-09T08:05:19Z</time>
      </trkpt>
      <trkpt lat="45.62864" lon="4.61256">
        <ele>669.8</ele>
        <time>2013-10-09T08:05:27Z</time>
      </trkpt>
      <trkpt lat="45.6287" lon="4.61238">
        <ele>664</ele>
        <time>2013-10-09T08:05:30Z</time>
      </trkpt>
      <trkpt lat="45.62868" lon="4.61232">
        <ele>664.9</ele>
        <time>2013-10-09T08:05:36Z</time>
      </trkpt>
      <trkpt lat="45.62868" lon="4.61232">
        <ele>672.7</ele>
        <time>2013-10-09T08:05:44Z</time>
      </trkpt>
      <trkpt lat="45.62873" lon="4.61216">
        <ele>665</ele>
        <time>2013-10-09T08:05:48Z</time>
      </trkpt>
      <trkpt lat="45.62878" lon="4.61213">
        <ele>666.2</ele>
        <time>2013-10-09T08:05:51Z</time>
      </trkpt>
      <trkpt lat="45.62883" lon="4.61209">
        <ele>666.2</ele>
        <time>2013-10-09T08:05:54Z</time>
      </trkpt>
      <trkpt lat="45.62887" lon="4.61204">
        <ele>667</ele>
        <time>2013-10-09T08:05:58Z</time>
      </trkpt>
      <trkpt lat="45.62892" lon="4.61193">
        <ele>667</ele>
        <time>2013-10-09T08:06:05Z</time>
      </trkpt>
      <trkpt lat="45.62892" lon="4.61185">
        <ele>667</ele>
        <time>2013-10-09T08:06:09Z</time>
      </trkpt>
      <trkpt lat="45.6289" lon="4.61172">
        <ele>667</ele>
        <time>2013-10-09T08:06:15Z</time>
      </trkpt>
      <trkpt lat="45.62893" lon="4.61166">
        <ele>667.9</ele>
        <time>2013-10-09T08:06:19Z</time>
      </trkpt>
      <trkpt lat="45.62896" lon="4.6116">
        <ele>668.7</ele>
        <time>2013-10-09T08:06:22Z</time>
      </trkpt>
      <trkpt lat="45.62898" lon="4.61154">
        <ele>668.7</ele>
        <time>2013-10-09T08:06:25Z</time>
      </trkpt>
      <trkpt lat="45.62898" lon="4.61154">
        <ele>675</ele>
        <time>2013-10-09T08:06:33Z</time>
      </trkpt>
      <trkpt lat="45.62906" lon="4.61136">
        <ele>670</ele>
        <time>2013-10-09T08:06:40Z</time>
      </trkpt>
      <trkpt lat="45.62908" lon="4.61129">
        <ele>670</ele>
        <time>2013-10-09T08:06:45Z</time>
      </trkpt>
      <trkpt lat="45.62909" lon="4.6112">
        <ele>670</ele>
        <time>2013-10-09T08:06:50Z</time>
      </trkpt>
      <trkpt lat="45.62913" lon="4.61116">
        <ele>670.9</ele>
        <time>2013-10-09T08:06:53Z</time>
      </trkpt>
      <trkpt lat="45.62918" lon="4.61111">
        <ele>671</ele>
        <time>2013-10-09T08:06:56Z</time>
      </trkpt>
      <trkpt lat="45.62921" lon="4.61106">
        <ele>671</ele>
        <time>2013-10-09T08:06:59Z</time>
      </trkpt>
      <trkpt lat="45.62921" lon="4.61106">
        <ele>674.4</ele>
        <time>2013-10-09T08:07:07Z</time>
      </trkpt>
      <trkpt lat="45.62926" lon="4.61094">
        <ele>671.9</ele>
        <time>2013-10-09T08:07:08Z</time>
      </trkpt>
      <trkpt lat="45.62928" lon="4.61088">
        <ele>672</ele>
        <time>2013-10-09T08:07:12Z</time>
      </trkpt>
      <trkpt lat="45.62931" lon="4.6108">
        <ele>672.5</ele>
        <time>2013-10-09T08:07:16Z</time>
      </trkpt>
      <trkpt lat="45.62936" lon="4.61062">
        <ele>673</ele>
        <time>2013-10-09T08:07:25Z</time>
      </trkpt>
      <trkpt lat="45.62936" lon="4.61062">
        <ele>674.6</ele>
        <time>2013-10-09T08:07:33Z</time>
      </trkpt>
      <trkpt lat="45.62942" lon="4.61046">
        <ele>670</ele>
        <time>2013-10-09T08:07:37Z</time>
      </trkpt>
      <trkpt lat="45.62945" lon="4.61038">
        <ele>671.6</ele>
        <time>2013-10-09T08:07:41Z</time>
      </trkpt>
      <trkpt lat="45.62948" lon="4.61031">
        <ele>673.8</ele>
        <time>2013-10-09T08:07:44Z</time>
      </trkpt>
      <trkpt lat="45.62952" lon="4.61018">
        <ele>674.9</ele>
        <time>2013-10-09T08:07:51Z</time>
      </trkpt>
      <trkpt lat="45.62953" lon="4.61004">
        <ele>676</ele>
        <time>2013-10-09T08:07:57Z</time>
      </trkpt>
      <trkpt lat="45.62952" lon="4.60996">
        <ele>675</ele>
        <time>2013-10-09T08:08:01Z</time>
      </trkpt>
      <trkpt lat="45.62954" lon="4.6099">
        <ele>675.5</ele>
        <time>2013-10-09T08:08:06Z</time>
      </trkpt>
      <trkpt lat="45.62954" lon="4.6099">
        <ele>674.1</ele>
        <time>2013-10-09T08:08:14Z</time>
      </trkpt>
      <trkpt lat="45.62957" lon="4.60977">
        <ele>676</ele>
        <time>2013-10-09T08:08:15Z</time>
      </trkpt>
      <trkpt lat="45.62959" lon="4.60969">
        <ele>678.6</ele>
        <time>2013-10-09T08:08:20Z</time>
      </trkpt>
      <trkpt lat="45.62958" lon="4.60961">
        <ele>679</ele>
        <time>2013-10-09T08:08:25Z</time>
      </trkpt>
      <trkpt lat="45.62956" lon="4.60948">
        <ele>679</ele>
        <time>2013-10-09T08:08:33Z</time>
      </trkpt>
      <trkpt lat="45.62964" lon="4.6093">
        <ele>680</ele>
        <time>2013-10-09T08:08:41Z</time>
      </trkpt>
      <trkpt lat="45.62966" lon="4.60924">
        <ele>680</ele>
        <time>2013-10-09T08:08:45Z</time>
      </trkpt>
      <trkpt lat="45.6297" lon="4.60919">
        <ele>680</ele>
        <time>2013-10-09T08:08:49Z</time>
      </trkpt>
      <trkpt lat="45.62974" lon="4.60914">
        <ele>680</ele>
        <time>2013-10-09T08:08:54Z</time>
      </trkpt>
      <trkpt lat="45.62975" lon="4.60907">
        <ele>680</ele>
        <time>2013-10-09T08:08:57Z</time>
      </trkpt>
      <trkpt lat="45.62975" lon="4.60907">
        <ele>674.9</ele>
        <time>2013-10-09T08:09:05Z</time>
      </trkpt>
      <trkpt lat="45.62975" lon="4.60878">
        <ele>680</ele>
        <time>2013-10-09T08:09:12Z</time>
      </trkpt>
      <trkpt lat="45.62975" lon="4.60878">
        <ele>677.3</ele>
        <time>2013-10-09T08:09:20Z</time>
      </trkpt>
      <trkpt lat="45.62975" lon="4.60878">
        <ele>677.3</ele>
        <time>2013-10-09T08:09:31Z</time>
      </trkpt>
      <trkpt lat="45.62975" lon="4.60845">
        <ele>681</ele>
        <time>2013-10-09T08:09:33Z</time>
      </trkpt>
      <trkpt lat="45.62975" lon="4.60845">
        <ele>680.3</ele>
        <time>2013-10-09T08:09:41Z</time>
      </trkpt>
      <trkpt lat="45.62982" lon="4.60827">
        <ele>682</ele>
        <time>2013-10-09T08:09:42Z</time>
      </trkpt>
      <trkpt lat="45.62989" lon="4.60818">
        <ele>682.7</ele>
        <time>2013-10-09T08:09:47Z</time>
      </trkpt>
      <trkpt lat="45.62989" lon="4.60818">
        <ele>678.6</ele>
        <time>2013-10-09T08:09:55Z</time>
      </trkpt>
      <trkpt lat="45.62998" lon="4.60803">
        <ele>683.8</ele>
        <time>2013-10-09T08:09:59Z</time>
      </trkpt>
      <trkpt lat="45.62998" lon="4.60803">
        <ele>677.7</ele>
        <time>2013-10-09T08:10:07Z</time>
      </trkpt>
      <trkpt lat="45.63007" lon="4.60785">
        <ele>688</ele>
        <time>2013-10-09T08:10:13Z</time>
      </trkpt>
      <trkpt lat="45.63007" lon="4.60785">
        <ele>678.4</ele>
        <time>2013-10-09T08:10:21Z</time>
      </trkpt>
      <trkpt lat="45.63014" lon="4.60776">
        <ele>689.7</ele>
        <time>2013-10-09T08:10:22Z</time>
      </trkpt>
      <trkpt lat="45.63019" lon="4.60772">
        <ele>690</ele>
        <time>2013-10-09T08:10:26Z</time>
      </trkpt>
      <trkpt lat="45.63025" lon="4.60772">
        <ele>690</ele>
        <time>2013-10-09T08:10:29Z</time>
      </trkpt>
      <trkpt lat="45.63025" lon="4.60772">
        <ele>678.7</ele>
        <time>2013-10-09T08:10:37Z</time>
      </trkpt>
      <trkpt lat="45.63039" lon="4.60772">
        <ele>688</ele>
        <time>2013-10-09T08:10:41Z</time>
      </trkpt>
      <trkpt lat="45.63039" lon="4.60772">
        <ele>678</ele>
        <time>2013-10-09T08:10:49Z</time>
      </trkpt>
      <trkpt lat="45.63048" lon="4.60771">
        <ele>685.6</ele>
        <time>2013-10-09T08:10:52Z</time>
      </trkpt>
      <trkpt lat="45.63054" lon="4.60773">
        <ele>684.1</ele>
        <time>2013-10-09T08:10:56Z</time>
      </trkpt>
      <trkpt lat="45.63067" lon="4.60769">
        <ele>683</ele>
        <time>2013-10-09T08:11:06Z</time>
      </trkpt>
      <trkpt lat="45.63067" lon="4.60769">
        <ele>679.2</ele>
        <time>2013-10-09T08:11:14Z</time>
      </trkpt>
      <trkpt lat="45.63081" lon="4.60774">
        <ele>683</ele>
        <time>2013-10-09T08:11:16Z</time>
      </trkpt>
      <trkpt lat="45.63085" lon="4.60778">
        <ele>682.2</ele>
        <time>2013-10-09T08:11:20Z</time>
      </trkpt>
      <trkpt lat="45.63085" lon="4.60778">
        <ele>680.6</ele>
        <time>2013-10-09T08:11:31Z</time>
      </trkpt>
      <trkpt lat="45.63096" lon="4.6079">
        <ele>679</ele>
        <time>2013-10-09T08:11:36Z</time>
      </trkpt>
      <trkpt lat="45.63101" lon="4.60795">
        <ele>679.9</ele>
        <time>2013-10-09T08:11:40Z</time>
      </trkpt>
      <trkpt lat="45.63106" lon="4.608">
        <ele>679.9</ele>
        <time>2013-10-09T08:11:43Z</time>
      </trkpt>
      <trkpt lat="45.63114" lon="4.60803">
        <ele>680.5</ele>
        <time>2013-10-09T08:11:48Z</time>
      </trkpt>
      <trkpt lat="45.63118" lon="4.60807">
        <ele>681.4</ele>
        <time>2013-10-09T08:11:51Z</time>
      </trkpt>
      <trkpt lat="45.63123" lon="4.60819">
        <ele>682</ele>
        <time>2013-10-09T08:11:58Z</time>
      </trkpt>
      <trkpt lat="45.63131" lon="4.60826">
        <ele>683</ele>
        <time>2013-10-09T08:12:06Z</time>
      </trkpt>
      <trkpt lat="45.63139" lon="4.60833">
        <ele>682.1</ele>
        <time>2013-10-09T08:12:14Z</time>
      </trkpt>
      <trkpt lat="45.63147" lon="4.60838">
        <ele>680</ele>
        <time>2013-10-09T08:12:22Z</time>
      </trkpt>
      <trkpt lat="45.63147" lon="4.60838">
        <ele>689.7</ele>
        <time>2013-10-09T08:12:30Z</time>
      </trkpt>
      <trkpt lat="45.63159" lon="4.60848">
        <ele>681</ele>
        <time>2013-10-09T08:12:35Z</time>
      </trkpt>
      <trkpt lat="45.63159" lon="4.60848">
        <ele>692.2</ele>
        <time>2013-10-09T08:12:45Z</time>
      </trkpt>
      <trkpt lat="45.63173" lon="4.60858">
        <ele>684</ele>
        <time>2013-10-09T08:12:50Z</time>
      </trkpt>
      <trkpt lat="45.63176" lon="4.60865">
        <ele>684.9</ele>
        <time>2013-10-09T08:12:58Z</time>
      </trkpt>
      <trkpt lat="45.63176" lon="4.60865">
        <ele>695.3</ele>
        <time>2013-10-09T08:13:06Z</time>
      </trkpt>
      <trkpt lat="45.63192" lon="4.60885">
        <ele>686.4</ele>
        <time>2013-10-09T08:13:15Z</time>
      </trkpt>
      <trkpt lat="45.63196" lon="4.6089">
        <ele>688.8</ele>
        <time>2013-10-09T08:13:19Z</time>
      </trkpt>
      <trkpt lat="45.63198" lon="4.60897">
        <ele>688.8</ele>
        <time>2013-10-09T08:13:23Z</time>
      </trkpt>
      <trkpt lat="45.63204" lon="4.60907">
        <ele>689</ele>
        <time>2013-10-09T08:13:29Z</time>
      </trkpt>
      <trkpt lat="45.63208" lon="4.60912">
        <ele>690.7</ele>
        <time>2013-10-09T08:13:33Z</time>
      </trkpt>
      <trkpt lat="45.63212" lon="4.60916">
        <ele>692.4</ele>
        <time>2013-10-09T08:13:37Z</time>
      </trkpt>
      <trkpt lat="45.63217" lon="4.60919">
        <ele>693.7</ele>
        <time>2013-10-09T08:13:43Z</time>
      </trkpt>
      <trkpt lat="45.6322" lon="4.60924">
        <ele>694</ele>
        <time>2013-10-09T08:13:48Z</time>
      </trkpt>
      <trkpt lat="45.63227" lon="4.60933">
        <ele>694.7</ele>
        <time>2013-10-09T08:13:55Z</time>
      </trkpt>
      <trkpt lat="45.6323" lon="4.6094">
        <ele>695</ele>
        <time>2013-10-09T08:13:59Z</time>
      </trkpt>
      <trkpt lat="45.63234" lon="4.60943">
        <ele>695</ele>
        <time>2013-10-09T08:14:04Z</time>
      </trkpt>
      <trkpt lat="45.63235" lon="4.6095">
        <ele>695</ele>
        <time>2013-10-09T08:14:09Z</time>
      </trkpt>
      <trkpt lat="45.63241" lon="4.60962">
        <ele>697.2</ele>
        <time>2013-10-09T08:14:16Z</time>
      </trkpt>
      <trkpt lat="45.63246" lon="4.60963">
        <ele>698.9</ele>
        <time>2013-10-09T08:14:21Z</time>
      </trkpt>
      <trkpt lat="45.6325" lon="4.60964">
        <ele>699</ele>
        <time>2013-10-09T08:14:25Z</time>
      </trkpt>
      <trkpt lat="45.63258" lon="4.60972">
        <ele>699</ele>
        <time>2013-10-09T08:14:33Z</time>
      </trkpt>
      <trkpt lat="45.63272" lon="4.60986">
        <ele>698.2</ele>
        <time>2013-10-09T08:14:37Z</time>
      </trkpt>
      <trkpt lat="45.63272" lon="4.60986">
        <ele>706.5</ele>
        <time>2013-10-09T08:14:45Z</time>
      </trkpt>
      <trkpt lat="45.63279" lon="4.60989">
        <ele>705</ele>
        <time>2013-10-09T08:14:47Z</time>
      </trkpt>
      <trkpt lat="45.63279" lon="4.60989">
        <ele>708.3</ele>
        <time>2013-10-09T08:14:59Z</time>
      </trkpt>
      <trkpt lat="45.63287" lon="4.61006">
        <ele>701.1</ele>
        <time>2013-10-09T08:15:01Z</time>
      </trkpt>
      <trkpt lat="45.63287" lon="4.61006">
        <ele>708.1</ele>
        <time>2013-10-09T08:15:09Z</time>
      </trkpt>
      <trkpt lat="45.63292" lon="4.61023">
        <ele>699.8</ele>
        <time>2013-10-09T08:15:12Z</time>
      </trkpt>
      <trkpt lat="45.63294" lon="4.6103">
        <ele>700</ele>
        <time>2013-10-09T08:15:16Z</time>
      </trkpt>
      <trkpt lat="45.63296" lon="4.61037">
        <ele>701</ele>
        <time>2013-10-09T08:15:21Z</time>
      </trkpt>
      <trkpt lat="45.63296" lon="4.61037">
        <ele>705.9</ele>
        <time>2013-10-09T08:15:30Z</time>
      </trkpt>
      <trkpt lat="45.63307" lon="4.61048">
        <ele>704.8</ele>
        <time>2013-10-09T08:15:32Z</time>
      </trkpt>
      <trkpt lat="45.63315" lon="4.61056">
        <ele>707.4</ele>
        <time>2013-10-09T08:15:37Z</time>
      </trkpt>
      <trkpt lat="45.63323" lon="4.61064">
        <ele>708</ele>
        <time>2013-10-09T08:15:43Z</time>
      </trkpt>
      <trkpt lat="45.63327" lon="4.61071">
        <ele>708</ele>
        <time>2013-10-09T08:15:46Z</time>
      </trkpt>
      <trkpt lat="45.63335" lon="4.61081">
        <ele>708</ele>
        <time>2013-10-09T08:15:54Z</time>
      </trkpt>
      <trkpt lat="45.63348" lon="4.61091">
        <ele>708</ele>
        <time>2013-10-09T08:16:04Z</time>
      </trkpt>
      <trkpt lat="45.6336" lon="4.61101">
        <ele>707.2</ele>
        <time>2013-10-09T08:16:11Z</time>
      </trkpt>
      <trkpt lat="45.63364" lon="4.61106">
        <ele>708</ele>
        <time>2013-10-09T08:16:14Z</time>
      </trkpt>
      <trkpt lat="45.63367" lon="4.61112">
        <ele>708</ele>
        <time>2013-10-09T08:16:18Z</time>
      </trkpt>
      <trkpt lat="45.63371" lon="4.61117">
        <ele>708</ele>
        <time>2013-10-09T08:16:22Z</time>
      </trkpt>
      <trkpt lat="45.63376" lon="4.61121">
        <ele>708</ele>
        <time>2013-10-09T08:16:26Z</time>
      </trkpt>
      <trkpt lat="45.6339" lon="4.61123">
        <ele>708</ele>
        <time>2013-10-09T08:16:36Z</time>
      </trkpt>
      <trkpt lat="45.634" lon="4.6112">
        <ele>708</ele>
        <time>2013-10-09T08:16:44Z</time>
      </trkpt>
      <trkpt lat="45.6341" lon="4.61117">
        <ele>708</ele>
        <time>2013-10-09T08:16:50Z</time>
      </trkpt>
      <trkpt lat="45.63425" lon="4.61115">
        <ele>709</ele>
        <time>2013-10-09T08:16:58Z</time>
      </trkpt>
      <trkpt lat="45.63434" lon="4.61113">
        <ele>708.2</ele>
        <time>2013-10-09T08:17:04Z</time>
      </trkpt>
      <trkpt lat="45.63434" lon="4.61113">
        <ele>697.2</ele>
        <time>2013-10-09T08:17:12Z</time>
      </trkpt>
      <trkpt lat="45.63456" lon="4.61114">
        <ele>705</ele>
        <time>2013-10-09T08:17:17Z</time>
      </trkpt>
      <trkpt lat="45.6346" lon="4.61115">
        <ele>704.8</ele>
        <time>2013-10-09T08:17:19Z</time>
      </trkpt>
      <trkpt lat="45.63465" lon="4.61117">
        <ele>704.8</ele>
        <time>2013-10-09T08:17:22Z</time>
      </trkpt>
      <trkpt lat="45.63465" lon="4.61117">
        <ele>695.3</ele>
        <time>2013-10-09T08:17:30Z</time>
      </trkpt>
      <trkpt lat="45.63474" lon="4.61122">
        <ele>705.9</ele>
        <time>2013-10-09T08:17:32Z</time>
      </trkpt>
      <trkpt lat="45.63479" lon="4.61119">
        <ele>707</ele>
        <time>2013-10-09T08:17:36Z</time>
      </trkpt>
      <trkpt lat="45.63484" lon="4.61122">
        <ele>707</ele>
        <time>2013-10-09T08:17:40Z</time>
      </trkpt>
      <trkpt lat="45.63489" lon="4.61126">
        <ele>707</ele>
        <time>2013-10-09T08:17:44Z</time>
      </trkpt>
      <trkpt lat="45.63498" lon="4.61118">
        <ele>706</ele>
        <time>2013-10-09T08:17:55Z</time>
      </trkpt>
      <trkpt lat="45.63514" lon="4.6112">
        <ele>706.8</ele>
        <time>2013-10-09T08:18:01Z</time>
      </trkpt>
      <trkpt lat="45.63519" lon="4.61124">
        <ele>707.7</ele>
        <time>2013-10-09T08:18:03Z</time>
      </trkpt>
      <trkpt lat="45.63523" lon="4.61128">
        <ele>707.7</ele>
        <time>2013-10-09T08:18:06Z</time>
      </trkpt>
      <trkpt lat="45.63526" lon="4.61132">
        <ele>708</ele>
        <time>2013-10-09T08:18:10Z</time>
      </trkpt>
      <trkpt lat="45.63527" lon="4.61139">
        <ele>708.9</ele>
        <time>2013-10-09T08:18:14Z</time>
      </trkpt>
      <trkpt lat="45.63532" lon="4.61143">
        <ele>708.5</ele>
        <time>2013-10-09T08:18:21Z</time>
      </trkpt>
      <trkpt lat="45.63536" lon="4.61145">
        <ele>707.1</ele>
        <time>2013-10-09T08:18:25Z</time>
      </trkpt>
      <trkpt lat="45.63542" lon="4.61143">
        <ele>707.1</ele>
        <time>2013-10-09T08:18:29Z</time>
      </trkpt>
      <trkpt lat="45.63542" lon="4.61143">
        <ele>688.8</ele>
        <time>2013-10-09T08:18:37Z</time>
      </trkpt>
      <trkpt lat="45.63564" lon="4.61151">
        <ele>705</ele>
        <time>2013-10-09T08:18:43Z</time>
      </trkpt>
      <trkpt lat="45.63574" lon="4.61153">
        <ele>704.1</ele>
        <time>2013-10-09T08:18:47Z</time>
      </trkpt>
      <trkpt lat="45.6358" lon="4.61154">
        <ele>704</ele>
        <time>2013-10-09T08:18:50Z</time>
      </trkpt>
      <trkpt lat="45.63587" lon="4.61154">
        <ele>704</ele>
        <time>2013-10-09T08:18:53Z</time>
      </trkpt>
      <trkpt lat="45.63587" lon="4.61154">
        <ele>685.8</ele>
        <time>2013-10-09T08:19:01Z</time>
      </trkpt>
      <trkpt lat="45.63601" lon="4.61156">
        <ele>704.5</ele>
        <time>2013-10-09T08:19:04Z</time>
      </trkpt>
      <trkpt lat="45.63606" lon="4.61159">
        <ele>703.1</ele>
        <time>2013-10-09T08:19:07Z</time>
      </trkpt>
      <trkpt lat="45.63616" lon="4.61168">
        <ele>703</ele>
        <time>2013-10-09T08:19:13Z</time>
      </trkpt>
      <trkpt lat="45.63622" lon="4.61171">
        <ele>703</ele>
        <time>2013-10-09T08:19:16Z</time>
      </trkpt>
      <trkpt lat="45.63627" lon="4.61172">
        <ele>703</ele>
        <time>2013-10-09T08:19:19Z</time>
      </trkpt>
      <trkpt lat="45.63627" lon="4.61172">
        <ele>681.6</ele>
        <time>2013-10-09T08:19:27Z</time>
      </trkpt>
      <trkpt lat="45.63642" lon="4.61177">
        <ele>700.1</ele>
        <time>2013-10-09T08:19:31Z</time>
      </trkpt>
      <trkpt lat="45.63655" lon="4.61186">
        <ele>700</ele>
        <time>2013-10-09T08:19:40Z</time>
      </trkpt>
      <trkpt lat="45.63667" lon="4.61197">
        <ele>699</ele>
        <time>2013-10-09T08:19:48Z</time>
      </trkpt>
      <trkpt lat="45.63675" lon="4.61202">
        <ele>699</ele>
        <time>2013-10-09T08:19:53Z</time>
      </trkpt>
      <trkpt lat="45.63675" lon="4.61202">
        <ele>675.3</ele>
        <time>2013-10-09T08:20:01Z</time>
      </trkpt>
      <trkpt lat="45.63688" lon="4.61212">
        <ele>696.6</ele>
        <time>2013-10-09T08:20:05Z</time>
      </trkpt>
      <trkpt lat="45.63692" lon="4.61216">
        <ele>695.1</ele>
        <time>2013-10-09T08:20:09Z</time>
      </trkpt>
      <trkpt lat="45.63697" lon="4.61217">
        <ele>695.1</ele>
        <time>2013-10-09T08:20:12Z</time>
      </trkpt>
      <trkpt lat="45.63697" lon="4.61217">
        <ele>672.4</ele>
        <time>2013-10-09T08:20:20Z</time>
      </trkpt>
      <trkpt lat="45.63711" lon="4.61219">
        <ele>691.8</ele>
        <time>2013-10-09T08:20:23Z</time>
      </trkpt>
      <trkpt lat="45.63717" lon="4.61219">
        <ele>688.5</ele>
        <time>2013-10-09T08:20:27Z</time>
      </trkpt>
      <trkpt lat="45.63722" lon="4.61222">
        <ele>688</ele>
        <time>2013-10-09T08:20:32Z</time>
      </trkpt>
      <trkpt lat="45.63727" lon="4.61224">
        <ele>688</ele>
        <time>2013-10-09T08:20:36Z</time>
      </trkpt>
      <trkpt lat="45.63732" lon="4.61223">
        <ele>688</ele>
        <time>2013-10-09T08:20:40Z</time>
      </trkpt>
      <trkpt lat="45.6374" lon="4.61224">
        <ele>685.7</ele>
        <time>2013-10-09T08:20:46Z</time>
      </trkpt>
      <trkpt lat="45.63745" lon="4.61228">
        <ele>685.7</ele>
        <time>2013-10-09T08:20:50Z</time>
      </trkpt>
      <trkpt lat="45.63749" lon="4.61231">
        <ele>685</ele>
        <time>2013-10-09T08:20:55Z</time>
      </trkpt>
      <trkpt lat="45.63756" lon="4.61232">
        <ele>685.9</ele>
        <time>2013-10-09T08:21:00Z</time>
      </trkpt>
      <trkpt lat="45.63762" lon="4.61236">
        <ele>685.9</ele>
        <time>2013-10-09T08:21:03Z</time>
      </trkpt>
      <trkpt lat="45.63765" lon="4.61241">
        <ele>686</ele>
        <time>2013-10-09T08:21:06Z</time>
      </trkpt>
      <trkpt lat="45.63769" lon="4.61243">
        <ele>686</ele>
        <time>2013-10-09T08:21:09Z</time>
      </trkpt>
      <trkpt lat="45.63779" lon="4.61247">
        <ele>684.1</ele>
        <time>2013-10-09T08:21:14Z</time>
      </trkpt>
      <trkpt lat="45.63789" lon="4.61252">
        <ele>683.5</ele>
        <time>2013-10-09T08:21:19Z</time>
      </trkpt>
      <trkpt lat="45.63798" lon="4.61255">
        <ele>683</ele>
        <time>2013-10-09T08:21:25Z</time>
      </trkpt>
      <trkpt lat="45.63798" lon="4.61255">
        <ele>660.4</ele>
        <time>2013-10-09T08:21:33Z</time>
      </trkpt>
      <trkpt lat="45.63812" lon="4.61251">
        <ele>682.1</ele>
        <time>2013-10-09T08:21:37Z</time>
      </trkpt>
      <trkpt lat="45.63819" lon="4.61246">
        <ele>682</ele>
        <time>2013-10-09T08:21:42Z</time>
      </trkpt>
      <trkpt lat="45.63831" lon="4.61234">
        <ele>683</ele>
        <time>2013-10-09T08:21:51Z</time>
      </trkpt>
      <trkpt lat="45.63839" lon="4.61227">
        <ele>682.5</ele>
        <time>2013-10-09T08:21:56Z</time>
      </trkpt>
      <trkpt lat="45.63847" lon="4.6122">
        <ele>682</ele>
        <time>2013-10-09T08:22:01Z</time>
      </trkpt>
      <trkpt lat="45.63855" lon="4.61211">
        <ele>681</ele>
        <time>2013-10-09T08:22:08Z</time>
      </trkpt>
      <trkpt lat="45.63855" lon="4.61211">
        <ele>657.6</ele>
        <time>2013-10-09T08:22:16Z</time>
      </trkpt>
      <trkpt lat="45.63862" lon="4.61194">
        <ele>677.3</ele>
        <time>2013-10-09T08:22:19Z</time>
      </trkpt>
      <trkpt lat="45.63865" lon="4.61189">
        <ele>676.1</ele>
        <time>2013-10-09T08:22:22Z</time>
      </trkpt>
      <trkpt lat="45.63867" lon="4.61184">
        <ele>676.1</ele>
        <time>2013-10-09T08:22:25Z</time>
      </trkpt>
      <trkpt lat="45.63867" lon="4.61184">
        <ele>656.7</ele>
        <time>2013-10-09T08:22:33Z</time>
      </trkpt>
      <trkpt lat="45.63874" lon="4.61166">
        <ele>674.3</ele>
        <time>2013-10-09T08:22:34Z</time>
      </trkpt>
      <trkpt lat="45.63877" lon="4.61159">
        <ele>672.6</ele>
        <time>2013-10-09T08:22:37Z</time>
      </trkpt>
      <trkpt lat="45.63878" lon="4.61151">
        <ele>672.6</ele>
        <time>2013-10-09T08:22:40Z</time>
      </trkpt>
      <trkpt lat="45.63878" lon="4.61144">
        <ele>671.3</ele>
        <time>2013-10-09T08:22:43Z</time>
      </trkpt>
      <trkpt lat="45.63876" lon="4.61138">
        <ele>671.3</ele>
        <time>2013-10-09T08:22:46Z</time>
      </trkpt>
      <trkpt lat="45.63876" lon="4.61131">
        <ele>669.6</ele>
        <time>2013-10-09T08:22:50Z</time>
      </trkpt>
      <trkpt lat="45.63877" lon="4.61116">
        <ele>668.1</ele>
        <time>2013-10-09T08:22:56Z</time>
      </trkpt>
      <trkpt lat="45.63875" lon="4.61097">
        <ele>666.3</ele>
        <time>2013-10-09T08:23:03Z</time>
      </trkpt>
      <trkpt lat="45.63871" lon="4.61085">
        <ele>665.5</ele>
        <time>2013-10-09T08:23:09Z</time>
      </trkpt>
      <trkpt lat="45.63881" lon="4.61088">
        <ele>665</ele>
        <time>2013-10-09T08:23:15Z</time>
      </trkpt>
      <trkpt lat="45.63885" lon="4.61091">
        <ele>658.8</ele>
        <time>2013-10-09T08:23:17Z</time>
      </trkpt>
      <trkpt lat="45.63889" lon="4.61097">
        <ele>658.8</ele>
        <time>2013-10-09T08:23:20Z</time>
      </trkpt>
      <trkpt lat="45.63892" lon="4.61103">
        <ele>655.7</ele>
        <time>2013-10-09T08:23:23Z</time>
      </trkpt>
      <trkpt lat="45.63893" lon="4.61109">
        <ele>655.1</ele>
        <time>2013-10-09T08:23:26Z</time>
      </trkpt>
      <trkpt lat="45.63896" lon="4.61123">
        <ele>655</ele>
        <time>2013-10-09T08:23:33Z</time>
      </trkpt>
      <trkpt lat="45.63901" lon="4.61136">
        <ele>654.8</ele>
        <time>2013-10-09T08:23:41Z</time>
      </trkpt>
      <trkpt lat="45.63905" lon="4.61141">
        <ele>655.7</ele>
        <time>2013-10-09T08:23:44Z</time>
      </trkpt>
      <trkpt lat="45.6391" lon="4.61146">
        <ele>655.7</ele>
        <time>2013-10-09T08:23:47Z</time>
      </trkpt>
      <trkpt lat="45.63915" lon="4.61151">
        <ele>656</ele>
        <time>2013-10-09T08:23:50Z</time>
      </trkpt>
      <trkpt lat="45.63917" lon="4.61157">
        <ele>656</ele>
        <time>2013-10-09T08:23:53Z</time>
      </trkpt>
      <trkpt lat="45.63919" lon="4.61164">
        <ele>655</ele>
        <time>2013-10-09T08:23:57Z</time>
      </trkpt>
      <trkpt lat="45.6392" lon="4.6117">
        <ele>652.3</ele>
        <time>2013-10-09T08:24:00Z</time>
      </trkpt>
      <trkpt lat="45.63922" lon="4.61176">
        <ele>652.3</ele>
        <time>2013-10-09T08:24:03Z</time>
      </trkpt>
      <trkpt lat="45.63926" lon="4.6119">
        <ele>652</ele>
        <time>2013-10-09T08:24:09Z</time>
      </trkpt>
      <trkpt lat="45.6393" lon="4.61195">
        <ele>650.7</ele>
        <time>2013-10-09T08:24:11Z</time>
      </trkpt>
      <trkpt lat="45.63933" lon="4.612">
        <ele>650.7</ele>
        <time>2013-10-09T08:24:13Z</time>
      </trkpt>
      <trkpt lat="45.6393" lon="4.61219">
        <ele>650.9</ele>
        <time>2013-10-09T08:24:22Z</time>
      </trkpt>
      <trkpt lat="45.63923" lon="4.61235">
        <ele>651.1</ele>
        <time>2013-10-09T08:24:30Z</time>
      </trkpt>
      <trkpt lat="45.6392" lon="4.61242">
        <ele>647.9</ele>
        <time>2013-10-09T08:24:34Z</time>
      </trkpt>
      <trkpt lat="45.6392" lon="4.61254">
        <ele>645.1</ele>
        <time>2013-10-09T08:24:39Z</time>
      </trkpt>
      <trkpt lat="45.63918" lon="4.6126">
        <ele>645.1</ele>
        <time>2013-10-09T08:24:42Z</time>
      </trkpt>
      <trkpt lat="45.63915" lon="4.61269">
        <ele>642.7</ele>
        <time>2013-10-09T08:24:47Z</time>
      </trkpt>
      <trkpt lat="45.63913" lon="4.61277">
        <ele>642.7</ele>
        <time>2013-10-09T08:24:50Z</time>
      </trkpt>
      <trkpt lat="45.63911" lon="4.61284">
        <ele>641</ele>
        <time>2013-10-09T08:24:52Z</time>
      </trkpt>
      <trkpt lat="45.63909" lon="4.61291">
        <ele>641</ele>
        <time>2013-10-09T08:24:54Z</time>
      </trkpt>
      <trkpt lat="45.63907" lon="4.61297">
        <ele>641</ele>
        <time>2013-10-09T08:24:56Z</time>
      </trkpt>
      <trkpt lat="45.63907" lon="4.61297">
        <ele>634.1</ele>
        <time>2013-10-09T08:25:04Z</time>
      </trkpt>
      <trkpt lat="45.63905" lon="4.61311">
        <ele>641.5</ele>
        <time>2013-10-09T08:25:06Z</time>
      </trkpt>
      <trkpt lat="45.63903" lon="4.61325">
        <ele>641</ele>
        <time>2013-10-09T08:25:11Z</time>
      </trkpt>
      <trkpt lat="45.63903" lon="4.61325">
        <ele>631.5</ele>
        <time>2013-10-09T08:25:19Z</time>
      </trkpt>
      <trkpt lat="45.63892" lon="4.61341">
        <ele>635</ele>
        <time>2013-10-09T08:25:27Z</time>
      </trkpt>
      <trkpt lat="45.63891" lon="4.61357">
        <ele>635.9</ele>
        <time>2013-10-09T08:25:32Z</time>
      </trkpt>
      <trkpt lat="45.63891" lon="4.61357">
        <ele>630.2</ele>
        <time>2013-10-09T08:25:40Z</time>
      </trkpt>
      <trkpt lat="45.63884" lon="4.61378">
        <ele>632.7</ele>
        <time>2013-10-09T08:25:47Z</time>
      </trkpt>
      <trkpt lat="45.63885" lon="4.61391">
        <ele>629.6</ele>
        <time>2013-10-09T08:25:53Z</time>
      </trkpt>
      <trkpt lat="45.63889" lon="4.61404">
        <ele>629</ele>
        <time>2013-10-09T08:25:58Z</time>
      </trkpt>
      <trkpt lat="45.63884" lon="4.61414">
        <ele>629.5</ele>
        <time>2013-10-09T08:26:04Z</time>
      </trkpt>
      <trkpt lat="45.63879" lon="4.61426">
        <ele>624.1</ele>
        <time>2013-10-09T08:26:14Z</time>
      </trkpt>
      <trkpt lat="45.63874" lon="4.61442">
        <ele>624</ele>
        <time>2013-10-09T08:26:20Z</time>
      </trkpt>
      <trkpt lat="45.63869" lon="4.61461">
        <ele>624</ele>
        <time>2013-10-09T08:26:28Z</time>
      </trkpt>
      <trkpt lat="45.63868" lon="4.61469">
        <ele>624</ele>
        <time>2013-10-09T08:26:33Z</time>
      </trkpt>
      <trkpt lat="45.63863" lon="4.61488">
        <ele>622.2</ele>
        <time>2013-10-09T08:26:39Z</time>
      </trkpt>
      <trkpt lat="45.63859" lon="4.615">
        <ele>622.5</ele>
        <time>2013-10-09T08:26:44Z</time>
      </trkpt>
      <trkpt lat="45.63853" lon="4.6151">
        <ele>623.9</ele>
        <time>2013-10-09T08:26:49Z</time>
      </trkpt>
      <trkpt lat="45.63853" lon="4.6151">
        <ele>624.9</ele>
        <time>2013-10-09T08:26:57Z</time>
      </trkpt>
      <trkpt lat="45.63862" lon="4.61506">
        <ele>625.9</ele>
        <time>2013-10-09T08:27:01Z</time>
      </trkpt>
      <trkpt lat="45.63867" lon="4.61503">
        <ele>627.4</ele>
        <time>2013-10-09T08:27:06Z</time>
      </trkpt>
      <trkpt lat="45.63875" lon="4.61494">
        <ele>628</ele>
        <time>2013-10-09T08:27:13Z</time>
      </trkpt>
      <trkpt lat="45.6388" lon="4.61493">
        <ele>628</ele>
        <time>2013-10-09T08:27:17Z</time>
      </trkpt>
      <trkpt lat="45.63885" lon="4.61498">
        <ele>628</ele>
        <time>2013-10-09T08:27:21Z</time>
      </trkpt>
      <trkpt lat="45.63888" lon="4.61508">
        <ele>628</ele>
        <time>2013-10-09T08:27:25Z</time>
      </trkpt>
      <trkpt lat="45.63891" lon="4.61514">
        <ele>628</ele>
        <time>2013-10-09T08:27:28Z</time>
      </trkpt>
      <trkpt lat="45.63894" lon="4.6152">
        <ele>627.2</ele>
        <time>2013-10-09T08:27:31Z</time>
      </trkpt>
      <trkpt lat="45.63896" lon="4.61527">
        <ele>627</ele>
        <time>2013-10-09T08:27:35Z</time>
      </trkpt>
      <trkpt lat="45.63896" lon="4.61535">
        <ele>627</ele>
        <time>2013-10-09T08:27:39Z</time>
      </trkpt>
      <trkpt lat="45.63899" lon="4.61541">
        <ele>627</ele>
        <time>2013-10-09T08:27:43Z</time>
      </trkpt>
      <trkpt lat="45.63898" lon="4.61548">
        <ele>627</ele>
        <time>2013-10-09T08:27:48Z</time>
      </trkpt>
      <trkpt lat="45.63899" lon="4.61554">
        <ele>627</ele>
        <time>2013-10-09T08:27:52Z</time>
      </trkpt>
      <trkpt lat="45.63902" lon="4.61561">
        <ele>628</ele>
        <time>2013-10-09T08:27:55Z</time>
      </trkpt>
      <trkpt lat="45.63906" lon="4.61567">
        <ele>628</ele>
        <time>2013-10-09T08:27:59Z</time>
      </trkpt>
      <trkpt lat="45.63908" lon="4.61575">
        <ele>628</ele>
        <time>2013-10-09T08:28:03Z</time>
      </trkpt>
      <trkpt lat="45.63908" lon="4.61575">
        <ele>632.6</ele>
        <time>2013-10-09T08:28:12Z</time>
      </trkpt>
      <trkpt lat="45.63912" lon="4.61592">
        <ele>630</ele>
        <time>2013-10-09T08:28:15Z</time>
      </trkpt>
      <trkpt lat="45.63914" lon="4.61599">
        <ele>630</ele>
        <time>2013-10-09T08:28:18Z</time>
      </trkpt>
      <trkpt lat="45.63915" lon="4.61607">
        <ele>631</ele>
        <time>2013-10-09T08:28:22Z</time>
      </trkpt>
      <trkpt lat="45.63916" lon="4.61614">
        <ele>632.9</ele>
        <time>2013-10-09T08:28:26Z</time>
      </trkpt>
      <trkpt lat="45.63913" lon="4.61627">
        <ele>633</ele>
        <time>2013-10-09T08:28:33Z</time>
      </trkpt>
      <trkpt lat="45.6391" lon="4.61634">
        <ele>631.2</ele>
        <time>2013-10-09T08:28:36Z</time>
      </trkpt>
      <trkpt lat="45.63906" lon="4.61641">
        <ele>631.2</ele>
        <time>2013-10-09T08:28:38Z</time>
      </trkpt>
      <trkpt lat="45.63903" lon="4.61647">
        <ele>631.9</ele>
        <time>2013-10-09T08:28:40Z</time>
      </trkpt>
      <trkpt lat="45.639" lon="4.61653">
        <ele>631.9</ele>
        <time>2013-10-09T08:28:42Z</time>
      </trkpt>
      <trkpt lat="45.63899" lon="4.6166">
        <ele>631.9</ele>
        <time>2013-10-09T08:28:44Z</time>
      </trkpt>
      <trkpt lat="45.63901" lon="4.61667">
        <ele>632.9</ele>
        <time>2013-10-09T08:28:47Z</time>
      </trkpt>
      <trkpt lat="45.63901" lon="4.61667">
        <ele>634.5</ele>
        <time>2013-10-09T08:28:58Z</time>
      </trkpt>
      <trkpt lat="45.63899" lon="4.6168">
        <ele>631.9</ele>
        <time>2013-10-09T08:29:01Z</time>
      </trkpt>
      <trkpt lat="45.63899" lon="4.6168">
        <ele>634.1</ele>
        <time>2013-10-09T08:29:11Z</time>
      </trkpt>
      <trkpt lat="45.63901" lon="4.61689">
        <ele>633</ele>
        <time>2013-10-09T08:29:13Z</time>
      </trkpt>
      <trkpt lat="45.63901" lon="4.61696">
        <ele>633</ele>
        <time>2013-10-09T08:29:15Z</time>
      </trkpt>
      <trkpt lat="45.63896" lon="4.61715">
        <ele>634.7</ele>
        <time>2013-10-09T08:29:22Z</time>
      </trkpt>
      <trkpt lat="45.63895" lon="4.61729">
        <ele>635</ele>
        <time>2013-10-09T08:29:27Z</time>
      </trkpt>
      <trkpt lat="45.63894" lon="4.61742">
        <ele>633.6</ele>
        <time>2013-10-09T08:29:33Z</time>
      </trkpt>
      <trkpt lat="45.63893" lon="4.6175">
        <ele>632.1</ele>
        <time>2013-10-09T08:29:37Z</time>
      </trkpt>
      <trkpt lat="45.63887" lon="4.61771">
        <ele>631.1</ele>
        <time>2013-10-09T08:29:42Z</time>
      </trkpt>
      <trkpt lat="45.63887" lon="4.61778">
        <ele>632</ele>
        <time>2013-10-09T08:29:47Z</time>
      </trkpt>
      <trkpt lat="45.63886" lon="4.61785">
        <ele>632</ele>
        <time>2013-10-09T08:29:51Z</time>
      </trkpt>
      <trkpt lat="45.63886" lon="4.61785">
        <ele>636.7</ele>
        <time>2013-10-09T08:29:59Z</time>
      </trkpt>
      <trkpt lat="45.63882" lon="4.61805">
        <ele>627</ele>
        <time>2013-10-09T08:30:06Z</time>
      </trkpt>
      <trkpt lat="45.63882" lon="4.61805">
        <ele>637.4</ele>
        <time>2013-10-09T08:30:14Z</time>
      </trkpt>
      <trkpt lat="45.63878" lon="4.61825">
        <ele>624.1</ele>
        <time>2013-10-09T08:30:18Z</time>
      </trkpt>
      <trkpt lat="45.63878" lon="4.61825">
        <ele>638.1</ele>
        <time>2013-10-09T08:30:26Z</time>
      </trkpt>
      <trkpt lat="45.6387" lon="4.6185">
        <ele>627.7</ele>
        <time>2013-10-09T08:30:32Z</time>
      </trkpt>
      <trkpt lat="45.63865" lon="4.61851">
        <ele>628</ele>
        <time>2013-10-09T08:30:36Z</time>
      </trkpt>
      <trkpt lat="45.63865" lon="4.61851">
        <ele>636.4</ele>
        <time>2013-10-09T08:30:45Z</time>
      </trkpt>
      <trkpt lat="45.63864" lon="4.61872">
        <ele>626.5</ele>
        <time>2013-10-09T08:30:47Z</time>
      </trkpt>
      <trkpt lat="45.63864" lon="4.61872">
        <ele>636.1</ele>
        <time>2013-10-09T08:30:55Z</time>
      </trkpt>
      <trkpt lat="45.63867" lon="4.61892">
        <ele>628</ele>
        <time>2013-10-09T08:30:56Z</time>
      </trkpt>
      <trkpt lat="45.63874" lon="4.619">
        <ele>628</ele>
        <time>2013-10-09T08:31:00Z</time>
      </trkpt>
      <trkpt lat="45.63886" lon="4.61913">
        <ele>628</ele>
        <time>2013-10-09T08:31:06Z</time>
      </trkpt>
      <trkpt lat="45.63888" lon="4.61919">
        <ele>628</ele>
        <time>2013-10-09T08:31:09Z</time>
      </trkpt>
      <trkpt lat="45.63891" lon="4.61938">
        <ele>628</ele>
        <time>2013-10-09T08:31:19Z</time>
      </trkpt>
      <trkpt lat="45.63896" lon="4.61956">
        <ele>628.8</ele>
        <time>2013-10-09T08:31:25Z</time>
      </trkpt>
      <trkpt lat="45.639" lon="4.61963">
        <ele>629.9</ele>
        <time>2013-10-09T08:31:28Z</time>
      </trkpt>
      <trkpt lat="45.63903" lon="4.61968">
        <ele>629.9</ele>
        <time>2013-10-09T08:31:31Z</time>
      </trkpt>
      <trkpt lat="45.63905" lon="4.61974">
        <ele>631</ele>
        <time>2013-10-09T08:31:35Z</time>
      </trkpt>
      <trkpt lat="45.63905" lon="4.61974">
        <ele>630</ele>
        <time>2013-10-09T08:31:44Z</time>
      </trkpt>
      <trkpt lat="45.63903" lon="4.61991">
        <ele>629.1</ele>
        <time>2013-10-09T08:31:46Z</time>
      </trkpt>
      <trkpt lat="45.63903" lon="4.61991">
        <ele>630</ele>
        <time>2013-10-09T08:31:55Z</time>
      </trkpt>
      <trkpt lat="45.63897" lon="4.6201">
        <ele>627.6</ele>
        <time>2013-10-09T08:31:56Z</time>
      </trkpt>
      <trkpt lat="45.63891" lon="4.6202">
        <ele>627</ele>
        <time>2013-10-09T08:32:01Z</time>
      </trkpt>
      <trkpt lat="45.63887" lon="4.62026">
        <ele>632.2</ele>
        <time>2013-10-09T08:32:04Z</time>
      </trkpt>
      <trkpt lat="45.63885" lon="4.62032">
        <ele>632.8</ele>
        <time>2013-10-09T08:32:08Z</time>
      </trkpt>
      <trkpt lat="45.63881" lon="4.62038">
        <ele>632.2</ele>
        <time>2013-10-09T08:32:13Z</time>
      </trkpt>
      <trkpt lat="45.63878" lon="4.62044">
        <ele>632.5</ele>
        <time>2013-10-09T08:32:19Z</time>
      </trkpt>
      <trkpt lat="45.63878" lon="4.62044">
        <ele>628.3</ele>
        <time>2013-10-09T08:32:27Z</time>
      </trkpt>
      <trkpt lat="45.63869" lon="4.6206">
        <ele>631.5</ele>
        <time>2013-10-09T08:32:28Z</time>
      </trkpt>
      <trkpt lat="45.63869" lon="4.6206">
        <ele>627.9</ele>
        <time>2013-10-09T08:32:36Z</time>
      </trkpt>
      <trkpt lat="45.63857" lon="4.62078">
        <ele>624.2</ele>
        <time>2013-10-09T08:32:40Z</time>
      </trkpt>
      <trkpt lat="45.63852" lon="4.62081">
        <ele>624</ele>
        <time>2013-10-09T08:32:44Z</time>
      </trkpt>
      <trkpt lat="45.63846" lon="4.62085">
        <ele>623.3</ele>
        <time>2013-10-09T08:32:50Z</time>
      </trkpt>
      <trkpt lat="45.63842" lon="4.62091">
        <ele>621</ele>
        <time>2013-10-09T08:32:54Z</time>
      </trkpt>
      <trkpt lat="45.63833" lon="4.62107">
        <ele>621</ele>
        <time>2013-10-09T08:33:03Z</time>
      </trkpt>
      <trkpt lat="45.63828" lon="4.62113">
        <ele>621</ele>
        <time>2013-10-09T08:33:07Z</time>
      </trkpt>
      <trkpt lat="45.63824" lon="4.62116">
        <ele>621</ele>
        <time>2013-10-09T08:33:12Z</time>
      </trkpt>
      <trkpt lat="45.63816" lon="4.62131">
        <ele>620.5</ele>
        <time>2013-10-09T08:33:22Z</time>
      </trkpt>
      <trkpt lat="45.63816" lon="4.62131">
        <ele>625.5</ele>
        <time>2013-10-09T08:33:30Z</time>
      </trkpt>
      <trkpt lat="45.63809" lon="4.62149">
        <ele>617.8</ele>
        <time>2013-10-09T08:33:31Z</time>
      </trkpt>
      <trkpt lat="45.63808" lon="4.62156">
        <ele>616.3</ele>
        <time>2013-10-09T08:33:34Z</time>
      </trkpt>
      <trkpt lat="45.63802" lon="4.62174">
        <ele>616</ele>
        <time>2013-10-09T08:33:42Z</time>
      </trkpt>
      <trkpt lat="45.63799" lon="4.62181">
        <ele>615.5</ele>
        <time>2013-10-09T08:33:46Z</time>
      </trkpt>
      <trkpt lat="45.63796" lon="4.62187">
        <ele>615</ele>
        <time>2013-10-09T08:33:49Z</time>
      </trkpt>
      <trkpt lat="45.63794" lon="4.62194">
        <ele>615</ele>
        <time>2013-10-09T08:33:52Z</time>
      </trkpt>
      <trkpt lat="45.63792" lon="4.622">
        <ele>613.5</ele>
        <time>2013-10-09T08:33:56Z</time>
      </trkpt>
      <trkpt lat="45.63788" lon="4.62205">
        <ele>612.5</ele>
        <time>2013-10-09T08:34:01Z</time>
      </trkpt>
      <trkpt lat="45.63785" lon="4.62209">
        <ele>612</ele>
        <time>2013-10-09T08:34:05Z</time>
      </trkpt>
      <trkpt lat="45.63781" lon="4.62212">
        <ele>612</ele>
        <time>2013-10-09T08:34:09Z</time>
      </trkpt>
      <trkpt lat="45.63776" lon="4.62224">
        <ele>612.5</ele>
        <time>2013-10-09T08:34:14Z</time>
      </trkpt>
      <trkpt lat="45.63771" lon="4.62231">
        <ele>613</ele>
        <time>2013-10-09T08:34:18Z</time>
      </trkpt>
      <trkpt lat="45.63769" lon="4.62237">
        <ele>613</ele>
        <time>2013-10-09T08:34:22Z</time>
      </trkpt>
      <trkpt lat="45.63765" lon="4.62241">
        <ele>612.1</ele>
        <time>2013-10-09T08:34:26Z</time>
      </trkpt>
      <trkpt lat="45.63761" lon="4.62244">
        <ele>612</ele>
        <time>2013-10-09T08:34:30Z</time>
      </trkpt>
      <trkpt lat="45.63752" lon="4.62262">
        <ele>613.9</ele>
        <time>2013-10-09T08:34:40Z</time>
      </trkpt>
      <trkpt lat="45.63748" lon="4.62266">
        <ele>616.2</ele>
        <time>2013-10-09T08:34:43Z</time>
      </trkpt>
      <trkpt lat="45.63746" lon="4.62273">
        <ele>616.2</ele>
        <time>2013-10-09T08:34:46Z</time>
      </trkpt>
      <trkpt lat="45.63744" lon="4.6228">
        <ele>617</ele>
        <time>2013-10-09T08:34:50Z</time>
      </trkpt>
      <trkpt lat="45.63739" lon="4.62292">
        <ele>610.1</ele>
        <time>2013-10-09T08:34:58Z</time>
      </trkpt>
      <trkpt lat="45.63739" lon="4.62292">
        <ele>623.3</ele>
        <time>2013-10-09T08:35:06Z</time>
      </trkpt>
      <trkpt lat="45.63733" lon="4.62311">
        <ele>610.3</ele>
        <time>2013-10-09T08:35:07Z</time>
      </trkpt>
      <trkpt lat="45.63731" lon="4.62317">
        <ele>611</ele>
        <time>2013-10-09T08:35:10Z</time>
      </trkpt>
      <trkpt lat="45.63728" lon="4.62323">
        <ele>611</ele>
        <time>2013-10-09T08:35:14Z</time>
      </trkpt>
      <trkpt lat="45.63729" lon="4.62332">
        <ele>609.3</ele>
        <time>2013-10-09T08:35:21Z</time>
      </trkpt>
      <trkpt lat="45.63728" lon="4.62338">
        <ele>609.3</ele>
        <time>2013-10-09T08:35:24Z</time>
      </trkpt>
      <trkpt lat="45.63726" lon="4.62353">
        <ele>607.5</ele>
        <time>2013-10-09T08:35:30Z</time>
      </trkpt>
      <trkpt lat="45.63724" lon="4.6236">
        <ele>606</ele>
        <time>2013-10-09T08:35:33Z</time>
      </trkpt>
      <trkpt lat="45.63728" lon="4.62364">
        <ele>606</ele>
        <time>2013-10-09T08:35:36Z</time>
      </trkpt>
      <trkpt lat="45.63732" lon="4.62369">
        <ele>605</ele>
        <time>2013-10-09T08:35:39Z</time>
      </trkpt>
      <trkpt lat="45.63738" lon="4.62381">
        <ele>605</ele>
        <time>2013-10-09T08:35:44Z</time>
      </trkpt>
      <trkpt lat="45.63742" lon="4.62391">
        <ele>607.8</ele>
        <time>2013-10-09T08:35:48Z</time>
      </trkpt>
      <trkpt lat="45.6374" lon="4.62397">
        <ele>610</ele>
        <time>2013-10-09T08:35:53Z</time>
      </trkpt>
      <trkpt lat="45.63741" lon="4.62404">
        <ele>611</ele>
        <time>2013-10-09T08:35:58Z</time>
      </trkpt>
      <trkpt lat="45.63742" lon="4.62413">
        <ele>611</ele>
        <time>2013-10-09T08:36:02Z</time>
      </trkpt>
      <trkpt lat="45.63741" lon="4.6242">
        <ele>611</ele>
        <time>2013-10-09T08:36:05Z</time>
      </trkpt>
      <trkpt lat="45.63739" lon="4.62433">
        <ele>611</ele>
        <time>2013-10-09T08:36:10Z</time>
      </trkpt>
      <trkpt lat="45.63739" lon="4.62433">
        <ele>613.4</ele>
        <time>2013-10-09T08:36:18Z</time>
      </trkpt>
      <trkpt lat="45.63735" lon="4.62453">
        <ele>609.3</ele>
        <time>2013-10-09T08:36:21Z</time>
      </trkpt>
      <trkpt lat="45.63735" lon="4.62453">
        <ele>613</ele>
        <time>2013-10-09T08:36:29Z</time>
      </trkpt>
      <trkpt lat="45.63728" lon="4.62464">
        <ele>610</ele>
        <time>2013-10-09T08:36:31Z</time>
      </trkpt>
      <trkpt lat="45.63726" lon="4.62471">
        <ele>610</ele>
        <time>2013-10-09T08:36:34Z</time>
      </trkpt>
      <trkpt lat="45.63722" lon="4.62477">
        <ele>610</ele>
        <time>2013-10-09T08:36:37Z</time>
      </trkpt>
      <trkpt lat="45.63717" lon="4.62481">
        <ele>610</ele>
        <time>2013-10-09T08:36:46Z</time>
      </trkpt>
      <trkpt lat="45.63713" lon="4.62485">
        <ele>610</ele>
        <time>2013-10-09T08:36:49Z</time>
      </trkpt>
      <trkpt lat="45.63709" lon="4.62489">
        <ele>610</ele>
        <time>2013-10-09T08:36:52Z</time>
      </trkpt>
      <trkpt lat="45.63705" lon="4.62493">
        <ele>607.4</ele>
        <time>2013-10-09T08:36:55Z</time>
      </trkpt>
      <trkpt lat="45.63697" lon="4.62498">
        <ele>606</ele>
        <time>2013-10-09T08:37:01Z</time>
      </trkpt>
      <trkpt lat="45.63693" lon="4.62504">
        <ele>606</ele>
        <time>2013-10-09T08:37:04Z</time>
      </trkpt>
      <trkpt lat="45.63691" lon="4.6251">
        <ele>606</ele>
        <time>2013-10-09T08:37:06Z</time>
      </trkpt>
      <trkpt lat="45.63691" lon="4.6251">
        <ele>609.7</ele>
        <time>2013-10-09T08:37:15Z</time>
      </trkpt>
      <trkpt lat="45.63686" lon="4.6253">
        <ele>608</ele>
        <time>2013-10-09T08:37:18Z</time>
      </trkpt>
      <trkpt lat="45.63684" lon="4.62542">
        <ele>608.9</ele>
        <time>2013-10-09T08:37:25Z</time>
      </trkpt>
      <trkpt lat="45.63684" lon="4.62542">
        <ele>612.1</ele>
        <time>2013-10-09T08:37:33Z</time>
      </trkpt>
      <trkpt lat="45.63674" lon="4.62558">
        <ele>608</ele>
        <time>2013-10-09T08:37:35Z</time>
      </trkpt>
      <trkpt lat="45.6367" lon="4.62564">
        <ele>621.7</ele>
        <time>2013-10-09T08:37:38Z</time>
      </trkpt>
      <trkpt lat="45.6367" lon="4.62564">
        <ele>610.5</ele>
        <time>2013-10-09T08:37:49Z</time>
      </trkpt>
      <trkpt lat="45.63667" lon="4.62583">
        <ele>612.9</ele>
        <time>2013-10-09T08:37:51Z</time>
      </trkpt>
      <trkpt lat="45.63665" lon="4.6259">
        <ele>612.9</ele>
        <time>2013-10-09T08:37:54Z</time>
      </trkpt>
      <trkpt lat="45.63665" lon="4.6259">
        <ele>610.5</ele>
        <time>2013-10-09T08:38:02Z</time>
      </trkpt>
      <trkpt lat="45.63657" lon="4.62609">
        <ele>607.3</ele>
        <time>2013-10-09T08:38:06Z</time>
      </trkpt>
      <trkpt lat="45.63652" lon="4.62628">
        <ele>605</ele>
        <time>2013-10-09T08:38:15Z</time>
      </trkpt>
      <trkpt lat="45.63652" lon="4.62628">
        <ele>608.7</ele>
        <time>2013-10-09T08:38:23Z</time>
      </trkpt>
      <trkpt lat="45.63647" lon="4.62646">
        <ele>603.2</ele>
        <time>2013-10-09T08:38:24Z</time>
      </trkpt>
      <trkpt lat="45.63644" lon="4.62654">
        <ele>602.3</ele>
        <time>2013-10-09T08:38:29Z</time>
      </trkpt>
      <trkpt lat="45.63642" lon="4.62667">
        <ele>602</ele>
        <time>2013-10-09T08:38:36Z</time>
      </trkpt>
      <trkpt lat="45.63633" lon="4.62685">
        <ele>599.1</ele>
        <time>2013-10-09T08:38:47Z</time>
      </trkpt>
      <trkpt lat="45.6363" lon="4.62693">
        <ele>600</ele>
        <time>2013-10-09T08:38:51Z</time>
      </trkpt>
      <trkpt lat="45.63628" lon="4.627">
        <ele>590.5</ele>
        <time>2013-10-09T08:38:58Z</time>
      </trkpt>
      <trkpt lat="45.63624" lon="4.62702">
        <ele>587.1</ele>
        <time>2013-10-09T08:39:02Z</time>
      </trkpt>
      <trkpt lat="45.63619" lon="4.62707">
        <ele>583.9</ele>
        <time>2013-10-09T08:39:07Z</time>
      </trkpt>
      <trkpt lat="45.63616" lon="4.62713">
        <ele>582.5</ele>
        <time>2013-10-09T08:39:10Z</time>
      </trkpt>
      <trkpt lat="45.63606" lon="4.62728">
        <ele>580.1</ele>
        <time>2013-10-09T08:39:21Z</time>
      </trkpt>
      <trkpt lat="45.63606" lon="4.62728">
        <ele>597</ele>
        <time>2013-10-09T08:39:29Z</time>
      </trkpt>
      <trkpt lat="45.63597" lon="4.62744">
        <ele>579</ele>
        <time>2013-10-09T08:39:32Z</time>
      </trkpt>
      <trkpt lat="45.63594" lon="4.62751">
        <ele>579</ele>
        <time>2013-10-09T08:39:35Z</time>
      </trkpt>
      <trkpt lat="45.63591" lon="4.62759">
        <ele>579</ele>
        <time>2013-10-09T08:39:38Z</time>
      </trkpt>
      <trkpt lat="45.63588" lon="4.62772">
        <ele>578.5</ele>
        <time>2013-10-09T08:39:43Z</time>
      </trkpt>
      <trkpt lat="45.63585" lon="4.62782">
        <ele>578.9</ele>
        <time>2013-10-09T08:39:47Z</time>
      </trkpt>
      <trkpt lat="45.63583" lon="4.62788">
        <ele>579</ele>
        <time>2013-10-09T08:39:52Z</time>
      </trkpt>
      <trkpt lat="45.63583" lon="4.6281">
        <ele>579</ele>
        <time>2013-10-09T08:40:03Z</time>
      </trkpt>
      <trkpt lat="45.6358" lon="4.62823">
        <ele>580</ele>
        <time>2013-10-09T08:40:09Z</time>
      </trkpt>
      <trkpt lat="45.63578" lon="4.62831">
        <ele>579.1</ele>
        <time>2013-10-09T08:40:13Z</time>
      </trkpt>
      <trkpt lat="45.63578" lon="4.62839">
        <ele>579.1</ele>
        <time>2013-10-09T08:40:17Z</time>
      </trkpt>
      <trkpt lat="45.63574" lon="4.62855">
        <ele>579</ele>
        <time>2013-10-09T08:40:24Z</time>
      </trkpt>
      <trkpt lat="45.63573" lon="4.62872">
        <ele>579</ele>
        <time>2013-10-09T08:40:31Z</time>
      </trkpt>
      <trkpt lat="45.63571" lon="4.6288">
        <ele>579.4</ele>
        <time>2013-10-09T08:40:34Z</time>
      </trkpt>
      <trkpt lat="45.63568" lon="4.62886">
        <ele>579</ele>
        <time>2013-10-09T08:40:38Z</time>
      </trkpt>
      <trkpt lat="45.6356" lon="4.62902">
        <ele>579</ele>
        <time>2013-10-09T08:40:47Z</time>
      </trkpt>
      <trkpt lat="45.63557" lon="4.62907">
        <ele>578.1</ele>
        <time>2013-10-09T08:40:50Z</time>
      </trkpt>
      <trkpt lat="45.63554" lon="4.62913">
        <ele>578.1</ele>
        <time>2013-10-09T08:40:53Z</time>
      </trkpt>
      <trkpt lat="45.6355" lon="4.6292">
        <ele>578</ele>
        <time>2013-10-09T08:40:58Z</time>
      </trkpt>
      <trkpt lat="45.63546" lon="4.62926">
        <ele>577.1</ele>
        <time>2013-10-09T08:41:02Z</time>
      </trkpt>
      <trkpt lat="45.63544" lon="4.62932">
        <ele>577</ele>
        <time>2013-10-09T08:41:07Z</time>
      </trkpt>
      <trkpt lat="45.63543" lon="4.62939">
        <ele>575.3</ele>
        <time>2013-10-09T08:41:12Z</time>
      </trkpt>
      <trkpt lat="45.63541" lon="4.62946">
        <ele>575.3</ele>
        <time>2013-10-09T08:41:16Z</time>
      </trkpt>
      <trkpt lat="45.63537" lon="4.62959">
        <ele>574.6</ele>
        <time>2013-10-09T08:41:22Z</time>
      </trkpt>
      <trkpt lat="45.63535" lon="4.62966">
        <ele>575</ele>
        <time>2013-10-09T08:41:26Z</time>
      </trkpt>
      <trkpt lat="45.63533" lon="4.62976">
        <ele>575</ele>
        <time>2013-10-09T08:41:30Z</time>
      </trkpt>
      <trkpt lat="45.63533" lon="4.62976">
        <ele>566.8</ele>
        <time>2013-10-09T08:41:38Z</time>
      </trkpt>
      <trkpt lat="45.63529" lon="4.62996">
        <ele>567.1</ele>
        <time>2013-10-09T08:41:42Z</time>
      </trkpt>
      <trkpt lat="45.63525" lon="4.63002">
        <ele>566.5</ele>
        <time>2013-10-09T08:41:46Z</time>
      </trkpt>
      <trkpt lat="45.63525" lon="4.63002">
        <ele>562.7</ele>
        <time>2013-10-09T08:41:56Z</time>
      </trkpt>
      <trkpt lat="45.63525" lon="4.63015">
        <ele>565.9</ele>
        <time>2013-10-09T08:42:01Z</time>
      </trkpt>
      <trkpt lat="45.63525" lon="4.63015">
        <ele>561.3</ele>
        <time>2013-10-09T08:42:10Z</time>
      </trkpt>
      <trkpt lat="45.63537" lon="4.63025">
        <ele>564</ele>
        <time>2013-10-09T08:42:11Z</time>
      </trkpt>
      <trkpt lat="45.63542" lon="4.63028">
        <ele>564</ele>
        <time>2013-10-09T08:42:15Z</time>
      </trkpt>
      <trkpt lat="45.63546" lon="4.63032">
        <ele>564</ele>
        <time>2013-10-09T08:42:19Z</time>
      </trkpt>
      <trkpt lat="45.63555" lon="4.63037">
        <ele>563.2</ele>
        <time>2013-10-09T08:42:27Z</time>
      </trkpt>
      <trkpt lat="45.63559" lon="4.63041">
        <ele>563</ele>
        <time>2013-10-09T08:42:30Z</time>
      </trkpt>
      <trkpt lat="45.63564" lon="4.63042">
        <ele>563</ele>
        <time>2013-10-09T08:42:34Z</time>
      </trkpt>
      <trkpt lat="45.63569" lon="4.63044">
        <ele>563</ele>
        <time>2013-10-09T08:42:38Z</time>
      </trkpt>
      <trkpt lat="45.63578" lon="4.63046">
        <ele>563</ele>
        <time>2013-10-09T08:42:48Z</time>
      </trkpt>
      <trkpt lat="45.63587" lon="4.63054">
        <ele>562</ele>
        <time>2013-10-09T08:42:55Z</time>
      </trkpt>
      <trkpt lat="45.63591" lon="4.63058">
        <ele>561.3</ele>
        <time>2013-10-09T08:42:58Z</time>
      </trkpt>
      <trkpt lat="45.63599" lon="4.63074">
        <ele>557.3</ele>
        <time>2013-10-09T08:43:07Z</time>
      </trkpt>
      <trkpt lat="45.636" lon="4.63081">
        <ele>552.9</ele>
        <time>2013-10-09T08:43:10Z</time>
      </trkpt>
      <trkpt lat="45.63602" lon="4.63093">
        <ele>552</ele>
        <time>2013-10-09T08:43:15Z</time>
      </trkpt>
      <trkpt lat="45.63608" lon="4.63104">
        <ele>552.5</ele>
        <time>2013-10-09T08:43:20Z</time>
      </trkpt>
      <trkpt lat="45.63609" lon="4.63112">
        <ele>553</ele>
        <time>2013-10-09T08:43:24Z</time>
      </trkpt>
      <trkpt lat="45.63608" lon="4.63118">
        <ele>549.2</ele>
        <time>2013-10-09T08:43:29Z</time>
      </trkpt>
      <trkpt lat="45.63603" lon="4.6313">
        <ele>546.5</ele>
        <time>2013-10-09T08:43:37Z</time>
      </trkpt>
      <trkpt lat="45.63596" lon="4.63141">
        <ele>542.5</ele>
        <time>2013-10-09T08:43:43Z</time>
      </trkpt>
      <trkpt lat="45.63594" lon="4.63148">
        <ele>541.1</ele>
        <time>2013-10-09T08:43:47Z</time>
      </trkpt>
      <trkpt lat="45.63593" lon="4.63163">
        <ele>541</ele>
        <time>2013-10-09T08:43:55Z</time>
      </trkpt>
      <trkpt lat="45.63593" lon="4.63171">
        <ele>540.1</ele>
        <time>2013-10-09T08:43:59Z</time>
      </trkpt>
      <trkpt lat="45.63591" lon="4.63186">
        <ele>540.9</ele>
        <time>2013-10-09T08:44:07Z</time>
      </trkpt>
      <trkpt lat="45.63588" lon="4.63193">
        <ele>541</ele>
        <time>2013-10-09T08:44:11Z</time>
      </trkpt>
      <trkpt lat="45.63588" lon="4.632">
        <ele>536.9</ele>
        <time>2013-10-09T08:44:16Z</time>
      </trkpt>
      <trkpt lat="45.63585" lon="4.63207">
        <ele>536.9</ele>
        <time>2013-10-09T08:44:20Z</time>
      </trkpt>
      <trkpt lat="45.63581" lon="4.63215">
        <ele>534.1</ele>
        <time>2013-10-09T08:44:24Z</time>
      </trkpt>
      <trkpt lat="45.63577" lon="4.63221">
        <ele>534.1</ele>
        <time>2013-10-09T08:44:28Z</time>
      </trkpt>
      <trkpt lat="45.63575" lon="4.63227">
        <ele>530.4</ele>
        <time>2013-10-09T08:44:32Z</time>
      </trkpt>
      <trkpt lat="45.63575" lon="4.63227">
        <ele>533.2</ele>
        <time>2013-10-09T08:44:42Z</time>
      </trkpt>
      <trkpt lat="45.63575" lon="4.63227">
        <ele>533.2</ele>
        <time>2013-10-09T08:44:55Z</time>
      </trkpt>
      <trkpt lat="45.6357" lon="4.63241">
        <ele>530</ele>
        <time>2013-10-09T08:44:58Z</time>
      </trkpt>
      <trkpt lat="45.63567" lon="4.63247">
        <ele>530</ele>
        <time>2013-10-09T08:45:01Z</time>
      </trkpt>
      <trkpt lat="45.63565" lon="4.63254">
        <ele>530</ele>
        <time>2013-10-09T08:45:04Z</time>
      </trkpt>
      <trkpt lat="45.63563" lon="4.63261">
        <ele>530</ele>
        <time>2013-10-09T08:45:07Z</time>
      </trkpt>
      <trkpt lat="45.6356" lon="4.63268">
        <ele>530</ele>
        <time>2013-10-09T08:45:11Z</time>
      </trkpt>
      <trkpt lat="45.63556" lon="4.63285">
        <ele>526.6</ele>
        <time>2013-10-09T08:45:20Z</time>
      </trkpt>
      <trkpt lat="45.63555" lon="4.63298">
        <ele>525</ele>
        <time>2013-10-09T08:45:26Z</time>
      </trkpt>
      <trkpt lat="45.63554" lon="4.63312">
        <ele>525</ele>
        <time>2013-10-09T08:45:32Z</time>
      </trkpt>
      <trkpt lat="45.63554" lon="4.6332">
        <ele>521.7</ele>
        <time>2013-10-09T08:45:35Z</time>
      </trkpt>
      <trkpt lat="45.63553" lon="4.6333">
        <ele>520.1</ele>
        <time>2013-10-09T08:45:41Z</time>
      </trkpt>
      <trkpt lat="45.63551" lon="4.63337">
        <ele>519</ele>
        <time>2013-10-09T08:45:46Z</time>
      </trkpt>
      <trkpt lat="45.63546" lon="4.6335">
        <ele>518.1</ele>
        <time>2013-10-09T08:45:52Z</time>
      </trkpt>
      <trkpt lat="45.6354" lon="4.63359">
        <ele>518</ele>
        <time>2013-10-09T08:45:57Z</time>
      </trkpt>
      <trkpt lat="45.63533" lon="4.63378">
        <ele>516.3</ele>
        <time>2013-10-09T08:46:05Z</time>
      </trkpt>
      <trkpt lat="45.6353" lon="4.63385">
        <ele>515.3</ele>
        <time>2013-10-09T08:46:08Z</time>
      </trkpt>
      <trkpt lat="45.63525" lon="4.63395">
        <ele>513.4</ele>
        <time>2013-10-09T08:46:13Z</time>
      </trkpt>
      <trkpt lat="45.63523" lon="4.63402">
        <ele>513</ele>
        <time>2013-10-09T08:46:16Z</time>
      </trkpt>
      <trkpt lat="45.63521" lon="4.63408">
        <ele>513</ele>
        <time>2013-10-09T08:46:19Z</time>
      </trkpt>
      <trkpt lat="45.63513" lon="4.6342">
        <ele>514.6</ele>
        <time>2013-10-09T08:46:25Z</time>
      </trkpt>
      <trkpt lat="45.63511" lon="4.63427">
        <ele>516.8</ele>
        <time>2013-10-09T08:46:28Z</time>
      </trkpt>
      <trkpt lat="45.6351" lon="4.63434">
        <ele>517.5</ele>
        <time>2013-10-09T08:46:32Z</time>
      </trkpt>
      <trkpt lat="45.63509" lon="4.63442">
        <ele>517.5</ele>
        <time>2013-10-09T08:46:35Z</time>
      </trkpt>
      <trkpt lat="45.63509" lon="4.63442">
        <ele>513.4</ele>
        <time>2013-10-09T08:46:43Z</time>
      </trkpt>
      <trkpt lat="45.63504" lon="4.63462">
        <ele>519</ele>
        <time>2013-10-09T08:46:46Z</time>
      </trkpt>
      <trkpt lat="45.63504" lon="4.63462">
        <ele>512.3</ele>
        <time>2013-10-09T08:46:56Z</time>
      </trkpt>
      <trkpt lat="45.63502" lon="4.63482">
        <ele>516.5</ele>
        <time>2013-10-09T08:46:57Z</time>
      </trkpt>
      <trkpt lat="45.63501" lon="4.63489">
        <ele>517.5</ele>
        <time>2013-10-09T08:47:01Z</time>
      </trkpt>
      <trkpt lat="45.63501" lon="4.63496">
        <ele>517.5</ele>
        <time>2013-10-09T08:47:05Z</time>
      </trkpt>
      <trkpt lat="45.635" lon="4.63502">
        <ele>516.1</ele>
        <time>2013-10-09T08:47:08Z</time>
      </trkpt>
      <trkpt lat="45.63496" lon="4.63514">
        <ele>516</ele>
        <time>2013-10-09T08:47:14Z</time>
      </trkpt>
      <trkpt lat="45.63492" lon="4.63533">
        <ele>514.2</ele>
        <time>2013-10-09T08:47:23Z</time>
      </trkpt>
      <trkpt lat="45.63487" lon="4.63545">
        <ele>513.9</ele>
        <time>2013-10-09T08:47:29Z</time>
      </trkpt>
      <trkpt lat="45.63486" lon="4.63559">
        <ele>514</ele>
        <time>2013-10-09T08:47:34Z</time>
      </trkpt>
      <trkpt lat="45.63483" lon="4.63566">
        <ele>515</ele>
        <time>2013-10-09T08:47:37Z</time>
      </trkpt>
      <trkpt lat="45.6348" lon="4.63581">
        <ele>513.6</ele>
        <time>2013-10-09T08:47:43Z</time>
      </trkpt>
      <trkpt lat="45.6348" lon="4.63581">
        <ele>508</ele>
        <time>2013-10-09T08:47:51Z</time>
      </trkpt>
      <trkpt lat="45.63478" lon="4.63603">
        <ele>511.5</ele>
        <time>2013-10-09T08:47:52Z</time>
      </trkpt>
      <trkpt lat="45.63478" lon="4.63603">
        <ele>507.6</ele>
        <time>2013-10-09T08:48:00Z</time>
      </trkpt>
      <trkpt lat="45.63474" lon="4.63622">
        <ele>509.2</ele>
        <time>2013-10-09T08:48:03Z</time>
      </trkpt>
      <trkpt lat="45.63474" lon="4.63622">
        <ele>506.2</ele>
        <time>2013-10-09T08:48:11Z</time>
      </trkpt>
      <trkpt lat="45.63471" lon="4.63641">
        <ele>504.4</ele>
        <time>2013-10-09T08:48:16Z</time>
      </trkpt>
      <trkpt lat="45.63472" lon="4.63648">
        <ele>498.9</ele>
        <time>2013-10-09T08:48:23Z</time>
      </trkpt>
      <trkpt lat="45.6347" lon="4.63655">
        <ele>495.3</ele>
        <time>2013-10-09T08:48:26Z</time>
      </trkpt>
      <trkpt lat="45.63468" lon="4.63661">
        <ele>494.3</ele>
        <time>2013-10-09T08:48:29Z</time>
      </trkpt>
      <trkpt lat="45.63465" lon="4.63667">
        <ele>494</ele>
        <time>2013-10-09T08:48:32Z</time>
      </trkpt>
      <trkpt lat="45.63461" lon="4.63674">
        <ele>494</ele>
        <time>2013-10-09T08:48:36Z</time>
      </trkpt>
      <trkpt lat="45.63459" lon="4.6368">
        <ele>494</ele>
        <time>2013-10-09T08:48:39Z</time>
      </trkpt>
      <trkpt lat="45.63457" lon="4.63686">
        <ele>493.3</ele>
        <time>2013-10-09T08:48:42Z</time>
      </trkpt>
      <trkpt lat="45.63456" lon="4.63694">
        <ele>493.3</ele>
        <time>2013-10-09T08:48:45Z</time>
      </trkpt>
      <trkpt lat="45.63456" lon="4.63713">
        <ele>493</ele>
        <time>2013-10-09T08:48:52Z</time>
      </trkpt>
      <trkpt lat="45.63456" lon="4.63724">
        <ele>493</ele>
        <time>2013-10-09T08:48:57Z</time>
      </trkpt>
      <trkpt lat="45.63455" lon="4.63731">
        <ele>493</ele>
        <time>2013-10-09T08:49:01Z</time>
      </trkpt>
      <trkpt lat="45.63455" lon="4.63751">
        <ele>491.5</ele>
        <time>2013-10-09T08:49:10Z</time>
      </trkpt>
      <trkpt lat="45.63454" lon="4.63765">
        <ele>490.1</ele>
        <time>2013-10-09T08:49:16Z</time>
      </trkpt>
      <trkpt lat="45.63454" lon="4.63765">
        <ele>489.7</ele>
        <time>2013-10-09T08:49:25Z</time>
      </trkpt>
      <trkpt lat="45.63448" lon="4.63783">
        <ele>490</ele>
        <time>2013-10-09T08:49:26Z</time>
      </trkpt>
      <trkpt lat="45.63445" lon="4.63789">
        <ele>487</ele>
        <time>2013-10-09T08:49:29Z</time>
      </trkpt>
      <trkpt lat="45.63435" lon="4.63798">
        <ele>482.6</ele>
        <time>2013-10-09T08:49:38Z</time>
      </trkpt>
      <trkpt lat="45.63428" lon="4.63806">
        <ele>482</ele>
        <time>2013-10-09T08:49:44Z</time>
      </trkpt>
      <trkpt lat="45.63416" lon="4.63817">
        <ele>479.8</ele>
        <time>2013-10-09T08:49:52Z</time>
      </trkpt>
      <trkpt lat="45.63416" lon="4.63817">
        <ele>479.6</ele>
        <time>2013-10-09T08:50:00Z</time>
      </trkpt>
      <trkpt lat="45.63403" lon="4.63824">
        <ele>476.1</ele>
        <time>2013-10-09T08:50:02Z</time>
      </trkpt>
      <trkpt lat="45.63403" lon="4.63824">
        <ele>478.2</ele>
        <time>2013-10-09T08:50:10Z</time>
      </trkpt>
      <trkpt lat="45.63392" lon="4.63838">
        <ele>472</ele>
        <time>2013-10-09T08:50:12Z</time>
      </trkpt>
      <trkpt lat="45.63392" lon="4.63838">
        <ele>477.2</ele>
        <time>2013-10-09T08:50:20Z</time>
      </trkpt>
      <trkpt lat="45.6338" lon="4.6385">
        <ele>469.1</ele>
        <time>2013-10-09T08:50:22Z</time>
      </trkpt>
      <trkpt lat="45.63376" lon="4.63855">
        <ele>468.1</ele>
        <time>2013-10-09T08:50:27Z</time>
      </trkpt>
      <trkpt lat="45.63369" lon="4.63863">
        <ele>469.9</ele>
        <time>2013-10-09T08:50:32Z</time>
      </trkpt>
      <trkpt lat="45.63364" lon="4.63867">
        <ele>471</ele>
        <time>2013-10-09T08:50:36Z</time>
      </trkpt>
      <trkpt lat="45.63353" lon="4.6388">
        <ele>467.2</ele>
        <time>2013-10-09T08:50:45Z</time>
      </trkpt>
      <trkpt lat="45.63353" lon="4.6388">
        <ele>475.1</ele>
        <time>2013-10-09T08:50:53Z</time>
      </trkpt>
      <trkpt lat="45.63341" lon="4.63891">
        <ele>466</ele>
        <time>2013-10-09T08:50:54Z</time>
      </trkpt>
      <trkpt lat="45.63341" lon="4.63891">
        <ele>474.5</ele>
        <time>2013-10-09T08:51:02Z</time>
      </trkpt>
      <trkpt lat="45.6334" lon="4.63898">
        <ele>465.1</ele>
        <time>2013-10-09T08:51:09Z</time>
      </trkpt>
      <trkpt lat="45.63344" lon="4.63904">
        <ele>464.1</ele>
        <time>2013-10-09T08:51:13Z</time>
      </trkpt>
      <trkpt lat="45.63344" lon="4.63918">
        <ele>461.6</ele>
        <time>2013-10-09T08:51:18Z</time>
      </trkpt>
      <trkpt lat="45.63347" lon="4.63933">
        <ele>459.1</ele>
        <time>2013-10-09T08:51:24Z</time>
      </trkpt>
      <trkpt lat="45.63349" lon="4.63941">
        <ele>460.7</ele>
        <time>2013-10-09T08:51:27Z</time>
      </trkpt>
      <trkpt lat="45.63352" lon="4.63946">
        <ele>460.7</ele>
        <time>2013-10-09T08:51:30Z</time>
      </trkpt>
      <trkpt lat="45.63355" lon="4.63952">
        <ele>461</ele>
        <time>2013-10-09T08:51:34Z</time>
      </trkpt>
      <trkpt lat="45.63357" lon="4.63962">
        <ele>461</ele>
        <time>2013-10-09T08:51:39Z</time>
      </trkpt>
      <trkpt lat="45.63357" lon="4.63969">
        <ele>461</ele>
        <time>2013-10-09T08:51:42Z</time>
      </trkpt>
      <trkpt lat="45.63359" lon="4.63977">
        <ele>461</ele>
        <time>2013-10-09T08:51:46Z</time>
      </trkpt>
      <trkpt lat="45.63364" lon="4.63989">
        <ele>461</ele>
        <time>2013-10-09T08:51:55Z</time>
      </trkpt>
      <trkpt lat="45.63367" lon="4.63995">
        <ele>457.3</ele>
        <time>2013-10-09T08:51:58Z</time>
      </trkpt>
      <trkpt lat="45.63372" lon="4.64003">
        <ele>457.3</ele>
        <time>2013-10-09T08:52:02Z</time>
      </trkpt>
      <trkpt lat="45.63375" lon="4.64009">
        <ele>460.9</ele>
        <time>2013-10-09T08:52:05Z</time>
      </trkpt>
      <trkpt lat="45.63379" lon="4.64014">
        <ele>460.9</ele>
        <time>2013-10-09T08:52:08Z</time>
      </trkpt>
      <trkpt lat="45.63382" lon="4.6402">
        <ele>462</ele>
        <time>2013-10-09T08:52:11Z</time>
      </trkpt>
      <trkpt lat="45.63385" lon="4.64033">
        <ele>461.2</ele>
        <time>2013-10-09T08:52:17Z</time>
      </trkpt>
      <trkpt lat="45.63382" lon="4.64045">
        <ele>460</ele>
        <time>2013-10-09T08:52:22Z</time>
      </trkpt>
      <trkpt lat="45.63377" lon="4.64058">
        <ele>461</ele>
        <time>2013-10-09T08:52:27Z</time>
      </trkpt>
      <trkpt lat="45.63377" lon="4.64058">
        <ele>466.9</ele>
        <time>2013-10-09T08:52:35Z</time>
      </trkpt>
      <trkpt lat="45.63369" lon="4.64081">
        <ele>461.3</ele>
        <time>2013-10-09T08:52:37Z</time>
      </trkpt>
      <trkpt lat="45.63369" lon="4.64089">
        <ele>461.3</ele>
        <time>2013-10-09T08:52:41Z</time>
      </trkpt>
      <trkpt lat="45.63366" lon="4.64097">
        <ele>459.6</ele>
        <time>2013-10-09T08:52:46Z</time>
      </trkpt>
      <trkpt lat="45.63368" lon="4.6411">
        <ele>459</ele>
        <time>2013-10-09T08:52:51Z</time>
      </trkpt>
      <trkpt lat="45.63372" lon="4.64122">
        <ele>460.9</ele>
        <time>2013-10-09T08:52:58Z</time>
      </trkpt>
      <trkpt lat="45.63369" lon="4.64129">
        <ele>460.1</ele>
        <time>2013-10-09T08:53:02Z</time>
      </trkpt>
      <trkpt lat="45.63369" lon="4.64136">
        <ele>460.1</ele>
        <time>2013-10-09T08:53:06Z</time>
      </trkpt>
      <trkpt lat="45.63367" lon="4.64149">
        <ele>459</ele>
        <time>2013-10-09T08:53:12Z</time>
      </trkpt>
      <trkpt lat="45.63365" lon="4.64165">
        <ele>458.5</ele>
        <time>2013-10-09T08:53:21Z</time>
      </trkpt>
      <trkpt lat="45.6337" lon="4.64177">
        <ele>456.1</ele>
        <time>2013-10-09T08:53:28Z</time>
      </trkpt>
      <trkpt lat="45.63372" lon="4.64191">
        <ele>456.8</ele>
        <time>2013-10-09T08:53:35Z</time>
      </trkpt>
      <trkpt lat="45.63374" lon="4.64198">
        <ele>458</ele>
        <time>2013-10-09T08:53:38Z</time>
      </trkpt>
      <trkpt lat="45.63375" lon="4.64204">
        <ele>458</ele>
        <time>2013-10-09T08:53:42Z</time>
      </trkpt>
      <trkpt lat="45.63377" lon="4.6421">
        <ele>455.8</ele>
        <time>2013-10-09T08:53:46Z</time>
      </trkpt>
      <trkpt lat="45.6338" lon="4.64216">
        <ele>454.6</ele>
        <time>2013-10-09T08:53:49Z</time>
      </trkpt>
      <trkpt lat="45.63384" lon="4.64221">
        <ele>454.6</ele>
        <time>2013-10-09T08:53:52Z</time>
      </trkpt>
      <trkpt lat="45.63392" lon="4.64228">
        <ele>454.5</ele>
        <time>2013-10-09T08:53:57Z</time>
      </trkpt>
      <trkpt lat="45.63396" lon="4.64232">
        <ele>454.1</ele>
        <time>2013-10-09T08:54:00Z</time>
      </trkpt>
      <trkpt lat="45.634" lon="4.64237">
        <ele>454</ele>
        <time>2013-10-09T08:54:04Z</time>
      </trkpt>
      <trkpt lat="45.63403" lon="4.64244">
        <ele>453.1</ele>
        <time>2013-10-09T08:54:08Z</time>
      </trkpt>
      <trkpt lat="45.63405" lon="4.6425">
        <ele>451.6</ele>
        <time>2013-10-09T08:54:12Z</time>
      </trkpt>
      <trkpt lat="45.63406" lon="4.64257">
        <ele>450.1</ele>
        <time>2013-10-09T08:54:16Z</time>
      </trkpt>
      <trkpt lat="45.63407" lon="4.64264">
        <ele>450</ele>
        <time>2013-10-09T08:54:21Z</time>
      </trkpt>
      <trkpt lat="45.6341" lon="4.64271">
        <ele>450</ele>
        <time>2013-10-09T08:54:26Z</time>
      </trkpt>
      <trkpt lat="45.63417" lon="4.6428">
        <ele>449.1</ele>
        <time>2013-10-09T08:54:32Z</time>
      </trkpt>
      <trkpt lat="45.63423" lon="4.64289">
        <ele>448.5</ele>
        <time>2013-10-09T08:54:37Z</time>
      </trkpt>
      <trkpt lat="45.63427" lon="4.64296">
        <ele>444.4</ele>
        <time>2013-10-09T08:54:41Z</time>
      </trkpt>
      <trkpt lat="45.63431" lon="4.64302">
        <ele>444.4</ele>
        <time>2013-10-09T08:54:44Z</time>
      </trkpt>
      <trkpt lat="45.63434" lon="4.64307">
        <ele>443.2</ele>
        <time>2013-10-09T08:54:47Z</time>
      </trkpt>
      <trkpt lat="45.63437" lon="4.64314">
        <ele>442.3</ele>
        <time>2013-10-09T08:54:50Z</time>
      </trkpt>
      <trkpt lat="45.6344" lon="4.64327">
        <ele>441.3</ele>
        <time>2013-10-09T08:54:59Z</time>
      </trkpt>
      <trkpt lat="45.63442" lon="4.64333">
        <ele>441.5</ele>
        <time>2013-10-09T08:55:02Z</time>
      </trkpt>
      <trkpt lat="45.63445" lon="4.64346">
        <ele>442</ele>
        <time>2013-10-09T08:55:08Z</time>
      </trkpt>
      <trkpt lat="45.63447" lon="4.64365">
        <ele>439.1</ele>
        <time>2013-10-09T08:55:17Z</time>
      </trkpt>
      <trkpt lat="45.63448" lon="4.64379">
        <ele>437.4</ele>
        <time>2013-10-09T08:55:22Z</time>
      </trkpt>
      <trkpt lat="45.63447" lon="4.64398">
        <ele>435.3</ele>
        <time>2013-10-09T08:55:30Z</time>
      </trkpt>
      <trkpt lat="45.63447" lon="4.64398">
        <ele>439.9</ele>
        <time>2013-10-09T08:55:38Z</time>
      </trkpt>
      <trkpt lat="45.63442" lon="4.64411">
        <ele>433.1</ele>
        <time>2013-10-09T08:55:40Z</time>
      </trkpt>
      <trkpt lat="45.63441" lon="4.64416">
        <ele>433</ele>
        <time>2013-10-09T08:55:44Z</time>
      </trkpt>
      <trkpt lat="45.63437" lon="4.64422">
        <ele>433</ele>
        <time>2013-10-09T08:55:48Z</time>
      </trkpt>
      <trkpt lat="45.63436" lon="4.64429">
        <ele>434</ele>
        <time>2013-10-09T08:55:53Z</time>
      </trkpt>
      <trkpt lat="45.63436" lon="4.64444">
        <ele>435.9</ele>
        <time>2013-10-09T08:56:02Z</time>
      </trkpt>
      <trkpt lat="45.63435" lon="4.64451">
        <ele>432.2</ele>
        <time>2013-10-09T08:56:07Z</time>
      </trkpt>
      <trkpt lat="45.63433" lon="4.64457">
        <ele>429.3</ele>
        <time>2013-10-09T08:56:12Z</time>
      </trkpt>
      <trkpt lat="45.6343" lon="4.64465">
        <ele>428</ele>
        <time>2013-10-09T08:56:17Z</time>
      </trkpt>
      <trkpt lat="45.6343" lon="4.64472">
        <ele>428</ele>
        <time>2013-10-09T08:56:22Z</time>
      </trkpt>
      <trkpt lat="45.63431" lon="4.64484">
        <ele>428</ele>
        <time>2013-10-09T08:56:29Z</time>
      </trkpt>
      <trkpt lat="45.63431" lon="4.64492">
        <ele>429</ele>
        <time>2013-10-09T08:56:33Z</time>
      </trkpt>
      <trkpt lat="45.63431" lon="4.64499">
        <ele>429</ele>
        <time>2013-10-09T08:56:36Z</time>
      </trkpt>
      <trkpt lat="45.63431" lon="4.64506">
        <ele>432.2</ele>
        <time>2013-10-09T08:56:39Z</time>
      </trkpt>
      <trkpt lat="45.63432" lon="4.64514">
        <ele>432.2</ele>
        <time>2013-10-09T08:56:43Z</time>
      </trkpt>
      <trkpt lat="45.63432" lon="4.64514">
        <ele>448</ele>
        <time>2013-10-09T08:56:51Z</time>
      </trkpt>
      <trkpt lat="45.63435" lon="4.64532">
        <ele>434</ele>
        <time>2013-10-09T08:56:52Z</time>
      </trkpt>
      <trkpt lat="45.63436" lon="4.64539">
        <ele>434</ele>
        <time>2013-10-09T08:56:55Z</time>
      </trkpt>
      <trkpt lat="45.63436" lon="4.64547">
        <ele>435.4</ele>
        <time>2013-10-09T08:56:59Z</time>
      </trkpt>
      <trkpt lat="45.63442" lon="4.64565">
        <ele>440.3</ele>
        <time>2013-10-09T08:57:10Z</time>
      </trkpt>
      <trkpt lat="45.63444" lon="4.64572">
        <ele>441.7</ele>
        <time>2013-10-09T08:57:14Z</time>
      </trkpt>
      <trkpt lat="45.63446" lon="4.64585">
        <ele>442</ele>
        <time>2013-10-09T08:57:21Z</time>
      </trkpt>
      <trkpt lat="45.63449" lon="4.64598">
        <ele>442.7</ele>
        <time>2013-10-09T08:57:26Z</time>
      </trkpt>
      <trkpt lat="45.6345" lon="4.64609">
        <ele>443.5</ele>
        <time>2013-10-09T08:57:31Z</time>
      </trkpt>
      <trkpt lat="45.6345" lon="4.64609">
        <ele>450.2</ele>
        <time>2013-10-09T08:57:39Z</time>
      </trkpt>
      <trkpt lat="45.6345" lon="4.6463">
        <ele>441.3</ele>
        <time>2013-10-09T08:57:43Z</time>
      </trkpt>
      <trkpt lat="45.63445" lon="4.64635">
        <ele>441</ele>
        <time>2013-10-09T08:57:48Z</time>
      </trkpt>
      <trkpt lat="45.63441" lon="4.64639">
        <ele>440.3</ele>
        <time>2013-10-09T08:57:52Z</time>
      </trkpt>
      <trkpt lat="45.63428" lon="4.64647">
        <ele>438.2</ele>
        <time>2013-10-09T08:58:01Z</time>
      </trkpt>
      <trkpt lat="45.6342" lon="4.64653">
        <ele>438</ele>
        <time>2013-10-09T08:58:06Z</time>
      </trkpt>
      <trkpt lat="45.63415" lon="4.64655">
        <ele>438.9</ele>
        <time>2013-10-09T08:58:09Z</time>
      </trkpt>
      <trkpt lat="45.63406" lon="4.64657">
        <ele>439.9</ele>
        <time>2013-10-09T08:58:15Z</time>
      </trkpt>
      <trkpt lat="45.63406" lon="4.64657">
        <ele>448.9</ele>
        <time>2013-10-09T08:58:23Z</time>
      </trkpt>
      <trkpt lat="45.63394" lon="4.64667">
        <ele>438.3</ele>
        <time>2013-10-09T08:58:27Z</time>
      </trkpt>
      <trkpt lat="45.63389" lon="4.64671">
        <ele>437.1</ele>
        <time>2013-10-09T08:58:31Z</time>
      </trkpt>
      <trkpt lat="45.63379" lon="4.64674">
        <ele>437.9</ele>
        <time>2013-10-09T08:58:37Z</time>
      </trkpt>
      <trkpt lat="45.63375" lon="4.64678">
        <ele>438</ele>
        <time>2013-10-09T08:58:40Z</time>
      </trkpt>
      <trkpt lat="45.6337" lon="4.64676">
        <ele>437.1</ele>
        <time>2013-10-09T08:58:46Z</time>
      </trkpt>
      <trkpt lat="45.63365" lon="4.64679">
        <ele>437</ele>
        <time>2013-10-09T08:58:51Z</time>
      </trkpt>
      <trkpt lat="45.63357" lon="4.64687">
        <ele>437</ele>
        <time>2013-10-09T08:58:56Z</time>
      </trkpt>
      <trkpt lat="45.63352" lon="4.64691">
        <ele>435.2</ele>
        <time>2013-10-09T08:58:59Z</time>
      </trkpt>
      <trkpt lat="45.63349" lon="4.64696">
        <ele>435.2</ele>
        <time>2013-10-09T08:59:02Z</time>
      </trkpt>
      <trkpt lat="45.63345" lon="4.64699">
        <ele>434.3</ele>
        <time>2013-10-09T08:59:05Z</time>
      </trkpt>
      <trkpt lat="45.6334" lon="4.64702">
        <ele>433.5</ele>
        <time>2013-10-09T08:59:09Z</time>
      </trkpt>
      <trkpt lat="45.63334" lon="4.64704">
        <ele>433.5</ele>
        <time>2013-10-09T08:59:12Z</time>
      </trkpt>
      <trkpt lat="45.63325" lon="4.64708">
        <ele>431.1</ele>
        <time>2013-10-09T08:59:17Z</time>
      </trkpt>
      <trkpt lat="45.6332" lon="4.64711">
        <ele>431.9</ele>
        <time>2013-10-09T08:59:22Z</time>
      </trkpt>
      <trkpt lat="45.63316" lon="4.64712">
        <ele>432</ele>
        <time>2013-10-09T08:59:26Z</time>
      </trkpt>
      <trkpt lat="45.6331" lon="4.64712">
        <ele>430.2</ele>
        <time>2013-10-09T08:59:30Z</time>
      </trkpt>
      <trkpt lat="45.63305" lon="4.64714">
        <ele>430</ele>
        <time>2013-10-09T08:59:34Z</time>
      </trkpt>
      <trkpt lat="45.63301" lon="4.64718">
        <ele>430</ele>
        <time>2013-10-09T08:59:37Z</time>
      </trkpt>
      <trkpt lat="45.63296" lon="4.64722">
        <ele>430</ele>
        <time>2013-10-09T08:59:40Z</time>
      </trkpt>
      <trkpt lat="45.63296" lon="4.64722">
        <ele>442.3</ele>
        <time>2013-10-09T08:59:48Z</time>
      </trkpt>
      <trkpt lat="45.63284" lon="4.64733">
        <ele>429.5</ele>
        <time>2013-10-09T08:59:49Z</time>
      </trkpt>
      <trkpt lat="45.63284" lon="4.64733">
        <ele>441.5</ele>
        <time>2013-10-09T08:59:57Z</time>
      </trkpt>
      <trkpt lat="45.63271" lon="4.64741">
        <ele>429.5</ele>
        <time>2013-10-09T09:00:01Z</time>
      </trkpt>
      <trkpt lat="45.63266" lon="4.64745">
        <ele>430.9</ele>
        <time>2013-10-09T09:00:05Z</time>
      </trkpt>
      <trkpt lat="45.63262" lon="4.64746">
        <ele>430.9</ele>
        <time>2013-10-09T09:00:08Z</time>
      </trkpt>
      <trkpt lat="45.63262" lon="4.64746">
        <ele>439.3</ele>
        <time>2013-10-09T09:00:16Z</time>
      </trkpt>
      <trkpt lat="45.63249" lon="4.64756">
        <ele>430</ele>
        <time>2013-10-09T09:00:17Z</time>
      </trkpt>
      <trkpt lat="45.63246" lon="4.64761">
        <ele>430.8</ele>
        <time>2013-10-09T09:00:22Z</time>
      </trkpt>
      <trkpt lat="45.63242" lon="4.64765">
        <ele>430.8</ele>
        <time>2013-10-09T09:00:25Z</time>
      </trkpt>
      <trkpt lat="45.6323" lon="4.64774">
        <ele>432</ele>
        <time>2013-10-09T09:00:32Z</time>
      </trkpt>
      <trkpt lat="45.63221" lon="4.6478">
        <ele>432</ele>
        <time>2013-10-09T09:00:40Z</time>
      </trkpt>
      <trkpt lat="45.63221" lon="4.6478">
        <ele>434.9</ele>
        <time>2013-10-09T09:00:48Z</time>
      </trkpt>
      <trkpt lat="45.63206" lon="4.64793">
        <ele>431</ele>
        <time>2013-10-09T09:00:53Z</time>
      </trkpt>
      <trkpt lat="45.63206" lon="4.64793">
        <ele>433.8</ele>
        <time>2013-10-09T09:01:01Z</time>
      </trkpt>
      <trkpt lat="45.63197" lon="4.64797">
        <ele>432</ele>
        <time>2013-10-09T09:01:02Z</time>
      </trkpt>
      <trkpt lat="45.63197" lon="4.64797">
        <ele>433</ele>
        <time>2013-10-09T09:01:12Z</time>
      </trkpt>
      <trkpt lat="45.63197" lon="4.64797">
        <ele>433</ele>
        <time>2013-10-09T09:01:20Z</time>
      </trkpt>
      <trkpt lat="45.63189" lon="4.64804">
        <ele>432</ele>
        <time>2013-10-09T09:01:21Z</time>
      </trkpt>
      <trkpt lat="45.63184" lon="4.64808">
        <ele>432.9</ele>
        <time>2013-10-09T09:01:25Z</time>
      </trkpt>
      <trkpt lat="45.63179" lon="4.64813">
        <ele>432.5</ele>
        <time>2013-10-09T09:01:29Z</time>
      </trkpt>
      <trkpt lat="45.63179" lon="4.64813">
        <ele>432.8</ele>
        <time>2013-10-09T09:01:39Z</time>
      </trkpt>
      <trkpt lat="45.63167" lon="4.64824">
        <ele>431</ele>
        <time>2013-10-09T09:01:40Z</time>
      </trkpt>
      <trkpt lat="45.63167" lon="4.64824">
        <ele>432.7</ele>
        <time>2013-10-09T09:01:48Z</time>
      </trkpt>
      <trkpt lat="45.63154" lon="4.64834">
        <ele>430.5</ele>
        <time>2013-10-09T09:01:51Z</time>
      </trkpt>
      <trkpt lat="45.6315" lon="4.64838">
        <ele>430</ele>
        <time>2013-10-09T09:01:55Z</time>
      </trkpt>
      <trkpt lat="45.63146" lon="4.64844">
        <ele>430</ele>
        <time>2013-10-09T09:01:59Z</time>
      </trkpt>
      <trkpt lat="45.63139" lon="4.64852">
        <ele>431</ele>
        <time>2013-10-09T09:02:06Z</time>
      </trkpt>
      <trkpt lat="45.63131" lon="4.64861">
        <ele>431</ele>
        <time>2013-10-09T09:02:12Z</time>
      </trkpt>
      <trkpt lat="45.63127" lon="4.64865">
        <ele>431</ele>
        <time>2013-10-09T09:02:15Z</time>
      </trkpt>
      <trkpt lat="45.63124" lon="4.6487">
        <ele>431</ele>
        <time>2013-10-09T09:02:18Z</time>
      </trkpt>
      <trkpt lat="45.6312" lon="4.64875">
        <ele>431.9</ele>
        <time>2013-10-09T09:02:22Z</time>
      </trkpt>
      <trkpt lat="45.6312" lon="4.64875">
        <ele>431.5</ele>
        <time>2013-10-09T09:02:31Z</time>
      </trkpt>
      <trkpt lat="45.63108" lon="4.64887">
        <ele>430.2</ele>
        <time>2013-10-09T09:02:33Z</time>
      </trkpt>
      <trkpt lat="45.631" lon="4.64894">
        <ele>427.1</ele>
        <time>2013-10-09T09:02:39Z</time>
      </trkpt>
      <trkpt lat="45.63095" lon="4.64897">
        <ele>426.1</ele>
        <time>2013-10-09T09:02:43Z</time>
      </trkpt>
      <trkpt lat="45.63089" lon="4.64898">
        <ele>424.2</ele>
        <time>2013-10-09T09:02:48Z</time>
      </trkpt>
      <trkpt lat="45.63084" lon="4.64901">
        <ele>422.3</ele>
        <time>2013-10-09T09:02:52Z</time>
      </trkpt>
      <trkpt lat="45.63078" lon="4.64907">
        <ele>419.1</ele>
        <time>2013-10-09T09:02:59Z</time>
      </trkpt>
      <trkpt lat="45.63072" lon="4.64911">
        <ele>419.1</ele>
        <time>2013-10-09T09:03:03Z</time>
      </trkpt>
      <trkpt lat="45.63067" lon="4.64914">
        <ele>419</ele>
        <time>2013-10-09T09:03:06Z</time>
      </trkpt>
      <trkpt lat="45.63057" lon="4.6492">
        <ele>418.1</ele>
        <time>2013-10-09T09:03:14Z</time>
      </trkpt>
      <trkpt lat="45.63052" lon="4.64925">
        <ele>418</ele>
        <time>2013-10-09T09:03:18Z</time>
      </trkpt>
      <trkpt lat="45.63047" lon="4.64927">
        <ele>418</ele>
        <time>2013-10-09T09:03:21Z</time>
      </trkpt>
      <trkpt lat="45.63042" lon="4.64927">
        <ele>414.1</ele>
        <time>2013-10-09T09:03:26Z</time>
      </trkpt>
      <trkpt lat="45.63039" lon="4.64932">
        <ele>414</ele>
        <time>2013-10-09T09:03:30Z</time>
      </trkpt>
      <trkpt lat="45.63036" lon="4.64937">
        <ele>414</ele>
        <time>2013-10-09T09:03:33Z</time>
      </trkpt>
      <trkpt lat="45.63031" lon="4.64938">
        <ele>414</ele>
        <time>2013-10-09T09:03:37Z</time>
      </trkpt>
      <trkpt lat="45.63026" lon="4.6494">
        <ele>414</ele>
        <time>2013-10-09T09:03:41Z</time>
      </trkpt>
      <trkpt lat="45.63015" lon="4.64944">
        <ele>412.5</ele>
        <time>2013-10-09T09:03:49Z</time>
      </trkpt>
      <trkpt lat="45.63011" lon="4.64945">
        <ele>409.3</ele>
        <time>2013-10-09T09:03:53Z</time>
      </trkpt>
      <trkpt lat="45.63006" lon="4.64948">
        <ele>409.5</ele>
        <time>2013-10-09T09:03:56Z</time>
      </trkpt>
      <trkpt lat="45.63003" lon="4.64951">
        <ele>409.5</ele>
        <time>2013-10-09T09:03:59Z</time>
      </trkpt>
      <trkpt lat="45.62997" lon="4.64954">
        <ele>411.8</ele>
        <time>2013-10-09T09:04:03Z</time>
      </trkpt>
      <trkpt lat="45.62992" lon="4.64955">
        <ele>412</ele>
        <time>2013-10-09T09:04:08Z</time>
      </trkpt>
      <trkpt lat="45.62987" lon="4.64956">
        <ele>410.6</ele>
        <time>2013-10-09T09:04:13Z</time>
      </trkpt>
      <trkpt lat="45.62987" lon="4.64956">
        <ele>412.8</ele>
        <time>2013-10-09T09:04:21Z</time>
      </trkpt>
      <trkpt lat="45.62977" lon="4.6496">
        <ele>408</ele>
        <time>2013-10-09T09:04:24Z</time>
      </trkpt>
      <trkpt lat="45.62973" lon="4.64965">
        <ele>405.1</ele>
        <time>2013-10-09T09:04:30Z</time>
      </trkpt>
      <trkpt lat="45.62973" lon="4.64965">
        <ele>409.3</ele>
        <time>2013-10-09T09:04:40Z</time>
      </trkpt>
      <trkpt lat="45.6296" lon="4.64972">
        <ele>403</ele>
        <time>2013-10-09T09:04:43Z</time>
      </trkpt>
      <trkpt lat="45.62956" lon="4.64976">
        <ele>397.3</ele>
        <time>2013-10-09T09:04:48Z</time>
      </trkpt>
      <trkpt lat="45.62949" lon="4.64984">
        <ele>395</ele>
        <time>2013-10-09T09:04:57Z</time>
      </trkpt>
      <trkpt lat="45.6294" lon="4.64989">
        <ele>395</ele>
        <time>2013-10-09T09:05:05Z</time>
      </trkpt>
      <trkpt lat="45.62935" lon="4.64985">
        <ele>394.2</ele>
        <time>2013-10-09T09:05:11Z</time>
      </trkpt>
      <trkpt lat="45.62935" lon="4.64985">
        <ele>398.7</ele>
        <time>2013-10-09T09:05:19Z</time>
      </trkpt>
      <trkpt lat="45.62921" lon="4.64976">
        <ele>396.9</ele>
        <time>2013-10-09T09:05:22Z</time>
      </trkpt>
      <trkpt lat="45.62917" lon="4.64977">
        <ele>397</ele>
        <time>2013-10-09T09:05:25Z</time>
      </trkpt>
      <trkpt lat="45.62903" lon="4.64978">
        <ele>393.4</ele>
        <time>2013-10-09T09:05:35Z</time>
      </trkpt>
      <trkpt lat="45.62898" lon="4.64975">
        <ele>391.3</ele>
        <time>2013-10-09T09:05:39Z</time>
      </trkpt>
      <trkpt lat="45.62889" lon="4.64971">
        <ele>391</ele>
        <time>2013-10-09T09:05:46Z</time>
      </trkpt>
      <trkpt lat="45.62885" lon="4.64968">
        <ele>391</ele>
        <time>2013-10-09T09:05:49Z</time>
      </trkpt>
      <trkpt lat="45.62877" lon="4.64961">
        <ele>388.2</ele>
        <time>2013-10-09T09:05:56Z</time>
      </trkpt>
      <trkpt lat="45.62872" lon="4.64961">
        <ele>387.1</ele>
        <time>2013-10-09T09:06:02Z</time>
      </trkpt>
      <trkpt lat="45.62872" lon="4.64961">
        <ele>395.5</ele>
        <time>2013-10-09T09:06:10Z</time>
      </trkpt>
      <trkpt lat="45.62867" lon="4.64963">
        <ele>386</ele>
        <time>2013-10-09T09:06:11Z</time>
      </trkpt>
      <trkpt lat="45.62859" lon="4.64971">
        <ele>385</ele>
        <time>2013-10-09T09:06:19Z</time>
      </trkpt>
      <trkpt lat="45.62855" lon="4.64975">
        <ele>385</ele>
        <time>2013-10-09T09:06:23Z</time>
      </trkpt>
      <trkpt lat="45.62851" lon="4.64981">
        <ele>391.6</ele>
        <time>2013-10-09T09:06:27Z</time>
      </trkpt>
      <trkpt lat="45.62847" lon="4.64982">
        <ele>391.9</ele>
        <time>2013-10-09T09:06:33Z</time>
      </trkpt>
      <trkpt lat="45.62842" lon="4.64979">
        <ele>391.5</ele>
        <time>2013-10-09T09:06:37Z</time>
      </trkpt>
      <trkpt lat="45.62842" lon="4.64979">
        <ele>398.1</ele>
        <time>2013-10-09T09:06:46Z</time>
      </trkpt>
      <trkpt lat="45.62834" lon="4.6497">
        <ele>389</ele>
        <time>2013-10-09T09:06:48Z</time>
      </trkpt>
      <trkpt lat="45.62833" lon="4.64963">
        <ele>389</ele>
        <time>2013-10-09T09:06:53Z</time>
      </trkpt>
      <trkpt lat="45.6283" lon="4.64958">
        <ele>389</ele>
        <time>2013-10-09T09:06:59Z</time>
      </trkpt>
      <trkpt lat="45.6283" lon="4.64958">
        <ele>402.5</ele>
        <time>2013-10-09T09:07:07Z</time>
      </trkpt>
      <trkpt lat="45.6282" lon="4.64945">
        <ele>391</ele>
        <time>2013-10-09T09:07:10Z</time>
      </trkpt>
      <trkpt lat="45.62816" lon="4.64942">
        <ele>392.7</ele>
        <time>2013-10-09T09:07:15Z</time>
      </trkpt>
      <trkpt lat="45.62812" lon="4.64937">
        <ele>395.1</ele>
        <time>2013-10-09T09:07:20Z</time>
      </trkpt>
      <trkpt lat="45.62808" lon="4.6493">
        <ele>396.5</ele>
        <time>2013-10-09T09:07:24Z</time>
      </trkpt>
      <trkpt lat="45.62801" lon="4.64925">
        <ele>397</ele>
        <time>2013-10-09T09:07:30Z</time>
      </trkpt>
      <trkpt lat="45.62797" lon="4.64921">
        <ele>400.4</ele>
        <time>2013-10-09T09:07:34Z</time>
      </trkpt>
      <trkpt lat="45.62795" lon="4.64914">
        <ele>401</ele>
        <time>2013-10-09T09:07:39Z</time>
      </trkpt>
      <trkpt lat="45.62787" lon="4.64907">
        <ele>399.6</ele>
        <time>2013-10-09T09:07:47Z</time>
      </trkpt>
      <trkpt lat="45.62785" lon="4.64899">
        <ele>398.1</ele>
        <time>2013-10-09T09:07:52Z</time>
      </trkpt>
      <trkpt lat="45.62781" lon="4.64896">
        <ele>398.1</ele>
        <time>2013-10-09T09:07:57Z</time>
      </trkpt>
      <trkpt lat="45.62772" lon="4.64899">
        <ele>398.9</ele>
        <time>2013-10-09T09:08:05Z</time>
      </trkpt>
      <trkpt lat="45.62768" lon="4.64904">
        <ele>399</ele>
        <time>2013-10-09T09:08:08Z</time>
      </trkpt>
      <trkpt lat="45.62763" lon="4.64908">
        <ele>398.2</ele>
        <time>2013-10-09T09:08:12Z</time>
      </trkpt>
      <trkpt lat="45.62758" lon="4.64911">
        <ele>396.1</ele>
        <time>2013-10-09T09:08:18Z</time>
      </trkpt>
      <trkpt lat="45.62751" lon="4.6492">
        <ele>393.1</ele>
        <time>2013-10-09T09:08:25Z</time>
      </trkpt>
      <trkpt lat="45.62742" lon="4.64936">
        <ele>391.1</ele>
        <time>2013-10-09T09:08:32Z</time>
      </trkpt>
      <trkpt lat="45.62742" lon="4.64936">
        <ele>406.6</ele>
        <time>2013-10-09T09:08:40Z</time>
      </trkpt>
      <trkpt lat="45.62736" lon="4.64948">
        <ele>392.9</ele>
        <time>2013-10-09T09:08:45Z</time>
      </trkpt>
      <trkpt lat="45.62733" lon="4.64955">
        <ele>393</ele>
        <time>2013-10-09T09:08:49Z</time>
      </trkpt>
      <trkpt lat="45.62733" lon="4.64955">
        <ele>406.4</ele>
        <time>2013-10-09T09:08:58Z</time>
      </trkpt>
      <trkpt lat="45.62724" lon="4.6497">
        <ele>396.8</ele>
        <time>2013-10-09T09:09:00Z</time>
      </trkpt>
      <trkpt lat="45.6272" lon="4.64975">
        <ele>397</ele>
        <time>2013-10-09T09:09:04Z</time>
      </trkpt>
      <trkpt lat="45.62708" lon="4.64985">
        <ele>399.4</ele>
        <time>2013-10-09T09:09:13Z</time>
      </trkpt>
      <trkpt lat="45.62708" lon="4.64985">
        <ele>409.3</ele>
        <time>2013-10-09T09:09:21Z</time>
      </trkpt>
      <trkpt lat="45.62698" lon="4.6499">
        <ele>402</ele>
        <time>2013-10-09T09:09:24Z</time>
      </trkpt>
      <trkpt lat="45.62694" lon="4.64995">
        <ele>402</ele>
        <time>2013-10-09T09:09:29Z</time>
      </trkpt>
      <trkpt lat="45.62689" lon="4.64999">
        <ele>402.8</ele>
        <time>2013-10-09T09:09:35Z</time>
      </trkpt>
      <trkpt lat="45.62685" lon="4.65003">
        <ele>406.6</ele>
        <time>2013-10-09T09:09:39Z</time>
      </trkpt>
      <trkpt lat="45.6268" lon="4.65007">
        <ele>408.8</ele>
        <time>2013-10-09T09:09:43Z</time>
      </trkpt>
      <trkpt lat="45.62675" lon="4.65008">
        <ele>409.5</ele>
        <time>2013-10-09T09:09:48Z</time>
      </trkpt>
      <trkpt lat="45.62671" lon="4.65012">
        <ele>410</ele>
        <time>2013-10-09T09:09:52Z</time>
      </trkpt>
      <trkpt lat="45.62666" lon="4.65017">
        <ele>410</ele>
        <time>2013-10-09T09:09:56Z</time>
      </trkpt>
      <trkpt lat="45.62662" lon="4.6502">
        <ele>410</ele>
        <time>2013-10-09T09:10:00Z</time>
      </trkpt>
      <trkpt lat="45.62657" lon="4.65023">
        <ele>408.5</ele>
        <time>2013-10-09T09:10:04Z</time>
      </trkpt>
      <trkpt lat="45.6265" lon="4.65034">
        <ele>408</ele>
        <time>2013-10-09T09:10:11Z</time>
      </trkpt>
      <trkpt lat="45.62646" lon="4.65037">
        <ele>408</ele>
        <time>2013-10-09T09:10:15Z</time>
      </trkpt>
      <trkpt lat="45.62635" lon="4.6505">
        <ele>407</ele>
        <time>2013-10-09T09:10:25Z</time>
      </trkpt>
      <trkpt lat="45.6263" lon="4.65054">
        <ele>407</ele>
        <time>2013-10-09T09:10:29Z</time>
      </trkpt>
      <trkpt lat="45.62625" lon="4.65055">
        <ele>407</ele>
        <time>2013-10-09T09:10:34Z</time>
      </trkpt>
      <trkpt lat="45.62621" lon="4.65059">
        <ele>407</ele>
        <time>2013-10-09T09:10:38Z</time>
      </trkpt>
      <trkpt lat="45.62621" lon="4.65059">
        <ele>412.4</ele>
        <time>2013-10-09T09:10:46Z</time>
      </trkpt>
      <trkpt lat="45.62608" lon="4.65068">
        <ele>406.5</ele>
        <time>2013-10-09T09:10:48Z</time>
      </trkpt>
      <trkpt lat="45.62603" lon="4.65067">
        <ele>405.1</ele>
        <time>2013-10-09T09:10:52Z</time>
      </trkpt>
      <trkpt lat="45.62598" lon="4.65068">
        <ele>405</ele>
        <time>2013-10-09T09:10:57Z</time>
      </trkpt>
      <trkpt lat="45.62586" lon="4.6508">
        <ele>404.1</ele>
        <time>2013-10-09T09:11:05Z</time>
      </trkpt>
      <trkpt lat="45.62583" lon="4.65084">
        <ele>404</ele>
        <time>2013-10-09T09:11:08Z</time>
      </trkpt>
      <trkpt lat="45.62579" lon="4.6509">
        <ele>404</ele>
        <time>2013-10-09T09:11:12Z</time>
      </trkpt>
      <trkpt lat="45.6257" lon="4.65095">
        <ele>405.8</ele>
        <time>2013-10-09T09:11:18Z</time>
      </trkpt>
      <trkpt lat="45.62556" lon="4.651">
        <ele>410.7</ele>
        <time>2013-10-09T09:11:26Z</time>
      </trkpt>
      <trkpt lat="45.62556" lon="4.651">
        <ele>411.4</ele>
        <time>2013-10-09T09:11:34Z</time>
      </trkpt>
      <trkpt lat="45.62547" lon="4.65105">
        <ele>414.4</ele>
        <time>2013-10-09T09:11:36Z</time>
      </trkpt>
      <trkpt lat="45.62543" lon="4.65108">
        <ele>415.5</ele>
        <time>2013-10-09T09:11:40Z</time>
      </trkpt>
      <trkpt lat="45.62538" lon="4.65111">
        <ele>415.9</ele>
        <time>2013-10-09T09:11:44Z</time>
      </trkpt>
      <trkpt lat="45.62529" lon="4.65116">
        <ele>417</ele>
        <time>2013-10-09T09:11:52Z</time>
      </trkpt>
      <trkpt lat="45.62524" lon="4.6512">
        <ele>418</ele>
        <time>2013-10-09T09:11:56Z</time>
      </trkpt>
      <trkpt lat="45.62515" lon="4.65123">
        <ele>419.5</ele>
        <time>2013-10-09T09:12:04Z</time>
      </trkpt>
      <trkpt lat="45.6251" lon="4.65124">
        <ele>420</ele>
        <time>2013-10-09T09:12:08Z</time>
      </trkpt>
      <trkpt lat="45.62495" lon="4.65128">
        <ele>420</ele>
        <time>2013-10-09T09:12:15Z</time>
      </trkpt>
      <trkpt lat="45.62489" lon="4.65131">
        <ele>419.2</ele>
        <time>2013-10-09T09:12:18Z</time>
      </trkpt>
      <trkpt lat="45.6248" lon="4.65133">
        <ele>417.8</ele>
        <time>2013-10-09T09:12:24Z</time>
      </trkpt>
      <trkpt lat="45.62475" lon="4.65133">
        <ele>416.3</ele>
        <time>2013-10-09T09:12:28Z</time>
      </trkpt>
      <trkpt lat="45.62475" lon="4.65133">
        <ele>411.3</ele>
        <time>2013-10-09T09:12:37Z</time>
      </trkpt>
      <trkpt lat="45.6246" lon="4.65135">
        <ele>412</ele>
        <time>2013-10-09T09:12:39Z</time>
      </trkpt>
      <trkpt lat="45.62453" lon="4.65137">
        <ele>410.1</ele>
        <time>2013-10-09T09:12:44Z</time>
      </trkpt>
      <trkpt lat="45.62453" lon="4.65137">
        <ele>411.8</ele>
        <time>2013-10-09T09:12:52Z</time>
      </trkpt>
      <trkpt lat="45.62438" lon="4.6514">
        <ele>412</ele>
        <time>2013-10-09T09:12:54Z</time>
      </trkpt>
      <trkpt lat="45.62434" lon="4.6514">
        <ele>410.1</ele>
        <time>2013-10-09T09:12:57Z</time>
      </trkpt>
      <trkpt lat="45.6242" lon="4.65145">
        <ele>411</ele>
        <time>2013-10-09T09:13:07Z</time>
      </trkpt>
      <trkpt lat="45.62414" lon="4.65147">
        <ele>412.8</ele>
        <time>2013-10-09T09:13:11Z</time>
      </trkpt>
      <trkpt lat="45.62409" lon="4.65147">
        <ele>413</ele>
        <time>2013-10-09T09:13:15Z</time>
      </trkpt>
      <trkpt lat="45.62409" lon="4.65147">
        <ele>412.4</ele>
        <time>2013-10-09T09:13:24Z</time>
      </trkpt>
      <trkpt lat="45.62393" lon="4.65148">
        <ele>412</ele>
        <time>2013-10-09T09:13:27Z</time>
      </trkpt>
      <trkpt lat="45.62388" lon="4.65149">
        <ele>412</ele>
        <time>2013-10-09T09:13:31Z</time>
      </trkpt>
      <trkpt lat="45.62382" lon="4.6515">
        <ele>410.2</ele>
        <time>2013-10-09T09:13:35Z</time>
      </trkpt>
      <trkpt lat="45.62374" lon="4.65153">
        <ele>409.3</ele>
        <time>2013-10-09T09:13:41Z</time>
      </trkpt>
      <trkpt lat="45.62374" lon="4.65153">
        <ele>411.8</ele>
        <time>2013-10-09T09:13:50Z</time>
      </trkpt>
      <trkpt lat="45.6236" lon="4.65152">
        <ele>406</ele>
        <time>2013-10-09T09:13:52Z</time>
      </trkpt>
      <trkpt lat="45.6236" lon="4.65152">
        <ele>411.5</ele>
        <time>2013-10-09T09:14:00Z</time>
      </trkpt>
      <trkpt lat="45.62345" lon="4.65156">
        <ele>409.2</ele>
        <time>2013-10-09T09:14:01Z</time>
      </trkpt>
      <trkpt lat="45.62335" lon="4.65158">
        <ele>412.4</ele>
        <time>2013-10-09T09:14:08Z</time>
      </trkpt>
      <trkpt lat="45.62326" lon="4.65159">
        <ele>413</ele>
        <time>2013-10-09T09:14:16Z</time>
      </trkpt>
      <trkpt lat="45.62326" lon="4.65159">
        <ele>410.5</ele>
        <time>2013-10-09T09:14:24Z</time>
      </trkpt>
      <trkpt lat="45.62312" lon="4.6516">
        <ele>416</ele>
        <time>2013-10-09T09:14:30Z</time>
      </trkpt>
      <trkpt lat="45.62303" lon="4.65162">
        <ele>415</ele>
        <time>2013-10-09T09:14:35Z</time>
      </trkpt>
      <trkpt lat="45.62295" lon="4.65166">
        <ele>416.6</ele>
        <time>2013-10-09T09:14:40Z</time>
      </trkpt>
      <trkpt lat="45.62289" lon="4.65166">
        <ele>417</ele>
        <time>2013-10-09T09:14:44Z</time>
      </trkpt>
      <trkpt lat="45.62284" lon="4.65167">
        <ele>415.6</ele>
        <time>2013-10-09T09:14:47Z</time>
      </trkpt>
      <trkpt lat="45.62279" lon="4.65168">
        <ele>415.6</ele>
        <time>2013-10-09T09:14:50Z</time>
      </trkpt>
      <trkpt lat="45.62271" lon="4.65171">
        <ele>413.1</ele>
        <time>2013-10-09T09:14:56Z</time>
      </trkpt>
      <trkpt lat="45.62271" lon="4.65171">
        <ele>409.9</ele>
        <time>2013-10-09T09:15:04Z</time>
      </trkpt>
      <trkpt lat="45.62256" lon="4.65178">
        <ele>409.3</ele>
        <time>2013-10-09T09:15:06Z</time>
      </trkpt>
      <trkpt lat="45.62256" lon="4.65178">
        <ele>410</ele>
        <time>2013-10-09T09:15:14Z</time>
      </trkpt>
      <trkpt lat="45.62241" lon="4.65187">
        <ele>402.3</ele>
        <time>2013-10-09T09:15:18Z</time>
      </trkpt>
      <trkpt lat="45.62231" lon="4.65192">
        <ele>400.1</ele>
        <time>2013-10-09T09:15:25Z</time>
      </trkpt>
      <trkpt lat="45.62224" lon="4.65199">
        <ele>401</ele>
        <time>2013-10-09T09:15:30Z</time>
      </trkpt>
      <trkpt lat="45.62224" lon="4.65199">
        <ele>409.6</ele>
        <time>2013-10-09T09:15:38Z</time>
      </trkpt>
      <trkpt lat="45.6221" lon="4.65208">
        <ele>400.4</ele>
        <time>2013-10-09T09:15:40Z</time>
      </trkpt>
      <trkpt lat="45.62201" lon="4.65213">
        <ele>401</ele>
        <time>2013-10-09T09:15:48Z</time>
      </trkpt>
      <trkpt lat="45.62201" lon="4.65213">
        <ele>410.2</ele>
        <time>2013-10-09T09:15:56Z</time>
      </trkpt>
      <trkpt lat="45.6219" lon="4.65212">
        <ele>396.9</ele>
        <time>2013-10-09T09:15:57Z</time>
      </trkpt>
      <trkpt lat="45.62185" lon="4.65213">
        <ele>396</ele>
        <time>2013-10-09T09:16:01Z</time>
      </trkpt>
      <trkpt lat="45.6218" lon="4.65215">
        <ele>396.5</ele>
        <time>2013-10-09T09:16:04Z</time>
      </trkpt>
      <trkpt lat="45.62173" lon="4.65214">
        <ele>396.9</ele>
        <time>2013-10-09T09:16:09Z</time>
      </trkpt>
      <trkpt lat="45.62167" lon="4.65215">
        <ele>398.7</ele>
        <time>2013-10-09T09:16:13Z</time>
      </trkpt>
      <trkpt lat="45.62162" lon="4.65215">
        <ele>398.7</ele>
        <time>2013-10-09T09:16:17Z</time>
      </trkpt>
      <trkpt lat="45.62152" lon="4.65218">
        <ele>399</ele>
        <time>2013-10-09T09:16:25Z</time>
      </trkpt>
      <trkpt lat="45.62147" lon="4.6522">
        <ele>399</ele>
        <time>2013-10-09T09:16:29Z</time>
      </trkpt>
      <trkpt lat="45.62133" lon="4.65222">
        <ele>400.9</ele>
        <time>2013-10-09T09:16:38Z</time>
      </trkpt>
      <trkpt lat="45.62125" lon="4.65222">
        <ele>401</ele>
        <time>2013-10-09T09:16:45Z</time>
      </trkpt>
      <trkpt lat="45.62125" lon="4.65222">
        <ele>412</ele>
        <time>2013-10-09T09:16:53Z</time>
      </trkpt>
      <trkpt lat="45.6211" lon="4.65223">
        <ele>401.5</ele>
        <time>2013-10-09T09:16:56Z</time>
      </trkpt>
      <trkpt lat="45.62096" lon="4.65221">
        <ele>401</ele>
        <time>2013-10-09T09:17:04Z</time>
      </trkpt>
      <trkpt lat="45.62096" lon="4.65221">
        <ele>412</ele>
        <time>2013-10-09T09:17:12Z</time>
      </trkpt>
      <trkpt lat="45.62083" lon="4.65217">
        <ele>404.9</ele>
        <time>2013-10-09T09:17:16Z</time>
      </trkpt>
      <trkpt lat="45.62078" lon="4.65215">
        <ele>405.7</ele>
        <time>2013-10-09T09:17:21Z</time>
      </trkpt>
      <trkpt lat="45.62073" lon="4.65215">
        <ele>405</ele>
        <time>2013-10-09T09:17:25Z</time>
      </trkpt>
      <trkpt lat="45.62063" lon="4.65211">
        <ele>407</ele>
        <time>2013-10-09T09:17:33Z</time>
      </trkpt>
      <trkpt lat="45.62057" lon="4.65209">
        <ele>409.9</ele>
        <time>2013-10-09T09:17:37Z</time>
      </trkpt>
      <trkpt lat="45.62053" lon="4.65206">
        <ele>410</ele>
        <time>2013-10-09T09:17:40Z</time>
      </trkpt>
      <trkpt lat="45.62046" lon="4.65197">
        <ele>406.6</ele>
        <time>2013-10-09T09:17:46Z</time>
      </trkpt>
      <trkpt lat="45.62043" lon="4.65191">
        <ele>407.3</ele>
        <time>2013-10-09T09:17:50Z</time>
      </trkpt>
      <trkpt lat="45.62041" lon="4.65185">
        <ele>409.9</ele>
        <time>2013-10-09T09:17:54Z</time>
      </trkpt>
      <trkpt lat="45.62038" lon="4.65178">
        <ele>409.9</ele>
        <time>2013-10-09T09:17:58Z</time>
      </trkpt>
      <trkpt lat="45.62036" lon="4.65172">
        <ele>411.9</ele>
        <time>2013-10-09T09:18:01Z</time>
      </trkpt>
      <trkpt lat="45.62033" lon="4.65158">
        <ele>412</ele>
        <time>2013-10-09T09:18:08Z</time>
      </trkpt>
      <trkpt lat="45.62033" lon="4.65158">
        <ele>410.6</ele>
        <time>2013-10-09T09:18:16Z</time>
      </trkpt>
      <trkpt lat="45.62034" lon="4.65145">
        <ele>415.7</ele>
        <time>2013-10-09T09:18:20Z</time>
      </trkpt>
      <trkpt lat="45.62036" lon="4.65139">
        <ele>417.6</ele>
        <time>2013-10-09T09:18:24Z</time>
      </trkpt>
      <trkpt lat="45.62034" lon="4.65131">
        <ele>419.7</ele>
        <time>2013-10-09T09:18:29Z</time>
      </trkpt>
      <trkpt lat="45.62032" lon="4.65124">
        <ele>421.4</ele>
        <time>2013-10-09T09:18:34Z</time>
      </trkpt>
      <trkpt lat="45.62032" lon="4.65124">
        <ele>412.1</ele>
        <time>2013-10-09T09:18:42Z</time>
      </trkpt>
      <trkpt lat="45.62027" lon="4.65104">
        <ele>427.9</ele>
        <time>2013-10-09T09:18:48Z</time>
      </trkpt>
      <trkpt lat="45.62027" lon="4.65097">
        <ele>428</ele>
        <time>2013-10-09T09:18:51Z</time>
      </trkpt>
      <trkpt lat="45.62025" lon="4.65091">
        <ele>428</ele>
        <time>2013-10-09T09:18:54Z</time>
      </trkpt>
      <trkpt lat="45.62024" lon="4.65083">
        <ele>428</ele>
        <time>2013-10-09T09:18:58Z</time>
      </trkpt>
      <trkpt lat="45.62021" lon="4.6507">
        <ele>428</ele>
        <time>2013-10-09T09:19:05Z</time>
      </trkpt>
      <trkpt lat="45.62021" lon="4.65059">
        <ele>428</ele>
        <time>2013-10-09T09:19:12Z</time>
      </trkpt>
      <trkpt lat="45.62019" lon="4.6505">
        <ele>427</ele>
        <time>2013-10-09T09:19:17Z</time>
      </trkpt>
      <trkpt lat="45.62017" lon="4.65044">
        <ele>427</ele>
        <time>2013-10-09T09:19:21Z</time>
      </trkpt>
      <trkpt lat="45.62016" lon="4.65036">
        <ele>428</ele>
        <time>2013-10-09T09:19:25Z</time>
      </trkpt>
      <trkpt lat="45.62016" lon="4.65029">
        <ele>428</ele>
        <time>2013-10-09T09:19:28Z</time>
      </trkpt>
      <trkpt lat="45.62016" lon="4.65022">
        <ele>425.3</ele>
        <time>2013-10-09T09:19:32Z</time>
      </trkpt>
      <trkpt lat="45.62014" lon="4.65009">
        <ele>424.1</ele>
        <time>2013-10-09T09:19:41Z</time>
      </trkpt>
      <trkpt lat="45.62008" lon="4.64998">
        <ele>424.8</ele>
        <time>2013-10-09T09:19:45Z</time>
      </trkpt>
      <trkpt lat="45.62006" lon="4.64991">
        <ele>425</ele>
        <time>2013-10-09T09:19:48Z</time>
      </trkpt>
      <trkpt lat="45.62003" lon="4.64978">
        <ele>425</ele>
        <time>2013-10-09T09:19:56Z</time>
      </trkpt>
      <trkpt lat="45.62003" lon="4.6497">
        <ele>424.1</ele>
        <time>2013-10-09T09:20:01Z</time>
      </trkpt>
      <trkpt lat="45.61997" lon="4.64957">
        <ele>424.9</ele>
        <time>2013-10-09T09:20:08Z</time>
      </trkpt>
      <trkpt lat="45.61997" lon="4.64957">
        <ele>415.4</ele>
        <time>2013-10-09T09:20:18Z</time>
      </trkpt>
      <trkpt lat="45.61992" lon="4.64938">
        <ele>424</ele>
        <time>2013-10-09T09:20:20Z</time>
      </trkpt>
      <trkpt lat="45.61986" lon="4.64929">
        <ele>425.4</ele>
        <time>2013-10-09T09:20:27Z</time>
      </trkpt>
      <trkpt lat="45.61983" lon="4.64923">
        <ele>426.5</ele>
        <time>2013-10-09T09:20:30Z</time>
      </trkpt>
      <trkpt lat="45.61982" lon="4.64914">
        <ele>426.9</ele>
        <time>2013-10-09T09:20:35Z</time>
      </trkpt>
      <trkpt lat="45.61982" lon="4.64914">
        <ele>417.5</ele>
        <time>2013-10-09T09:20:43Z</time>
      </trkpt>
      <trkpt lat="45.61982" lon="4.649">
        <ele>427</ele>
        <time>2013-10-09T09:20:44Z</time>
      </trkpt>
      <trkpt lat="45.61983" lon="4.64892">
        <ele>426.9</ele>
        <time>2013-10-09T09:20:48Z</time>
      </trkpt>
      <trkpt lat="45.61979" lon="4.64888">
        <ele>426.9</ele>
        <time>2013-10-09T09:20:53Z</time>
      </trkpt>
      <trkpt lat="45.61976" lon="4.64883">
        <ele>427</ele>
        <time>2013-10-09T09:20:58Z</time>
      </trkpt>
      <trkpt lat="45.61976" lon="4.64883">
        <ele>419.3</ele>
        <time>2013-10-09T09:21:06Z</time>
      </trkpt>
      <trkpt lat="45.61969" lon="4.64864">
        <ele>425.3</ele>
        <time>2013-10-09T09:21:10Z</time>
      </trkpt>
      <trkpt lat="45.61968" lon="4.64856">
        <ele>425</ele>
        <time>2013-10-09T09:21:15Z</time>
      </trkpt>
      <trkpt lat="45.61966" lon="4.6485">
        <ele>425.8</ele>
        <time>2013-10-09T09:21:19Z</time>
      </trkpt>
      <trkpt lat="45.61966" lon="4.64843">
        <ele>430.7</ele>
        <time>2013-10-09T09:21:24Z</time>
      </trkpt>
      <trkpt lat="45.61964" lon="4.64837">
        <ele>430.7</ele>
        <time>2013-10-09T09:21:28Z</time>
      </trkpt>
      <trkpt lat="45.61962" lon="4.64831">
        <ele>431</ele>
        <time>2013-10-09T09:21:32Z</time>
      </trkpt>
      <trkpt lat="45.61961" lon="4.64824">
        <ele>431</ele>
        <time>2013-10-09T09:21:36Z</time>
      </trkpt>
      <trkpt lat="45.61957" lon="4.64811">
        <ele>432</ele>
        <time>2013-10-09T09:21:44Z</time>
      </trkpt>
      <trkpt lat="45.61956" lon="4.64804">
        <ele>431.1</ele>
        <time>2013-10-09T09:21:47Z</time>
      </trkpt>
      <trkpt lat="45.61955" lon="4.64798">
        <ele>431.1</ele>
        <time>2013-10-09T09:21:50Z</time>
      </trkpt>
      <trkpt lat="45.61955" lon="4.64798">
        <ele>420</ele>
        <time>2013-10-09T09:21:59Z</time>
      </trkpt>
      <trkpt lat="45.61955" lon="4.64778">
        <ele>430.5</ele>
        <time>2013-10-09T09:22:00Z</time>
      </trkpt>
      <trkpt lat="45.61955" lon="4.64778">
        <ele>420.7</ele>
        <time>2013-10-09T09:22:08Z</time>
      </trkpt>
      <trkpt lat="45.61959" lon="4.64766">
        <ele>430.9</ele>
        <time>2013-10-09T09:22:09Z</time>
      </trkpt>
      <trkpt lat="45.61955" lon="4.64759">
        <ele>432.8</ele>
        <time>2013-10-09T09:22:14Z</time>
      </trkpt>
      <trkpt lat="45.61952" lon="4.64746">
        <ele>433</ele>
        <time>2013-10-09T09:22:20Z</time>
      </trkpt>
      <trkpt lat="45.61952" lon="4.64746">
        <ele>420.6</ele>
        <time>2013-10-09T09:22:28Z</time>
      </trkpt>
      <trkpt lat="45.61948" lon="4.64726">
        <ele>432.4</ele>
        <time>2013-10-09T09:22:29Z</time>
      </trkpt>
      <trkpt lat="45.61948" lon="4.64726">
        <ele>420.3</ele>
        <time>2013-10-09T09:22:37Z</time>
      </trkpt>
      <trkpt lat="45.61946" lon="4.64706">
        <ele>436.7</ele>
        <time>2013-10-09T09:22:38Z</time>
      </trkpt>
      <trkpt lat="45.61941" lon="4.64695">
        <ele>437.5</ele>
        <time>2013-10-09T09:22:43Z</time>
      </trkpt>
      <trkpt lat="45.61942" lon="4.64682">
        <ele>439.9</ele>
        <time>2013-10-09T09:22:51Z</time>
      </trkpt>
      <trkpt lat="45.61945" lon="4.64677">
        <ele>439.2</ele>
        <time>2013-10-09T09:22:56Z</time>
      </trkpt>
      <trkpt lat="45.61944" lon="4.64668">
        <ele>438</ele>
        <time>2013-10-09T09:23:01Z</time>
      </trkpt>
      <trkpt lat="45.61943" lon="4.64659">
        <ele>438</ele>
        <time>2013-10-09T09:23:05Z</time>
      </trkpt>
      <trkpt lat="45.61942" lon="4.64652">
        <ele>438</ele>
        <time>2013-10-09T09:23:10Z</time>
      </trkpt>
      <trkpt lat="45.61938" lon="4.64649">
        <ele>438.5</ele>
        <time>2013-10-09T09:23:16Z</time>
      </trkpt>
      <trkpt lat="45.61935" lon="4.64644">
        <ele>439.7</ele>
        <time>2013-10-09T09:23:21Z</time>
      </trkpt>
      <trkpt lat="45.61935" lon="4.64644">
        <ele>422.8</ele>
        <time>2013-10-09T09:23:29Z</time>
      </trkpt>
      <trkpt lat="45.61928" lon="4.64626">
        <ele>439.5</ele>
        <time>2013-10-09T09:23:33Z</time>
      </trkpt>
      <trkpt lat="45.61928" lon="4.64619">
        <ele>439</ele>
        <time>2013-10-09T09:23:38Z</time>
      </trkpt>
      <trkpt lat="45.61926" lon="4.64611">
        <ele>439</ele>
        <time>2013-10-09T09:23:43Z</time>
      </trkpt>
      <trkpt lat="45.61923" lon="4.64605">
        <ele>439</ele>
        <time>2013-10-09T09:23:46Z</time>
      </trkpt>
      <trkpt lat="45.61918" lon="4.64586">
        <ele>440.5</ele>
        <time>2013-10-09T09:23:54Z</time>
      </trkpt>
      <trkpt lat="45.61914" lon="4.64575">
        <ele>443.7</ele>
        <time>2013-10-09T09:23:58Z</time>
      </trkpt>
      <trkpt lat="45.61911" lon="4.64568">
        <ele>443.7</ele>
        <time>2013-10-09T09:24:01Z</time>
      </trkpt>
      <trkpt lat="45.61911" lon="4.64568">
        <ele>426</ele>
        <time>2013-10-09T09:24:09Z</time>
      </trkpt>
      <trkpt lat="45.61905" lon="4.64553">
        <ele>446.2</ele>
        <time>2013-10-09T09:24:15Z</time>
      </trkpt>
      <trkpt lat="45.619" lon="4.64552">
        <ele>446</ele>
        <time>2013-10-09T09:24:21Z</time>
      </trkpt>
      <trkpt lat="45.61893" lon="4.64544">
        <ele>447.4</ele>
        <time>2013-10-09T09:24:28Z</time>
      </trkpt>
      <trkpt lat="45.61893" lon="4.64544">
        <ele>426.5</ele>
        <time>2013-10-09T09:24:36Z</time>
      </trkpt>
      <trkpt lat="45.61882" lon="4.64534">
        <ele>449</ele>
        <time>2013-10-09T09:24:37Z</time>
      </trkpt>
      <trkpt lat="45.61878" lon="4.64528">
        <ele>448</ele>
        <time>2013-10-09T09:24:40Z</time>
      </trkpt>
      <trkpt lat="45.61871" lon="4.64514">
        <ele>449</ele>
        <time>2013-10-09T09:24:47Z</time>
      </trkpt>
      <trkpt lat="45.61866" lon="4.64513">
        <ele>449.2</ele>
        <time>2013-10-09T09:24:51Z</time>
      </trkpt>
      <trkpt lat="45.61862" lon="4.64513">
        <ele>450</ele>
        <time>2013-10-09T09:24:56Z</time>
      </trkpt>
      <trkpt lat="45.61857" lon="4.64514">
        <ele>450</ele>
        <time>2013-10-09T09:25:02Z</time>
      </trkpt>
      <trkpt lat="45.61852" lon="4.64514">
        <ele>447.8</ele>
        <time>2013-10-09T09:25:05Z</time>
      </trkpt>
      <trkpt lat="45.61847" lon="4.64516">
        <ele>447.1</ele>
        <time>2013-10-09T09:25:09Z</time>
      </trkpt>
      <trkpt lat="45.61842" lon="4.64519">
        <ele>445.3</ele>
        <time>2013-10-09T09:25:14Z</time>
      </trkpt>
      <trkpt lat="45.61838" lon="4.64516">
        <ele>443.7</ele>
        <time>2013-10-09T09:25:19Z</time>
      </trkpt>
      <trkpt lat="45.61834" lon="4.64512">
        <ele>443</ele>
        <time>2013-10-09T09:25:26Z</time>
      </trkpt>
      <trkpt lat="45.61831" lon="4.64506">
        <ele>444.6</ele>
        <time>2013-10-09T09:25:32Z</time>
      </trkpt>
      <trkpt lat="45.61829" lon="4.64499">
        <ele>446</ele>
        <time>2013-10-09T09:25:38Z</time>
      </trkpt>
      <trkpt lat="45.61824" lon="4.64486">
        <ele>446</ele>
        <time>2013-10-09T09:25:46Z</time>
      </trkpt>
      <trkpt lat="45.61824" lon="4.64486">
        <ele>432.1</ele>
        <time>2013-10-09T09:25:54Z</time>
      </trkpt>
      <trkpt lat="45.6182" lon="4.64469">
        <ele>445.5</ele>
        <time>2013-10-09T09:25:57Z</time>
      </trkpt>
      <trkpt lat="45.6182" lon="4.64461">
        <ele>444.5</ele>
        <time>2013-10-09T09:26:02Z</time>
      </trkpt>
      <trkpt lat="45.6182" lon="4.64461">
        <ele>433.7</ele>
        <time>2013-10-09T09:26:11Z</time>
      </trkpt>
      <trkpt lat="45.61816" lon="4.64449">
        <ele>444.9</ele>
        <time>2013-10-09T09:26:15Z</time>
      </trkpt>
      <trkpt lat="45.61814" lon="4.64443">
        <ele>445</ele>
        <time>2013-10-09T09:26:22Z</time>
      </trkpt>
      <trkpt lat="45.61812" lon="4.64435">
        <ele>446.6</ele>
        <time>2013-10-09T09:26:28Z</time>
      </trkpt>
      <trkpt lat="45.6181" lon="4.64429">
        <ele>447</ele>
        <time>2013-10-09T09:26:34Z</time>
      </trkpt>
      <trkpt lat="45.61807" lon="4.64422">
        <ele>446</ele>
        <time>2013-10-09T09:26:39Z</time>
      </trkpt>
      <trkpt lat="45.61803" lon="4.64416">
        <ele>446</ele>
        <time>2013-10-09T09:26:43Z</time>
      </trkpt>
      <trkpt lat="45.61801" lon="4.6441">
        <ele>446</ele>
        <time>2013-10-09T09:26:46Z</time>
      </trkpt>
      <trkpt lat="45.61798" lon="4.64397">
        <ele>446</ele>
        <time>2013-10-09T09:26:54Z</time>
      </trkpt>
      <trkpt lat="45.61797" lon="4.6439">
        <ele>446.9</ele>
        <time>2013-10-09T09:26:59Z</time>
      </trkpt>
      <trkpt lat="45.61797" lon="4.6439">
        <ele>440.2</ele>
        <time>2013-10-09T09:27:08Z</time>
      </trkpt>
      <trkpt lat="45.61795" lon="4.6437">
        <ele>443.1</ele>
        <time>2013-10-09T09:27:16Z</time>
      </trkpt>
      <trkpt lat="45.61795" lon="4.64363">
        <ele>445.7</ele>
        <time>2013-10-09T09:27:20Z</time>
      </trkpt>
      <trkpt lat="45.61795" lon="4.64363">
        <ele>442.2</ele>
        <time>2013-10-09T09:27:29Z</time>
      </trkpt>
      <trkpt lat="45.61797" lon="4.64341">
        <ele>446</ele>
        <time>2013-10-09T09:27:38Z</time>
      </trkpt>
      <trkpt lat="45.61797" lon="4.64341">
        <ele>443.4</ele>
        <time>2013-10-09T09:27:46Z</time>
      </trkpt>
      <trkpt lat="45.61794" lon="4.64322">
        <ele>446.9</ele>
        <time>2013-10-09T09:27:53Z</time>
      </trkpt>
      <trkpt lat="45.61792" lon="4.64315">
        <ele>447</ele>
        <time>2013-10-09T09:27:58Z</time>
      </trkpt>
      <trkpt lat="45.61792" lon="4.64303">
        <ele>443.2</ele>
        <time>2013-10-09T09:28:07Z</time>
      </trkpt>
      <trkpt lat="45.61795" lon="4.64289">
        <ele>439.3</ele>
        <time>2013-10-09T09:28:15Z</time>
      </trkpt>
      <trkpt lat="45.61796" lon="4.64283">
        <ele>439</ele>
        <time>2013-10-09T09:28:18Z</time>
      </trkpt>
      <trkpt lat="45.61794" lon="4.64273">
        <ele>439.9</ele>
        <time>2013-10-09T09:28:24Z</time>
      </trkpt>
      <trkpt lat="45.61795" lon="4.64266">
        <ele>440</ele>
        <time>2013-10-09T09:28:29Z</time>
      </trkpt>
      <trkpt lat="45.61795" lon="4.64266">
        <ele>448.8</ele>
        <time>2013-10-09T09:28:38Z</time>
      </trkpt>
      <trkpt lat="45.61795" lon="4.6425">
        <ele>440</ele>
        <time>2013-10-09T09:28:41Z</time>
      </trkpt>
      <trkpt lat="45.61793" lon="4.64243">
        <ele>440.9</ele>
        <time>2013-10-09T09:28:45Z</time>
      </trkpt>
      <trkpt lat="45.61793" lon="4.64235">
        <ele>442</ele>
        <time>2013-10-09T09:28:49Z</time>
      </trkpt>
      <trkpt lat="45.61793" lon="4.64235">
        <ele>451</ele>
        <time>2013-10-09T09:28:58Z</time>
      </trkpt>
      <trkpt lat="45.61792" lon="4.64219">
        <ele>447.3</ele>
        <time>2013-10-09T09:29:02Z</time>
      </trkpt>
      <trkpt lat="45.6179" lon="4.64206">
        <ele>450.3</ele>
        <time>2013-10-09T09:29:09Z</time>
      </trkpt>
      <trkpt lat="45.61789" lon="4.64199">
        <ele>453.2</ele>
        <time>2013-10-09T09:29:13Z</time>
      </trkpt>
      <trkpt lat="45.61789" lon="4.64199">
        <ele>452.4</ele>
        <time>2013-10-09T09:29:23Z</time>
      </trkpt>
      <trkpt lat="45.61784" lon="4.64181">
        <ele>455.5</ele>
        <time>2013-10-09T09:29:26Z</time>
      </trkpt>
      <trkpt lat="45.6178" lon="4.64173">
        <ele>455</ele>
        <time>2013-10-09T09:29:32Z</time>
      </trkpt>
      <trkpt lat="45.61777" lon="4.64168">
        <ele>453</ele>
        <time>2013-10-09T09:29:36Z</time>
      </trkpt>
      <trkpt lat="45.61776" lon="4.64159">
        <ele>453</ele>
        <time>2013-10-09T09:29:40Z</time>
      </trkpt>
      <trkpt lat="45.61776" lon="4.64153">
        <ele>453</ele>
        <time>2013-10-09T09:29:44Z</time>
      </trkpt>
      <trkpt lat="45.61775" lon="4.6414">
        <ele>455.5</ele>
        <time>2013-10-09T09:29:54Z</time>
      </trkpt>
      <trkpt lat="45.61775" lon="4.6414">
        <ele>456.9</ele>
        <time>2013-10-09T09:30:02Z</time>
      </trkpt>
      <trkpt lat="45.61777" lon="4.64125">
        <ele>459</ele>
        <time>2013-10-09T09:30:05Z</time>
      </trkpt>
      <trkpt lat="45.61775" lon="4.64117">
        <ele>458</ele>
        <time>2013-10-09T09:30:12Z</time>
      </trkpt>
      <trkpt lat="45.61773" lon="4.64097">
        <ele>458</ele>
        <time>2013-10-09T09:30:21Z</time>
      </trkpt>
      <trkpt lat="45.61771" lon="4.64091">
        <ele>460</ele>
        <time>2013-10-09T09:30:24Z</time>
      </trkpt>
      <trkpt lat="45.61772" lon="4.64084">
        <ele>460</ele>
        <time>2013-10-09T09:30:28Z</time>
      </trkpt>
      <trkpt lat="45.61772" lon="4.64078">
        <ele>462.5</ele>
        <time>2013-10-09T09:30:31Z</time>
      </trkpt>
      <trkpt lat="45.6177" lon="4.64071">
        <ele>462.9</ele>
        <time>2013-10-09T09:30:35Z</time>
      </trkpt>
      <trkpt lat="45.6177" lon="4.64071">
        <ele>459.8</ele>
        <time>2013-10-09T09:30:45Z</time>
      </trkpt>
      <trkpt lat="45.61765" lon="4.64051">
        <ele>466.9</ele>
        <time>2013-10-09T09:30:49Z</time>
      </trkpt>
      <trkpt lat="45.61766" lon="4.64044">
        <ele>467</ele>
        <time>2013-10-09T09:30:53Z</time>
      </trkpt>
      <trkpt lat="45.61766" lon="4.64044">
        <ele>461.2</ele>
        <time>2013-10-09T09:31:02Z</time>
      </trkpt>
      <trkpt lat="45.61776" lon="4.64045">
        <ele>465.1</ele>
        <time>2013-10-09T09:31:04Z</time>
      </trkpt>
      <trkpt lat="45.61776" lon="4.64045">
        <ele>461.7</ele>
        <time>2013-10-09T09:31:12Z</time>
      </trkpt>
      <trkpt lat="45.61781" lon="4.64047">
        <ele>462</ele>
        <time>2013-10-09T09:31:15Z</time>
      </trkpt>
      <trkpt lat="45.61786" lon="4.64048">
        <ele>462</ele>
        <time>2013-10-09T09:31:19Z</time>
      </trkpt>
      <trkpt lat="45.61795" lon="4.64046">
        <ele>461</ele>
        <time>2013-10-09T09:31:26Z</time>
      </trkpt>
      <trkpt lat="45.618" lon="4.64047">
        <ele>460.1</ele>
        <time>2013-10-09T09:31:31Z</time>
      </trkpt>
      <trkpt lat="45.61806" lon="4.64046">
        <ele>460</ele>
        <time>2013-10-09T09:31:35Z</time>
      </trkpt>
      <trkpt lat="45.61812" lon="4.64046">
        <ele>460</ele>
        <time>2013-10-09T09:31:39Z</time>
      </trkpt>
      <trkpt lat="45.61812" lon="4.64046">
        <ele>463.1</ele>
        <time>2013-10-09T09:31:47Z</time>
      </trkpt>
      <trkpt lat="45.61822" lon="4.64048">
        <ele>462</ele>
        <time>2013-10-09T09:31:50Z</time>
      </trkpt>
      <trkpt lat="45.61826" lon="4.64045">
        <ele>461.7</ele>
        <time>2013-10-09T09:31:54Z</time>
      </trkpt>
      <trkpt lat="45.6183" lon="4.64041">
        <ele>462</ele>
        <time>2013-10-09T09:31:59Z</time>
      </trkpt>
      <trkpt lat="45.61834" lon="4.64037">
        <ele>462</ele>
        <time>2013-10-09T09:32:03Z</time>
      </trkpt>
      <trkpt lat="45.61839" lon="4.64034">
        <ele>462.9</ele>
        <time>2013-10-09T09:32:08Z</time>
      </trkpt>
      <trkpt lat="45.61844" lon="4.64032">
        <ele>463</ele>
        <time>2013-10-09T09:32:13Z</time>
      </trkpt>
      <trkpt lat="45.61844" lon="4.64032">
        <ele>463.5</ele>
        <time>2013-10-09T09:32:21Z</time>
      </trkpt>
      <trkpt lat="45.61853" lon="4.64019">
        <ele>466.9</ele>
        <time>2013-10-09T09:32:24Z</time>
      </trkpt>
      <trkpt lat="45.61853" lon="4.64019">
        <ele>464.9</ele>
        <time>2013-10-09T09:32:32Z</time>
      </trkpt>
      <trkpt lat="45.6186" lon="4.64009">
        <ele>467.7</ele>
        <time>2013-10-09T09:32:33Z</time>
      </trkpt>
      <trkpt lat="45.61864" lon="4.64004">
        <ele>468</ele>
        <time>2013-10-09T09:32:38Z</time>
      </trkpt>
      <trkpt lat="45.61864" lon="4.64004">
        <ele>466.8</ele>
        <time>2013-10-09T09:32:46Z</time>
      </trkpt>
      <trkpt lat="45.61878" lon="4.63997">
        <ele>467</ele>
        <time>2013-10-09T09:32:51Z</time>
      </trkpt>
      <trkpt lat="45.61887" lon="4.63993">
        <ele>470.8</ele>
        <time>2013-10-09T09:33:01Z</time>
      </trkpt>
      <trkpt lat="45.61888" lon="4.63987">
        <ele>471</ele>
        <time>2013-10-09T09:33:06Z</time>
      </trkpt>
      <trkpt lat="45.61891" lon="4.63981">
        <ele>471</ele>
        <time>2013-10-09T09:33:11Z</time>
      </trkpt>
      <trkpt lat="45.61895" lon="4.63977">
        <ele>472</ele>
        <time>2013-10-09T09:33:16Z</time>
      </trkpt>
      <trkpt lat="45.619" lon="4.63976">
        <ele>471.2</ele>
        <time>2013-10-09T09:33:21Z</time>
      </trkpt>
      <trkpt lat="45.61905" lon="4.63977">
        <ele>472</ele>
        <time>2013-10-09T09:33:27Z</time>
      </trkpt>
      <trkpt lat="45.61905" lon="4.63977">
        <ele>472.7</ele>
        <time>2013-10-09T09:33:38Z</time>
      </trkpt>
      <trkpt lat="45.61905" lon="4.63977">
        <ele>472.7</ele>
        <time>2013-10-09T09:33:48Z</time>
      </trkpt>
      <trkpt lat="45.61929" lon="4.63977">
        <ele>474.5</ele>
        <time>2013-10-09T09:33:54Z</time>
      </trkpt>
      <trkpt lat="45.61938" lon="4.63978">
        <ele>474.5</ele>
        <time>2013-10-09T09:34:01Z</time>
      </trkpt>
      <trkpt lat="45.61938" lon="4.63978">
        <ele>475.9</ele>
        <time>2013-10-09T09:34:09Z</time>
      </trkpt>
      <trkpt lat="45.61946" lon="4.63978">
        <ele>475</ele>
        <time>2013-10-09T09:34:11Z</time>
      </trkpt>
      <trkpt lat="45.61946" lon="4.63978">
        <ele>476.9</ele>
        <time>2013-10-09T09:34:22Z</time>
      </trkpt>
      <trkpt lat="45.61961" lon="4.63975">
        <ele>475.8</ele>
        <time>2013-10-09T09:34:24Z</time>
      </trkpt>
      <trkpt lat="45.61961" lon="4.63975">
        <ele>479.8</ele>
        <time>2013-10-09T09:34:33Z</time>
      </trkpt>
      <trkpt lat="45.61968" lon="4.63977">
        <ele>478</ele>
        <time>2013-10-09T09:34:34Z</time>
      </trkpt>
      <trkpt lat="45.61968" lon="4.63977">
        <ele>480.7</ele>
        <time>2013-10-09T09:34:46Z</time>
      </trkpt>
      <trkpt lat="45.61977" lon="4.6398">
        <ele>479.5</ele>
        <time>2013-10-09T09:34:47Z</time>
      </trkpt>
      <trkpt lat="45.61977" lon="4.6398">
        <ele>481.8</ele>
        <time>2013-10-09T09:34:55Z</time>
      </trkpt>
      <trkpt lat="45.61986" lon="4.63983">
        <ele>482</ele>
        <time>2013-10-09T09:34:56Z</time>
      </trkpt>
      <trkpt lat="45.61991" lon="4.63984">
        <ele>481</ele>
        <time>2013-10-09T09:35:00Z</time>
      </trkpt>
      <trkpt lat="45.61998" lon="4.63986">
        <ele>484.6</ele>
        <time>2013-10-09T09:35:07Z</time>
      </trkpt>
      <trkpt lat="45.62003" lon="4.63987">
        <ele>485.9</ele>
        <time>2013-10-09T09:35:15Z</time>
      </trkpt>
      <trkpt lat="45.62007" lon="4.63988">
        <ele>486.7</ele>
        <time>2013-10-09T09:35:19Z</time>
      </trkpt>
      <trkpt lat="45.62012" lon="4.63993">
        <ele>488.5</ele>
        <time>2013-10-09T09:35:24Z</time>
      </trkpt>
      <trkpt lat="45.62017" lon="4.63993">
        <ele>488.7</ele>
        <time>2013-10-09T09:35:29Z</time>
      </trkpt>
      <trkpt lat="45.62017" lon="4.63993">
        <ele>486.3</ele>
        <time>2013-10-09T09:35:37Z</time>
      </trkpt>
      <trkpt lat="45.62028" lon="4.63993">
        <ele>490</ele>
        <time>2013-10-09T09:35:38Z</time>
      </trkpt>
      <trkpt lat="45.62028" lon="4.63993">
        <ele>488.1</ele>
        <time>2013-10-09T09:35:48Z</time>
      </trkpt>
      <trkpt lat="45.62034" lon="4.63991">
        <ele>490</ele>
        <time>2013-10-09T09:35:49Z</time>
      </trkpt>
      <trkpt lat="45.62036" lon="4.63986">
        <ele>490</ele>
        <time>2013-10-09T09:35:53Z</time>
      </trkpt>
      <trkpt lat="45.62036" lon="4.63986">
        <ele>490.1</ele>
        <time>2013-10-09T09:36:01Z</time>
      </trkpt>
      <trkpt lat="45.62045" lon="4.6397">
        <ele>494</ele>
        <time>2013-10-09T09:36:08Z</time>
      </trkpt>
      <trkpt lat="45.62049" lon="4.63965">
        <ele>500.7</ele>
        <time>2013-10-09T09:36:13Z</time>
      </trkpt>
      <trkpt lat="45.62054" lon="4.63967">
        <ele>502</ele>
        <time>2013-10-09T09:36:19Z</time>
      </trkpt>
      <trkpt lat="45.62054" lon="4.63967">
        <ele>494.4</ele>
        <time>2013-10-09T09:36:29Z</time>
      </trkpt>
      <trkpt lat="45.62054" lon="4.63967">
        <ele>494.4</ele>
        <time>2013-10-09T09:36:38Z</time>
      </trkpt>
      <trkpt lat="45.62079" lon="4.63974">
        <ele>503.7</ele>
        <time>2013-10-09T09:36:39Z</time>
      </trkpt>
      <trkpt lat="45.62079" lon="4.63974">
        <ele>496.2</ele>
        <time>2013-10-09T09:36:47Z</time>
      </trkpt>
      <trkpt lat="45.62093" lon="4.63974">
        <ele>505.7</ele>
        <time>2013-10-09T09:36:49Z</time>
      </trkpt>
      <trkpt lat="45.62093" lon="4.63974">
        <ele>496.7</ele>
        <time>2013-10-09T09:36:57Z</time>
      </trkpt>
      <trkpt lat="45.62104" lon="4.63977">
        <ele>507.9</ele>
        <time>2013-10-09T09:36:58Z</time>
      </trkpt>
      <trkpt lat="45.62104" lon="4.63977">
        <ele>496.3</ele>
        <time>2013-10-09T09:37:06Z</time>
      </trkpt>
      <trkpt lat="45.62115" lon="4.63981">
        <ele>505.3</ele>
        <time>2013-10-09T09:37:11Z</time>
      </trkpt>
      <trkpt lat="45.62125" lon="4.63981">
        <ele>505</ele>
        <time>2013-10-09T09:37:16Z</time>
      </trkpt>
      <trkpt lat="45.62135" lon="4.63983">
        <ele>505</ele>
        <time>2013-10-09T09:37:21Z</time>
      </trkpt>
      <trkpt lat="45.62135" lon="4.63983">
        <ele>494.7</ele>
        <time>2013-10-09T09:37:29Z</time>
      </trkpt>
      <trkpt lat="45.62148" lon="4.63992">
        <ele>507</ele>
        <time>2013-10-09T09:37:34Z</time>
      </trkpt>
      <trkpt lat="45.62148" lon="4.63999">
        <ele>507</ele>
        <time>2013-10-09T09:37:38Z</time>
      </trkpt>
      <trkpt lat="45.62146" lon="4.64012">
        <ele>506.1</ele>
        <time>2013-10-09T09:37:45Z</time>
      </trkpt>
      <trkpt lat="45.62146" lon="4.64012">
        <ele>490.1</ele>
        <time>2013-10-09T09:37:54Z</time>
      </trkpt>
      <trkpt lat="45.6215" lon="4.6403">
        <ele>504</ele>
        <time>2013-10-09T09:37:55Z</time>
      </trkpt>
      <trkpt lat="45.62151" lon="4.64038">
        <ele>503.1</ele>
        <time>2013-10-09T09:37:59Z</time>
      </trkpt>
      <trkpt lat="45.62149" lon="4.64052">
        <ele>500.5</ele>
        <time>2013-10-09T09:38:06Z</time>
      </trkpt>
      <trkpt lat="45.62148" lon="4.64066">
        <ele>499</ele>
        <time>2013-10-09T09:38:12Z</time>
      </trkpt>
      <trkpt lat="45.6215" lon="4.64072">
        <ele>495.6</ele>
        <time>2013-10-09T09:38:15Z</time>
      </trkpt>
      <trkpt lat="45.62155" lon="4.64077">
        <ele>495.6</ele>
        <time>2013-10-09T09:38:19Z</time>
      </trkpt>
      <trkpt lat="45.62167" lon="4.64081">
        <ele>489.1</ele>
        <time>2013-10-09T09:38:27Z</time>
      </trkpt>
      <trkpt lat="45.6217" lon="4.6408">
        <ele>483</ele>
        <time>2013-10-09T09:38:30Z</time>
      </trkpt>
      <trkpt lat="45.6217" lon="4.6408">
        <ele>479.2</ele>
        <time>2013-10-09T09:38:30Z</time>
      </trkpt>
      <trkpt lat="45.6217" lon="4.6408">
        <ele>479.2</ele>
        <time>2013-10-09T09:38:32Z</time>
      </trkpt>
    </trkseg>
  </trk>
</gpx>